[[{"header":{"parameterUnit":"m.s-1","parameterCategory":1,"la1":31.0,"la2":29.5877,"lo1":-88.7671,"lo2":-86.6584,"dy":0.0162,"dx":0.0185,"nx":115,"ny":88,"refTime":"2024-08-23T12:00:00:Z","depth":0,"parameterNumber":2,"parameterNumberName":"U-component_of_WINDS"},"data":[0.0,0.0,0.0,0.0,0.0,0.0,0.0,0.0,0.0,0.0,0.0,0.0,0.0,0.0,0.0,0.0,0.0,0.0,0.0,0.0,0.0,0.0,0.0,0.0,0.0,0.0,0.0,0.0,0.0,0.0,0.0,0.0,0.0,0.0,0.0,0.0,0.0,0.0,0.0,0.0,0.0,0.0,0.0,0.0,0.0,0.0,0.0,0.0,0.0,0.0,0.0,0.0,0.0,0.0,0.0,0.0,0.0,0.0,0.0,0.0,0.0,0.0,0.0,0.0,0.0,0.0,0.0,0.0,0.0,0.0,0.0,0.0,0.0,0.0,0.0,0.0,0.0,0.0,0.0,0.0,0.0,0.0,0.0,0.0,0.0,0.0,0.0,0.0,0.0,0.0,0.0,0.0,0.0,0.0,0.0,0.0,0.0,0.0,0.0,0.0,0.0,0.0,0.0,0.0,0.0,0.0,0.0,0.0,0.0,0.0,0.0,0.0,0.0,0.0,0.0,0.0,0.0,0.0,0.0,0.0,0.0,0.0,0.0,0.0,0.0,0.0,0.0,0.0,0.0,0.0,0.0,0.0,0.0,0.0,0.0,0.0,0.0,0.0,0.0,0.0,0.0,0.0,0.0,0.0,0.0,0.0,0.0,0.0,0.0,0.0,0.0,0.0,0.0,0.0,0.0,0.0,0.0,0.0,0.0,0.0,0.0,0.0,0.0,0.0,0.0,0.0,0.0,0.0,0.0,0.0,0.0,0.0,0.0,0.0,0.0,0.0,0.0,0.0,0.0,0.0,0.0,0.0,0.0,0.0,0.0,0.0,0.0,0.0,0.0,0.0,0.0,0.0,0.0,0.0,0.0,0.0,0.0,0.0,0.0,0.0,0.0,0.0,0.0,0.0,0.0,0.0,0.0,0.0,0.0,0.0,0.0,0.0,0.0,0.0,0.0,0.0,0.0,0.0,0.0,0.0,0.0,0.0,0.0,0.0,0.0,0.0,0.0,0.0,0.0,0.0,0.0,0.0,0.0,0.0,0.0,0.0,0.0,0.0,0.0,0.0,0.0,0.0,0.0,0.0,0.0,0.0,0.0,0.0,0.0,0.0,0.0,0.0,0.0,0.0,0.0,0.0,0.0,0.0,0.0,0.0,0.0,0.0,0.0,0.0,0.0,0.0,0.0,0.0,0.0,0.0,0.0,0.0,0.0,0.0,0.0,0.0,0.0,0.0,0.0,0.0,0.0,0.0,0.0,0.0,0.0,0.0,0.0,0.0,0.0,0.0,0.0,0.0,0.0,0.0,0.0,0.0,0.0,0.0,0.0,0.0,0.0,0.0,0.0,0.0,0.0,0.0,0.0,0.0,0.0,0.0,0.0,0.0,0.0,0.0,0.0,0.0,0.0,0.0,0.0,0.0,0.0,0.0,0.0,0.0,0.0,0.0,0.0,0.0,0.0,0.0,0.0,0.0,0.0,0.0,0.0,0.0,0.0,0.0,0.0,0.0,0.0,0.0,0.0,0.0,0.0,0.0,0.0,0.0,0.0,0.0,0.0,0.0,0.0,0.0,0.0,0.0,0.0,0.0,0.0,0.0,0.0,0.0,0.0,0.0,0.0,0.0,0.0,0.0,0.0,0.0,0.0,0.0,0.0,0.0,0.0,0.0,0.0,0.0,0.0,0.0,0.0,0.0,0.0,0.0,0.0,0.0,0.0,0.0,0.0,0.0,0.0,0.0,0.0,0.0,0.0,0.0,0.0,0.0,0.0,0.0,0.0,0.0,0.0,0.0,0.0,0.0,0.0,0.0,0.0,0.0,0.0,0.0,0.0,0.0,0.0,0.0,0.0,0.0,0.0,0.0,0.0,0.0,0.0,0.0,0.0,0.0,0.0,0.0,0.0,0.0,0.0,0.0,0.0,0.0,0.0,0.0,0.0,0.0,0.0,0.0,0.0,0.0,0.0,0.0,0.0,0.0,0.0,0.0,0.0,0.0,0.0,0.0,0.0,0.0,0.0,0.0,0.0,0.0,0.0,0.0,0.0,0.0,0.0,0.0,0.0,0.0,0.0,0.0,0.0,0.0,0.0,0.0,0.0,0.0,0.0,0.0,0.0,0.0,0.0,0.0,0.0,0.0,0.0,0.0,0.0,0.0,0.0,0.0,0.0,0.0,0.0,0.0,0.0,0.0,0.0,0.0,0.0,0.0,0.0,0.0,0.0,0.0,0.0,0.0,0.0,0.0,0.0,0.0,0.0,0.0,0.0,0.0,0.0,0.0,0.0,0.0,0.0,0.0,0.0,0.0,0.0,0.0,0.0,0.0,0.0,0.0,0.0,0.0,0.0,0.0,0.0,0.0,0.0,0.0,0.0,0.0,0.0,0.0,0.0,0.0,0.0,0.0,0.0,0.0,0.0,0.0,0.0,0.0,0.0,0.0,0.0,0.0,0.0,0.0,0.0,0.0,0.0,0.0,0.0,0.0,0.0,0.0,0.0,0.0,0.0,0.0,0.0,0.0,0.0,0.0,0.0,0.0,0.0,0.0,0.0,0.0,0.0,0.0,0.0,0.0,0.0,0.0,0.0,0.0,0.0,0.0,0.0,0.0,0.0,0.0,0.0,0.0,0.0,0.0,0.0,0.0,0.0,0.0,0.0,0.0,0.0,0.0,0.0,0.0,0.0,0.0,0.0,0.0,0.0,0.0,0.0,0.0,0.0,0.0,0.0,0.0,0.0,0.0,0.0,0.0,0.0,0.0,0.0,0.0,0.0,0.0,0.0,0.0,0.0,0.0,0.0,0.0,0.0,0.0,0.0,0.0,0.0,0.0,0.0,0.0,0.0,0.0,0.0,0.0,0.0,0.0,0.0,0.0,0.0,0.0,0.0,0.0,0.0,0.0,0.0,0.0,0.0,0.0,0.0,0.0,0.0,0.0,0.0,0.0,0.0,0.0,0.0,0.0,0.0,0.0,0.0,0.0,0.0,0.0,0.0,0.0,0.0,0.0,0.0,0.0,0.0,0.0,0.0,0.0,0.0,0.0,0.0,0.0,0.0,0.0,0.0,0.0,0.0,0.0,0.0,0.0,0.0,0.0,0.0,0.0,0.0,0.0,0.0,0.0,0.0,0.0,0.0,0.0,0.0,0.0,0.0,0.0,0.0,0.0,0.0,0.0,0.0,0.0,0.0,0.0,0.0,0.0,0.0,0.0,0.0,0.0,0.0,0.0,0.0,0.0,0.0,0.0,0.0,0.0,0.0,0.0,0.0,0.0,0.0,0.0,0.0,0.0,0.0,0.0,0.0,0.0,0.0,0.0,0.0,0.0,0.0,0.0,0.0,0.0,0.0,0.0,0.0,0.0,0.0,0.0,0.0,0.0,0.0,0.0,0.0,0.0,0.0,0.0,0.0,0.0,0.0,0.0,0.0,0.0,0.0,0.0,0.0,0.0,0.0,0.0,0.0,0.0,0.0,0.0,0.0,0.0,0.0,0.0,0.0,0.0,0.0,0.0,0.0,0.0,0.0,0.0,0.0,0.0,0.0,0.0,0.0,0.0,0.0,0.0,0.0,0.0,0.0,0.0,0.0,0.0,0.0,0.0,0.0,0.0,0.0,0.0,0.0,0.0,0.0,0.0,0.0,0.0,0.0,0.0,0.0,0.0,0.0,0.0,0.0,0.0,0.0,0.0,0.0,0.0,0.0,0.0,0.0,0.0,0.0,0.0,0.0,0.0,0.0,0.0,0.0,0.0,0.0,0.0,0.0,0.0,0.0,0.0,0.0,0.0,0.0,0.0,0.0,0.0,0.0,0.0,0.0,0.0,0.0,0.0,0.0,0.0,0.0,0.0,0.0,0.0,0.0,0.0,0.0,0.0,0.0,0.0,0.0,0.0,0.0,0.0,0.0,0.0,0.0,0.0,0.0,0.0,0.0,0.0,0.0,0.0,0.0,0.0,0.0,0.0,0.0,0.0,0.0,0.0,0.0,0.0,0.0,0.0,0.0,0.0,0.0,0.0,0.0,0.0,0.0,0.0,0.0,0.0,0.0,0.0,0.0,0.0,0.0,0.0,0.0,0.0,0.0,0.0,0.0,0.0,0.0,0.0,0.0,0.0,0.0,0.0,0.0,0.0,0.0,0.0,0.0,0.0,0.0,0.0,0.0,0.0,0.0,0.0,0.0,0.0,0.0,0.0,0.0,0.0,0.0,0.0,0.0,0.0,0.0,0.0,0.0,0.0,0.0,0.0,0.0,0.0,0.0,0.0,0.0,0.0,0.0,0.0,1.5055,0.0,0.0,0.0,0.0,0.0,0.0,0.0,0.0,0.0,0.0,0.0,0.0,0.0,0.0,0.0,0.0,0.0,0.0,0.0,0.0,0.0,0.0,0.0,0.0,0.0,0.0,0.0,0.0,0.0,0.0,0.0,0.0,0.0,0.0,0.0,0.0,0.0,0.0,0.0,0.0,0.0,0.0,0.0,0.0,0.0,0.0,0.0,0.0,0.0,0.0,0.0,0.0,0.0,0.0,0.0,0.0,0.0,0.0,0.0,0.0,0.0,0.0,0.0,0.0,0.0,0.0,0.0,0.0,0.0,0.0,0.0,0.0,0.0,0.0,0.0,0.0,0.0,0.0,0.0,0.0,0.0,0.0,0.0,0.0,0.0,0.0,0.0,0.0,0.0,0.0,0.0,0.0,0.0,0.0,0.0,0.0,0.0,0.0,0.0,0.0,0.0,0.0,0.0,0.0,0.0,0.0,0.0,0.0,0.0,0.0,1.6269,1.638,1.5555,1.4604,1.3631,0.0,0.0,0.0,0.0,0.0,0.0,0.0,0.0,0.0,0.0,0.0,0.0,0.0,0.0,0.0,0.0,0.0,0.0,0.0,0.0,0.0,0.0,0.0,0.0,0.0,0.0,0.0,0.0,0.0,0.0,0.0,0.0,0.0,0.0,0.0,0.0,0.0,0.0,0.0,0.0,0.0,0.0,0.0,0.0,0.0,0.0,0.0,0.0,0.0,0.0,0.0,0.0,0.0,0.0,0.0,0.0,0.0,0.0,0.0,0.0,0.0,0.0,0.0,0.0,0.0,0.0,0.0,0.0,0.0,0.0,0.0,0.0,0.0,0.0,0.0,0.0,0.0,0.0,0.0,0.0,0.0,0.0,0.0,0.0,0.0,0.0,0.0,0.0,0.0,0.0,0.0,0.0,0.0,0.0,0.0,0.0,0.0,0.0,0.0,0.0,0.0,0.0,0.0,0.0,0.0,0.0,0.0,0.0,0.0,0.0,0.0,0.0,1.3961,1.3022,1.2249,0.0,0.0,0.0,0.0,0.0,0.0,0.0,0.0,0.0,0.0,0.0,0.0,0.0,0.0,0.0,0.0,0.0,0.0,0.0,0.0,0.0,0.0,0.0,0.0,0.0,0.0,0.0,0.0,0.0,0.0,0.0,0.0,0.0,0.0,0.0,0.0,0.0,0.0,0.0,0.0,0.0,0.0,0.0,0.0,0.0,0.0,0.0,0.0,0.0,0.0,0.0,0.0,0.0,0.0,0.0,0.0,0.0,0.0,0.0,0.0,0.0,0.0,0.0,0.0,0.0,0.0,0.0,0.0,0.0,0.0,0.0,0.0,0.0,0.0,0.0,0.0,0.0,0.0,0.0,0.0,0.0,0.0,0.0,0.0,0.0,0.0,0.0,0.0,0.0,0.0,0.0,0.0,0.0,0.0,0.0,0.0,0.0,0.0,0.0,0.0,0.0,0.0,0.0,0.0,0.0,0.0,0.0,0.0,0.0,0.0,1.3385,1.3831,1.371,0.0,1.1123,0.0,0.0,0.0,0.0,0.0,0.0,0.0,0.0,0.0,0.0,0.0,0.0,0.0,0.0,0.0,0.0,0.0,0.0,0.0,0.0,0.0,0.0,0.0,0.0,0.0,0.0,0.0,0.0,0.0,0.0,0.0,0.0,0.0,0.0,0.0,0.0,0.0,0.0,0.0,0.0,0.0,0.0,0.0,0.0,0.0,0.0,0.0,0.0,0.0,0.0,0.0,0.0,0.0,0.0,0.0,0.0,0.0,0.0,0.0,0.0,0.0,0.0,0.0,0.0,0.0,0.0,0.0,0.0,0.0,0.0,0.0,0.0,0.0,0.0,0.0,0.0,0.0,0.0,0.0,0.0,0.0,0.0,0.0,0.0,0.0,0.0,0.0,0.0,0.0,0.0,0.0,0.0,0.0,0.0,0.0,0.0,0.0,0.0,0.0,0.0,0.0,0.0,0.0,0.0,0.0,0.0,0.0,0.0,0.0,0.0,1.1955,1.2377,1.1383,1.0461,0.0,0.0,0.0,0.0,0.0,0.0,0.0,0.0,0.0,0.0,0.0,0.0,0.0,0.0,0.0,0.0,0.0,0.0,0.0,0.0,0.0,0.0,0.0,0.0,0.0,0.0,0.0,0.0,0.0,0.0,0.0,0.0,0.0,0.0,0.0,0.0,0.0,0.0,0.0,0.0,0.0,0.0,0.0,0.0,0.0,0.0,0.0,0.0,0.0,0.0,0.0,0.0,0.0,0.0,0.0,0.0,0.0,0.0,0.0,0.0,0.0,0.0,0.0,0.0,0.0,0.0,0.0,0.0,0.0,0.0,0.0,0.0,0.0,0.0,0.0,0.0,0.0,0.0,0.0,0.0,0.0,0.0,0.0,0.0,0.0,0.0,0.0,0.0,0.0,0.0,0.0,0.0,0.0,0.0,0.0,0.0,0.0,0.0,0.0,0.0,0.0,0.0,0.0,0.0,0.0,0.0,0.0,0.0,0.0,0.0,1.0827,0.0,1.0894,0.981,0.8967,0.8601,0.0,0.0,0.0,0.0,0.0,0.0,0.0,0.0,0.0,0.0,0.0,0.0,0.0,0.0,0.0,0.0,0.0,0.0,0.0,0.0,0.0,0.0,0.0,0.0,0.0,0.0,0.0,0.0,0.0,0.0,0.0,0.0,0.0,0.0,0.0,0.0,0.0,0.0,0.0,0.0,0.0,0.0,0.0,0.0,0.0,0.0,0.0,0.0,0.0,0.0,0.0,0.0,0.0,0.0,0.0,0.0,0.0,0.0,0.0,0.0,0.0,0.0,0.0,0.0,0.0,0.0,0.0,0.0,0.0,0.0,0.0,0.0,0.0,0.0,0.0,0.0,0.0,0.0,0.0,0.0,0.0,0.0,0.0,0.0,0.0,0.0,0.0,0.0,0.0,0.0,0.0,0.0,0.0,0.0,0.0,0.0,0.0,0.0,0.0,0.0,0.0,0.0,0.0,0.0,0.0,0.0,0.0,0.0,0.0,0.9209,0.9207,0.9703,0.9743,0.9313,0.0,0.0,0.0,0.0,0.0,0.0,0.0,0.0,0.0,0.0,0.0,0.0,0.0,0.0,0.0,0.0,0.0,0.0,0.0,0.0,0.0,0.0,0.0,0.0,0.0,0.0,0.0,0.0,0.0,0.0,0.0,0.0,0.0,0.0,0.0,0.0,0.0,0.0,0.0,0.0,0.0,0.0,0.0,0.0,0.0,0.0,0.0,0.0,0.0,0.0,0.0,0.0,0.0,0.0,0.0,0.0,0.0,0.0,0.0,0.0,0.0,0.0,0.0,0.0,0.0,0.0,0.0,0.0,0.0,0.0,0.0,0.0,0.0,0.0,0.0,0.0,0.0,0.0,0.0,0.0,0.0,0.0,0.0,0.0,0.0,0.0,0.0,0.0,0.0,0.0,0.0,0.0,0.0,0.0,0.0,0.0,0.0,0.0,0.0,0.0,0.0,0.0,0.0,0.0,0.0,0.0,0.0,0.0,0.0,0.8682,0.8961,0.941,0.9985,0.9442,0.8946,0.0,0.0,0.0,0.0,0.0,0.0,0.0,0.0,0.0,0.0,0.0,0.0,0.0,0.0,0.0,0.0,0.0,0.0,0.0,0.0,0.0,0.0,0.0,0.0,0.0,0.0,0.0,0.0,0.0,0.0,0.0,0.0,0.0,0.0,0.0,0.0,0.0,0.0,0.0,0.0,0.0,0.0,0.0,0.0,0.0,0.0,0.0,0.0,0.0,0.0,0.0,0.0,0.0,0.0,0.0,0.0,0.0,0.0,0.0,0.0,0.0,0.0,0.0,0.0,0.0,0.0,0.0,0.0,0.0,0.0,0.0,0.0,0.0,0.0,0.0,0.0,0.0,0.0,0.0,0.0,0.0,0.0,0.0,0.0,0.0,0.0,0.0,0.0,0.0,0.0,0.0,0.0,0.0,0.0,0.0,0.0,0.0,0.0,0.0,0.0,0.0,0.0,0.0,0.0,0.0,0.0,0.0,0.0,0.0,0.858,0.0,0.9808,0.0,0.9953,0.962,0.0,0.0,0.0,0.0,0.0,0.0,0.0,0.0,0.0,0.0,0.0,0.0,0.0,0.0,0.0,0.0,0.0,0.0,0.0,0.0,0.0,0.0,0.0,0.0,0.0,0.0,0.0,0.0,0.0,0.0,0.0,0.0,0.0,0.0,0.0,0.0,0.0,0.0,0.0,0.0,0.0,0.0,0.0,0.0,0.0,0.0,0.0,0.0,0.0,0.0,0.0,0.0,0.0,0.0,0.0,0.0,0.0,0.0,0.0,0.0,0.0,0.0,0.0,0.0,0.0,0.0,0.0,0.0,0.0,0.0,0.0,0.0,0.0,0.0,0.0,0.0,0.0,0.0,0.0,0.0,0.0,0.0,0.0,0.0,0.0,0.0,0.0,0.0,0.0,0.0,0.0,0.0,0.0,0.0,0.0,0.0,0.0,0.0,0.0,0.0,0.0,0.0,0.0,0.0,0.0,0.0,0.0,0.0,0.8378,0.9145,0.9617,1.0391,1.1434,1.1347,1.1413,0.0,0.0,0.0,0.0,0.0,0.0,0.0,0.0,0.0,0.0,0.0,0.0,0.0,0.0,0.0,0.0,0.0,0.0,0.0,0.0,0.0,0.0,0.0,0.0,0.0,0.0,0.0,0.0,0.0,0.0,0.0,0.0,0.0,0.0,0.0,0.0,0.0,0.0,0.0,0.0,0.0,0.0,0.0,0.0,0.0,0.0,0.0,0.0,0.0,0.0,0.0,0.0,0.0,0.0,0.0,0.0,0.0,0.0,0.0,0.0,0.0,0.0,0.0,0.0,0.0,0.0,0.0,0.0,0.0,0.0,0.0,0.0,0.0,0.0,0.0,0.0,0.0,0.0,0.0,0.0,0.0,0.0,0.0,0.0,0.0,0.0,0.0,0.0,0.0,0.0,0.0,0.0,0.0,0.0,0.0,0.0,0.0,0.0,0.0,0.0,0.0,0.0,0.0,0.0,0.0,0.0,0.0,0.0,0.0,0.8873,1.0247,1.1399,1.2205,1.2302,1.2493,0.0,0.0,0.0,0.0,0.0,0.0,0.0,0.0,0.0,0.0,0.0,0.0,0.0,0.0,0.0,0.0,0.0,0.0,0.0,0.0,0.0,0.0,0.0,0.0,0.0,0.0,0.0,0.0,0.0,0.0,0.0,0.0,0.0,0.0,0.0,0.0,0.0,0.0,0.0,0.0,0.0,0.0,0.0,0.0,0.0,0.0,0.0,0.0,0.0,0.0,0.0,0.0,0.0,0.0,0.0,0.0,0.0,0.0,0.0,0.0,0.0,0.0,0.0,0.0,0.0,0.0,0.0,0.0,0.0,0.0,0.0,0.0,0.0,0.0,0.0,0.0,0.0,0.0,0.0,0.0,0.0,0.0,0.0,0.0,0.0,0.0,0.0,0.0,0.0,0.0,0.0,0.0,0.0,0.0,0.0,0.0,0.0,0.0,0.0,0.0,0.0,0.0,0.0,0.0,0.0,0.0,0.0,0.0,0.0,0.9002,1.024,1.1398,1.2339,1.23,1.2486,1.2912,0.0,0.0,0.0,0.0,0.0,0.0,0.0,0.0,0.0,0.0,0.0,0.0,0.0,0.0,0.0,0.0,0.0,0.0,0.0,0.0,0.0,0.0,0.0,0.0,0.0,0.0,0.0,0.0,0.0,0.0,0.0,0.0,0.0,0.0,0.0,0.0,0.0,0.0,0.0,0.0,0.0,0.0,0.0,0.0,0.0,0.0,0.0,0.0,0.0,0.0,0.0,0.0,0.0,0.0,0.0,0.0,0.0,0.0,0.0,0.0,0.0,0.0,0.0,0.0,0.0,0.0,0.0,0.0,0.0,0.0,0.0,0.0,0.0,0.0,0.0,0.0,0.0,0.0,0.0,0.0,0.0,0.0,0.0,0.0,0.0,0.0,0.0,0.0,0.0,0.0,0.0,0.0,0.0,0.0,0.0,0.0,0.0,0.0,0.0,0.0,0.0,0.0,0.0,0.0,0.0,0.0,0.0,0.0,0.9388,0.9798,1.0687,1.2001,1.1687,1.1729,0.0,0.0,0.0,0.0,0.0,0.0,0.0,0.0,0.0,0.0,0.0,0.0,0.0,0.0,0.0,0.0,0.0,0.0,0.0,0.0,0.0,0.0,0.0,0.0,0.0,0.0,0.0,0.0,0.0,0.0,0.0,0.0,0.0,0.0,0.0,0.0,0.0,0.0,0.0,0.0,0.0,0.0,0.0,0.0,0.0,0.0,0.0,0.0,0.0,0.0,0.0,0.0,0.0,0.0,0.0,0.0,0.0,0.0,0.0,0.0,0.0,0.0,0.0,0.0,0.0,0.0,0.0,0.0,0.0,0.0,0.0,0.0,0.0,0.0,0.0,0.0,0.0,0.0,0.0,0.0,0.0,0.0,0.0,0.0,0.0,0.0,0.0,0.0,0.0,0.0,0.0,0.0,0.0,0.0,0.0,0.0,0.0,0.0,0.0,0.0,0.0,0.0,0.0,0.0,0.0,0.0,0.0,0.0,0.0,0.9557,0.9992,1.1007,1.2583,1.2931,1.3046,0.0,0.0,0.0,0.0,0.0,0.0,0.0,0.0,0.0,0.0,0.0,0.0,0.0,0.0,0.0,0.0,0.0,0.0,0.0,0.0,0.0,0.0,0.0,0.0,0.0,0.0,0.0,0.0,0.0,0.0,0.0,0.0,0.0,0.0,0.0,0.0,0.0,0.0,0.0,0.0,0.0,0.0,0.0,0.0,0.0,0.0,0.0,0.0,0.0,0.0,0.0,0.0,0.0,0.0,0.0,0.0,0.0,0.0,0.0,0.0,0.0,0.0,0.0,0.0,0.0,0.0,0.0,0.0,0.0,0.0,0.0,0.0,0.0,0.0,0.0,0.0,0.0,0.0,0.0,0.0,0.0,0.0,0.0,0.0,0.0,0.0,0.0,0.0,0.0,0.0,0.0,0.0,0.0,0.0,0.0,0.0,0.0,0.0,0.0,0.0,0.0,0.0,0.0,0.0,0.0,0.0,0.0,0.0,0.9451,0.9663,0.9981,1.0646,1.1635,1.1918,1.1862,0.0,0.0,0.0,0.0,0.0,0.0,0.0,0.0,0.0,0.0,0.0,0.0,0.0,0.0,0.0,0.0,0.0,0.0,0.0,0.0,0.0,0.0,0.0,0.0,0.0,0.0,0.0,0.0,0.0,0.0,0.0,0.0,0.0,0.0,0.0,0.0,0.0,0.0,0.0,0.0,0.0,0.0,0.0,0.0,0.0,0.0,0.0,0.0,0.0,0.0,0.0,0.0,0.0,0.0,0.0,0.0,0.0,0.0,0.0,0.0,0.0,0.0,0.0,0.0,0.0,0.0,0.0,0.0,0.0,0.0,0.0,0.0,0.0,0.0,0.0,0.0,0.0,0.0,0.0,0.0,0.0,0.0,0.0,0.0,0.0,0.0,0.0,0.0,0.0,0.0,0.0,0.0,0.0,0.0,0.0,0.0,0.0,0.0,0.0,0.0,0.0,0.0,0.0,0.0,0.0,0.0,0.0,0.0,0.9424,0.9758,0.9934,1.0021,1.0015,0.9859,0.9501,0.0,0.0,0.0,0.0,0.0,0.0,0.0,0.0,0.0,0.0,0.0,0.0,0.0,0.0,0.0,0.0,0.0,0.0,0.0,0.0,0.0,0.0,0.0,0.0,0.0,0.0,0.0,0.0,0.0,0.0,0.0,0.0,0.0,0.0,0.0,0.0,0.0,0.0,0.0,0.0,0.0,0.0,0.0,0.0,0.0,0.0,0.0,0.0,0.0,0.0,0.0,0.0,0.0,0.0,0.0,0.0,0.0,0.0,0.0,0.0,0.0,0.0,0.0,0.0,0.0,0.0,0.0,0.0,0.0,0.0,0.0,0.0,0.0,0.0,0.0,0.0,0.0,0.0,0.0,0.0,0.0,0.0,0.0,0.0,0.0,0.0,0.0,0.0,0.0,0.0,0.0,0.0,0.0,0.0,0.0,0.0,0.0,0.0,0.0,0.0,0.0,0.0,0.0,0.0,0.0,0.0,0.0,0.0,0.9557,0.9652,0.9879,1.0021,1.0015,0.9765,0.9399,0.0,0.0,0.0,0.0,0.0,0.0,0.0,0.0,0.0,0.0,0.0,0.0,0.0,0.0,0.0,0.0,0.0,0.0,0.0,0.0,0.0,0.0,0.0,0.0,0.0,0.0,0.0,0.0,0.0,0.0,0.0,0.0,0.0,0.0,0.0,0.0,0.0,0.0,0.0,0.0,0.0,0.0,0.0,0.0,0.0,0.0,0.0,0.0,1.8677,0.0,0.0,0.0,0.0,0.0,0.0,0.0,0.0,0.0,0.0,0.0,0.0,0.0,0.0,0.0,0.0,0.0,0.0,0.0,0.0,0.0,0.0,0.0,0.0,0.0,0.0,0.0,0.0,0.0,0.0,0.0,0.0,0.0,0.0,0.0,0.0,0.0,0.0,0.0,0.0,0.0,0.0,0.0,0.0,0.0,0.0,0.0,0.0,0.0,0.0,0.0,0.0,0.0,0.0,0.0,0.0,0.0,0.0,0.0,0.9646,0.9713,0.9832,0.9913,0.99,0.9659,0.9327,0.0,0.0,0.0,0.0,0.0,0.0,0.0,0.0,0.0,0.0,0.0,0.0,0.0,0.0,0.0,0.0,0.0,0.0,0.0,0.0,0.0,0.0,0.0,0.0,0.0,0.0,0.0,0.0,0.0,0.0,0.0,0.0,0.0,0.0,0.0,0.0,0.0,0.0,0.0,0.0,0.0,0.0,0.0,0.0,0.0,0.0,0.0,0.0,0.0,0.0,0.0,0.0,0.0,0.0,0.0,0.0,0.0,0.0,0.0,0.0,0.0,0.0,0.0,0.0,0.0,0.0,0.0,0.0,0.0,0.0,0.0,0.0,0.0,0.0,0.0,0.0,0.0,0.0,0.0,0.0,0.0,0.0,0.0,0.0,0.0,0.0,0.0,0.0,0.0,0.0,0.0,0.0,0.0,0.0,0.0,0.0,0.0,0.0,0.0,0.0,0.0,0.0,0.0,0.0,0.0,0.0,0.0,0.9332,0.9632,0.9778,0.9802,0.9758,0.9751,0.9523,0.9232,0.8941,0.0,0.0,0.0,0.0,0.0,0.0,0.0,0.0,0.0,0.0,0.0,0.0,0.0,0.0,0.0,0.0,0.0,0.0,0.0,0.0,0.0,0.0,0.0,0.0,0.0,0.0,0.0,0.0,0.0,0.0,0.0,0.0,0.0,0.0,0.0,0.0,0.0,0.0,1.9485,1.9264,0.0,0.0,0.0,0.0,0.0,0.0,0.0,0.0,1.9187,0.0,0.0,0.0,0.0,0.0,0.0,0.0,0.0,0.0,0.0,0.0,0.0,0.0,0.0,0.0,0.0,0.0,0.0,0.0,0.0,0.0,0.0,0.0,0.0,0.0,0.0,0.0,0.0,0.0,0.0,0.0,0.0,0.0,0.0,0.0,0.0,0.0,0.0,0.0,0.0,0.0,0.0,0.0,0.0,0.0,0.0,0.0,0.0,0.0,0.0,0.0,0.0,0.0,0.0,0.0,0.0,0.9293,0.9281,0.9451,0.9778,0.9707,0.9646,0.9639,0.9476,0.9184,0.8838,0.0,0.0,0.0,0.0,0.0,0.0,0.0,0.0,0.0,0.0,0.0,0.0,0.0,0.0,0.0,0.0,0.0,0.0,0.0,0.0,0.0,0.0,0.0,0.0,0.0,0.0,0.0,0.0,0.0,0.0,0.0,0.0,0.0,0.0,0.0,0.0,0.0,0.0,0.0,1.9569,2.0024,0.0,0.0,0.0,0.0,0.0,0.0,0.0,0.0,1.9344,0.0,0.0,0.0,0.0,0.0,0.0,0.0,0.0,0.0,0.0,0.0,0.0,0.0,0.0,0.0,0.0,0.0,0.0,0.0,0.0,0.0,0.0,0.0,0.0,0.0,0.0,0.0,0.0,0.0,0.0,0.0,0.0,0.0,0.0,0.0,0.0,0.0,0.0,0.0,0.0,0.0,0.0,0.0,0.0,0.0,0.0,0.0,0.0,0.0,0.0,0.0,0.0,0.0,0.0,0.0,0.906,0.9306,0.9496,0.97,0.9646,0.9571,0.9519,0.9191,0.9161,0.0,0.0,0.0,0.0,0.0,0.0,0.0,0.0,0.0,0.0,0.0,0.0,0.0,0.0,0.0,0.0,0.0,0.0,0.0,0.0,0.0,0.0,0.0,0.0,0.0,0.0,0.0,0.0,0.0,0.0,0.0,0.0,0.0,0.0,0.0,0.0,0.0,0.0,0.0,0.0,1.7101,1.7525,1.7807,0.0,0.0,0.0,0.0,0.0,0.0,1.6652,1.6705,0.0,0.0,0.0,0.0,0.0,0.0,0.0,0.0,0.0,0.0,0.0,0.0,0.0,0.0,0.0,0.0,0.0,0.0,0.0,0.0,0.0,0.0,0.0,0.0,0.0,0.0,0.0,0.0,0.0,0.0,0.0,0.0,0.0,0.0,0.0,0.0,0.0,0.0,0.0,0.0,0.0,0.0,0.0,0.0,0.0,0.0,0.0,0.0,0.0,0.0,0.0,0.0,0.0,0.0,0.0,0.8906,0.9264,0.9517,0.9568,0.9551,0.9462,0.9362,0.896,0.9183,0.0,0.0,0.0,0.0,0.0,0.0,0.0,0.0,0.0,0.0,0.0,0.0,0.0,0.0,0.0,0.0,0.0,0.0,0.0,0.0,0.0,0.0,0.0,0.0,0.0,0.0,0.0,0.0,0.0,0.0,0.0,0.0,0.0,0.0,0.0,0.0,0.0,0.0,0.0,0.0,0.0,1.5292,1.5659,1.5427,0.0,0.0,0.0,0.0,1.4771,1.451,0.0,0.0,0.0,0.0,0.0,0.0,0.0,0.0,0.0,0.0,0.0,0.0,0.0,0.0,0.0,0.0,0.0,0.0,0.0,0.0,0.0,0.0,0.0,0.0,0.0,0.0,0.0,0.0,0.0,0.0,0.0,0.0,0.0,0.0,0.0,0.0,0.0,0.0,0.0,0.0,0.0,0.0,0.0,0.0,0.0,0.0,0.0,0.0,0.0,0.0,0.0,0.0,0.0,0.0,0.0,0.0,0.8879,0.896,0.9183,0.9571,0.9376,0.9226,0.9234,0.9008,0.9248,0.0,0.0,0.0,0.0,0.0,0.0,0.0,0.0,0.0,0.0,0.0,0.0,0.0,0.0,0.0,0.0,0.0,0.0,0.0,0.0,0.0,0.0,0.0,0.0,0.0,0.0,0.0,0.0,0.0,0.0,0.0,0.0,0.0,0.0,0.0,0.0,0.0,0.0,0.0,0.0,0.0,1.6277,1.5931,1.5947,1.5901,0.0,0.0,1.5226,1.5384,1.5027,0.0,0.0,0.0,0.0,0.0,0.0,0.0,0.0,0.0,0.0,0.0,0.0,0.0,0.0,0.0,0.0,0.0,0.0,0.0,0.0,0.0,0.0,0.0,0.0,0.0,0.0,0.0,0.0,0.0,0.0,0.0,0.0,0.0,0.0,0.0,0.0,0.0,0.0,0.0,0.0,0.0,0.0,0.0,0.0,0.0,0.0,0.0,0.0,0.0,0.0,0.0,0.0,0.0,0.0,0.0,0.8243,0.8885,0.9022,0.9226,0.9462,0.9294,0.9138,0.9035,0.8804,0.9365,0.0,0.0,0.0,0.0,0.0,0.0,0.0,0.0,0.0,0.0,0.0,0.0,0.0,0.0,0.0,0.0,0.0,0.0,0.0,0.0,0.0,0.0,0.0,0.0,0.0,0.0,0.0,0.0,0.0,0.0,0.0,0.0,0.0,0.0,0.0,0.0,0.0,0.0,0.0,0.0,0.0,0.0,1.007,1.0042,0.0,0.0,0.0,1.1527,1.2604,0.0,0.0,0.0,0.0,0.0,0.0,0.0,0.0,0.0,0.0,0.0,0.0,0.0,0.0,0.0,0.0,0.0,0.0,0.0,0.0,0.0,0.0,0.0,0.0,0.0,0.0,0.0,0.0,0.0,0.0,0.0,0.0,0.0,0.0,0.0,0.0,0.0,0.0,0.0,0.0,0.0,0.0,0.0,0.0,0.0,0.0,0.0,0.0,0.0,0.0,0.0,0.0,0.0,0.0,0.0,0.0,0.0,0.8899,0.9104,0.9254,0.9403,0.9289,0.9111,0.8912,0.8716,0.0,0.0,0.0,0.0,0.0,0.0,0.0,0.0,0.0,0.0,0.0,0.0,0.0,0.0,0.0,0.0,0.0,0.0,0.0,0.0,0.0,0.0,0.0,0.0,0.0,0.0,0.0,0.3708,0.0,0.0,0.0,0.0,0.0,0.0,0.0,0.0,0.0,0.0,0.0,0.0,0.0,0.0,0.5312,0.5529,0.5494,0.596,0.0,0.0,0.7859,0.918,0.9261,0.8639,0.0,0.0,0.0,0.0,0.0,0.0,0.0,0.0,0.0,0.0,0.0,0.0,0.0,0.0,0.0,0.0,0.0,0.0,0.0,0.0,0.0,0.0,0.0,0.0,0.0,0.0,0.0,0.0,0.0,0.0,0.0,0.0,0.0,0.0,0.0,0.0,0.0,0.0,0.0,0.0,0.0,0.0,0.0,0.0,0.0,0.0,0.0,0.0,0.0,0.0,0.0,0.0,0.0,0.0,0.0,0.8892,0.9076,0.9225,0.9367,0.926,0.9111,0.8912,0.8892,0.9181,0.0,0.0,0.0,0.0,0.0,0.0,0.0,0.0,0.0,0.0,0.0,0.0,0.0,0.0,0.0,0.0,0.0,0.0,0.0,0.0,0.0,0.0,0.0,0.0,0.0,0.0,0.0,0.0,0.0,0.0,0.0,0.0,0.0,0.0,0.0,0.0,0.0,0.0,0.0,0.0,0.0,0.5497,0.5447,0.5504,0.5618,0.0,0.0,0.5771,0.5765,0.5859,0.5701,0.5168,0.0,0.0,0.0,0.0,0.0,0.0,0.0,0.0,0.0,0.0,0.0,0.0,0.0,0.0,0.0,0.0,0.0,0.0,0.0,0.0,0.0,0.0,0.0,0.0,0.0,0.0,0.0,0.0,0.0,0.0,0.0,0.0,0.0,0.0,0.0,0.0,0.0,0.0,0.0,0.0,0.0,0.0,0.0,0.0,0.0,0.0,0.0,0.0,0.0,0.0,0.0,0.0,0.0,0.5749,0.6163,0.6266,0.6369,0.6498,0.6378,0.627,0.6205,0.6172,0.6538,0.0,0.0,0.0,0.0,0.0,0.0,0.0,0.0,0.0,0.0,0.0,0.0,0.0,0.0,0.0,0.0,0.0,0.0,0.0,0.0,0.0,0.0,0.0,0.0,0.0,0.0,0.0,0.0,0.1564,0.1607,0.1607,0.0,0.0,0.0,0.0,0.0,0.0,0.0,0.0,0.0,0.0,0.2111,0.2074,0.2124,0.0,0.0,0.3929,0.4348,0.5476,0.5549,0.508,0.3866,0.4293,0.0,0.0,0.0,0.0,0.0,0.0,0.0,0.0,0.0,0.0,0.0,0.0,0.0,0.0,0.0,0.0,0.0,0.0,0.0,0.0,0.0,0.0,0.0,0.0,0.0,0.0,0.0,0.0,0.0,0.0,0.0,0.0,0.0,0.0,0.0,0.0,0.0,0.0,0.0,0.0,0.0,0.0,0.0,0.0,0.0,0.0,0.0,0.0,0.0,0.0,0.0,0.0,0.3265,0.3172,0.3155,0.3173,0.3229,0.313,0.3087,0.304,0.3054,0.3343,0.0,0.0,0.0,0.0,0.0,0.0,0.0,0.0,0.0,0.0,0.0,0.0,0.0,0.0,0.0,0.0,0.0,0.0,0.0,0.0,0.0,0.0,0.0,0.0,0.0,0.0,0.0,0.0,0.0,0.0,0.0,0.0,0.0,0.0,0.0,0.0,0.0,0.0,0.0,0.0,0.0,0.0,0.0,0.0,0.0474,0.1857,0.2037,0.2503,0.3848,0.3913,0.3189,0.1459,0.0,0.0,0.0,0.0,0.0,0.0,0.0,0.0,0.0,0.0,0.0,0.0,0.0,0.0,0.0,0.0,0.0,0.0,0.0,0.0,0.0,0.0,0.0,0.0,0.0,0.0,0.0,-0.8217,0.0,0.0,-0.7907,0.0,0.0,0.0,0.0,0.0,0.0,0.0,0.0,0.0,0.0,0.0,0.0,0.0,0.0,0.0,0.0,0.0,0.0,0.0,0.0,0.0,0.0,0.121,0.0111,0.0057,0.0,-0.0089,-0.0119,-0.0177,-0.029,-0.02,-0.0251,-0.0539,0.0,0.0,0.0,0.0,0.0,0.0,0.0,0.0,0.0,0.0,0.0,0.0,0.0,0.0,0.0,0.0,0.0,0.0,0.0,0.0,0.0,0.0,0.0,0.0,0.0,0.0,0.0,0.0,0.0,0.0,0.0,0.0,0.0,0.0,0.0,0.0,0.0,0.0,0.0,0.0,0.0,0.0,0.0,0.0036,0.0073,0.0073,0.0036,0.0106,0.0106,-0.0564,0.0,0.0,0.0,0.0,0.0,0.0,0.0,0.0,0.0,0.0,0.0,0.0,0.0,0.0,0.0,0.0,0.0,0.0,0.0,0.0,0.0,0.0,0.0,0.0,0.0,0.0,0.0,-0.921,-0.8703,0.0,0.0,0.0,0.0,0.0,0.0,0.0,0.0,0.0,0.0,0.0,-0.7293,-0.6985,0.0,0.0,0.0,0.0,0.0,0.0,0.0,0.0,0.0,0.0,0.0,0.0,-0.2496,-0.3101,-0.3118,-0.3194,-0.3307,-0.3307,-0.3341,-0.3381,-0.3359,-0.3349,-0.3336,0.0,0.0,0.0,0.0,0.0,0.0,0.0,0.0,0.0,0.0,0.0,0.0,0.0,0.0,0.0,0.0,0.0,0.0,0.0,0.0,0.0,0.0,0.0,0.0,0.0,0.0,0.0,0.0,0.0,0.0,0.0,0.0,0.0,0.0,0.0,0.0,0.0,0.0,0.0,0.0,0.0,0.0,0.0,-0.0438,0.0,0.0,0.0,0.0,0.0,0.0,0.0,0.0,0.0,0.0,0.0,0.0,0.0,0.0,-0.1662,0.101,0.2276,0.2971,0.2971,0.0,0.0,0.0,0.0,0.0,0.0,0.0,0.0,0.0,0.0,0.0,0.0,0.0,0.0,-0.9667,0.0,-0.9034,0.0,0.0,0.0,0.0,0.0,0.0,0.0,0.0,-0.9625,-0.9303,-0.8544,-0.8631,-0.809,0.0,-0.634,-0.5368,0.0,0.0,0.0,0.0,0.0,0.0,0.0,0.0,-0.5498,-0.6223,-0.6371,-0.6465,-0.659,-0.6626,-0.6594,-0.6589,-0.6556,-0.6214,-0.5532,-0.5528,-0.4774,0.0,0.0,0.0,0.0,0.0,0.0,0.0,0.0,0.0,0.0,0.0,0.0,0.0,0.0,0.0,0.0,0.0,0.0,0.0,0.0,0.0,0.0,0.0,-0.0237,0.0,0.0,0.0,0.0,0.0,0.0,0.0,0.0,0.0,-0.1611,-0.0753,0.0,0.0,0.0,0.0,0.0,0.0,0.0,0.0,0.0,0.0,0.0,0.0,-0.6043,-0.671,-0.6825,-0.6839,-0.6874,-0.6947,-0.6377,-0.4446,0.0,0.0,-0.0751,0.0235,0.0634,0.1304,0.2372,0.3145,0.3083,0.3751,0.4324,0.0,0.0,0.0,0.0,0.0,0.0,0.0,0.0,-1.1941,-1.1049,0.0,-0.9632,0.0,0.0,0.0,0.0,0.0,-0.9476,0.0,0.0,-1.0202,-1.0315,-1.0297,-1.0265,-1.0184,-0.993,-0.8546,-0.7807,-0.756,-0.5775,0.0,0.0,0.0,0.0,0.0,0.0,-0.7712,-0.9086,-0.9368,-0.9613,-0.9724,-0.9754,-0.9761,-0.9724,-0.9626,-0.8792,-0.7275,-0.7171,-0.645,-0.4865,-0.4761,0.0,0.0,0.0,0.0,0.0,0.0,0.0,0.0,0.0,0.0,0.0,0.0,0.0,0.0,0.0,0.0,0.0,0.0,0.0,0.0,-0.0837,0.0,0.0,0.0,0.0,0.0,0.0,0.0,0.0,0.0,0.0,0.0,0.0,0.0,0.0,0.0,0.0,0.0,0.0,-0.0803,-0.2732,-0.3057,-0.3839,-0.5752,-0.6055,-0.6685,-0.849,0.0,0.0,-0.8966,-0.8993,-0.844,-0.6699,-0.6541,-0.5129,-0.0952,-0.1583,-0.2142,-0.0501,0.0036,0.0,0.0,0.1623,0.2763,-1.91,0.0,0.0,0.0,0.0,-1.4645,-1.3318,-1.2832,-1.1595,-1.0756,-1.0236,-1.0127,0.0,0.0,0.0,0.0,0.0,0.0,-0.9947,-1.0351,-1.031,-1.0392,-1.0588,-1.0595,-1.0568,-1.0462,-0.9974,-0.9697,-0.964,-0.8879,-0.7733,-0.6289,0.0,0.0,0.0,0.0,-0.8869,-0.944,-0.9564,-0.968,-0.9785,-0.9792,-0.9792,-0.9792,-0.9751,-0.9476,-0.8887,-0.8887,-0.8102,-0.6489,-0.634,0.0,0.0,0.0,0.0,0.0,0.0,0.0,0.0,0.0,0.0,0.0,0.0,0.0,0.0,0.0,0.0,0.0,0.0,0.0,-0.0728,-0.0249,-0.0191,0.0,0.0,0.0,0.0,0.0,0.0,0.0,0.0,0.0,0.0,0.0,0.0,0.0,0.0,0.0,0.0,-0.1276,-0.2916,-0.4811,-0.6407,0.0,-0.9814,-1.0086,-1.028,-1.0831,-1.1018,-1.1149,-1.1186,-1.1264,-1.0682,-0.8706,-0.9575,-0.8847,-0.3525,-0.2609,-0.2788,-0.2232,-0.1043,0.0,0.0,0.0486,0.0,-2.0336,-1.8758,-1.7165,-1.6318,-1.5875,-1.372,-1.2651,-1.2395,-1.1333,-1.0846,-1.0784,-1.0703,-1.0412,-1.0015,-0.9985,0.0,0.0,0.0,-1.0446,-1.0751,-1.0703,-1.0757,-1.0887,-1.09,-1.086,-1.0772,-1.0684,-1.0643,-1.0549,-1.0305,-0.9541,-0.8277,0.0,0.0,-0.9235,-0.9406,-0.9598,-0.9744,-0.9751,-0.9798,-0.9879,-0.9819,-0.9792,-0.9792,-0.9792,-0.9751,-0.9663,-0.9663,-0.9202,-0.8143,-0.8014,-0.7488,0.0,0.0,0.0,0.0,0.0,0.0,0.0,0.0,0.0,0.0,0.0,-0.761,-0.6761,0.0,0.0,0.0,-0.31,-0.159,-0.0127,0.0,0.0,0.0,0.0,0.0,0.0,0.0,0.0,-0.1713,-0.0714,0.0,0.0,0.0,0.0,0.0,0.0,0.0,0.0,0.0,-0.3773,-0.5729,-0.7794,-0.9835,-1.1599,-1.1925,-1.1918,-1.1925,-1.1999,-1.2125,-1.2186,-1.2268,-1.158,-0.9992,-1.0304,-0.9719,-0.5211,-0.3728,-0.2807,-0.2022,-0.0881,0.0,0.0,0.0,0.0,-1.9889,-1.9796,-1.8668,-1.6363,-1.3427,-1.3234,-1.2422,-1.1261,-1.1234,-1.1227,-1.1213,-1.1213,-1.1057,-1.0751,-1.0609,0.0,-1.0745,-1.0874,-1.1036,-1.1213,-1.1206,-1.12,-1.12,-1.1193,-1.109,-1.0928,-1.0934,-1.086,-1.0751,-1.0616,-1.048,-1.0344,-1.0066,-0.9866,-0.9819,-0.9961,-1.0035,-1.0035,-1.0035,-1.0042,-1.0035,-0.99,-0.9819,-0.9812,-0.9805,-0.9805,-0.9792,-0.9792,-0.9761,-0.9632,-0.9612,-0.9393,-0.8994,0.0,0.0,0.0,0.0,0.0,0.0,0.0,0.0,0.0,0.0,0.0,0.0,0.0,0.0,0.0,-0.2869,0.0,-0.0135,0.0,0.0,0.0,0.0,-0.0598,-0.2131,-0.0926,0.0,0.0,0.0,0.0,0.0,0.0,0.0,0.0,0.0,-0.0078,-0.0232,-0.2103,-0.4049,-0.6132,-0.8121,-1.0078,-1.1819,-1.2118,-1.2118,-1.2118,-1.2125,-1.2118,-1.1967,-1.1962,-1.1243,-0.9361,-0.9153,-0.8418,-0.6427,-0.4275,-0.2462,-0.0507,0.0,0.0,0.0,0.0,0.0,-1.8226,-1.812,-1.7795,-1.6314,-1.4027,-1.2602,-1.1825,-1.1511,-1.1511,-1.1443,-1.137,-1.1335,-1.1268,-1.1091,-1.105,-1.1125,-1.1226,-1.1145,-1.1227,-1.1328,-1.1254,-1.12,-1.12,-1.12,-1.1179,-1.1145,-1.1111,-1.1125,-1.1091,-1.1057,-1.1023,-1.0989,-1.0914,-1.0561,-0.9994,-1.0116,-1.0222,-1.0222,-1.0229,-1.0229,-1.0222,-1.0188,-1.0114,-0.9936,-0.993,-0.9907,-0.9798,-0.9792,-0.9808,-0.9737,-0.9666,-0.9557,-0.9449,-0.9102,0.0,0.0,0.0,0.0,0.0,0.0,0.0,0.0,0.0,-0.6828,-0.353,0.0,-0.3058,0.0,-0.0717,-0.0387,0.0,0.0,0.0,0.0,-0.0231,-0.0156,-0.0557,-0.0241,0.0,0.0,0.0,0.0,0.0,0.0,0.0,0.0,0.0,-0.0556,-0.2095,-0.4183,-0.628,-0.8245,-1.0289,-1.1817,-1.2143,-1.2237,-1.2237,-1.2237,-1.2318,-1.1869,-1.034,-1.0114,-0.9449,-0.7508,-0.7054,-0.6204,-0.4252,-0.341,-0.2368,0.0,0.0,0.0,0.0,0.0,0.0,-1.6415,-1.6276,-1.5449,-1.4365,-1.3202,-1.2947,-1.2359,-1.1619,-1.1584,-1.1572,-1.1491,-1.1491,-1.1443,-1.1369,-1.1369,-1.1416,-1.1484,-1.1402,-1.1416,-1.1484,-1.1402,-1.1369,-1.1369,-1.1369,-1.1363,-1.1302,-1.1295,-1.1261,-1.12,-1.12,-1.12,-1.12,-1.12,-1.0989,-1.0529,-1.0568,-1.0575,-1.0575,-1.0446,-1.0344,-1.0315,-1.0308,-1.0209,-1.0028,-1.0082,-1.0015,-0.9798,-0.9951,-0.9958,-0.9829,-0.9778,-0.9771,-0.9771,-0.8699,-0.8166,0.0,0.0,0.0,0.0,0.0,0.0,0.0,0.0,0.0,0.0,0.0,-0.1995,0.0,0.0,0.0,0.0,0.0,0.0,0.0,0.0,0.0,0.0,0.0,0.0,0.0,0.0,0.0,0.0,0.0,0.0,0.0,0.0,-0.0727,-0.2793,-0.4926,-0.7037,-0.91,-1.1172,-1.2481,-1.2393,-1.2386,-1.2073,-1.1229,-1.1085,-1.043,-0.84,-0.8007,-0.7334,-0.5399,-0.4897,-0.4199,-0.2187,-0.1721,-0.1281,0.0,0.0,0.0,0.0,0.0,0.0,-1.4745,-1.4765,-1.3155,-1.237,-1.2319,-1.3822,-1.3384,-1.1584,-1.1584,-1.1584,-1.1584,-1.1584,-1.1584,-1.1584,-1.1584,-1.1584,-1.1584,-1.1584,-1.1584,-1.1584,-1.1584,-1.1584,-1.1584,-1.1584,-1.1552,-1.1423,-1.1416,-1.1355,-1.1226,-1.1254,-1.1254,-1.1254,-1.1254,-1.1254,-1.1247,-1.1043,-1.0948,-1.0907,-1.0663,-1.046,-1.0369,-1.0337,-1.0263,-1.0089,-1.0014,-0.9853,-0.9529,-0.9582,-0.9482,-0.9217,-0.9268,-0.9343,-0.9306,-0.7713,-0.6787,0.0,-0.5168,0.0,0.0,0.0,0.0,0.0,0.0,0.0,0.0,-0.2315,-0.1821,0.0,0.0,0.0,0.0,0.0,0.0,0.0,0.0,0.0,0.0,0.0,0.0,0.0,0.0,0.0,0.0,0.0,0.0,0.0,0.0,0.0,-0.2814,-0.4947,-0.7017,-0.908,-1.0907,-1.1714,-1.1431,-1.1476,-1.0889,-0.9371,-0.9017,-0.8249,-0.6232,-0.5883,-0.5198,-0.3273,-0.2687,-0.2095,-0.0286,0.0,0.0,0.0,0.0,0.0,0.0,0.0,0.0,-1.3778,-1.4994,-1.4694,-1.4439,-1.4351,-1.4677,-1.3559,-1.1584,-1.1584,-1.1584,-1.1584,-1.1584,-1.1584,-1.1584,-1.1584,-1.1584,-1.1584,-1.1584,-1.1584,-1.1584,-1.1584,-1.1584,-1.1584,-1.1584,-1.1606,-1.1579,-1.1579,-1.1565,-1.1531,-1.1531,-1.1531,-1.1531,-1.1531,-1.1538,-1.1525,0.0,0.0,0.0,-1.0738,-1.0663,-1.0636,-1.0636,-1.0561,-1.038,-0.9036,0.0,-0.797,-0.6698,-0.5898,-0.5835,-0.5846,0.0,0.0,0.0,0.0,0.0,0.0,0.0,0.0,0.0,0.0,0.0,-0.0802,-0.0799,-0.0471,-0.0495,-0.0394,0.0,0.0,0.0,0.0,0.0,0.0,0.0,0.0,0.0,0.0,0.0,0.0,0.0,0.0,0.0,0.0,0.0,0.0,0.0,0.0,0.0,-0.2749,-0.4826,-0.6982,-0.8992,-0.9722,-0.9343,-0.7695,-0.7626,-0.7725,-0.6917,-0.6878,-0.6046,-0.42,-0.3694,-0.3005,0.0,-0.0575,0.0,0.0,0.0,0.0,0.0,0.0,0.0,0.0,0.0,0.0,-1.3106,0.0,-1.3854,-1.3725,0.0,-1.3611,-1.2963,-1.1837,-1.1755,-1.1651,-1.1584,-1.1584,-1.1584,-1.1584,-1.1584,-1.1584,-1.1584,-1.1584,-1.1584,-1.1584,-1.1584,-1.1584,-1.1584,-1.1584,-1.1584,-1.1584,-1.1584,-1.1584,-1.1584,-1.1584,-1.1584,-1.1584,-1.1584,-1.1584,-1.1613,-1.1463,-1.128,-1.1056,-1.0975,-1.0975,-1.0901,-1.0014,-0.944,-0.9244,-0.7545,0.0,0.0,0.0,0.0,0.0,0.0,0.0,0.0,0.0,0.0,-0.3765,-0.2864,-0.1934,-0.1176,-0.1107,-0.0801,0.0,0.0,0.0,0.0,0.0,0.0,0.0,0.0,0.0,0.0,0.0,0.0,0.0,0.0,0.0,0.0,0.0,0.0,0.0,0.0,0.0,0.0,0.0,0.0,0.0,0.0,0.0,-0.1497,-0.3387,-0.546,-0.7501,-0.7863,-0.7513,-0.6565,-0.6277,-0.5777,-0.5099,-0.4738,-0.3826,-0.1905,-0.1584,-0.1185,0.0,0.0,0.0,0.0,0.0,0.0,0.0,0.0,0.0,0.0,0.0,0.0,-1.2773,-1.2759,-1.2603,-1.2474,-1.2366,-1.2338,-1.2281,-1.2125,0.0,0.0,0.0,-1.1633,-1.1584,-1.1584,-1.1584,-1.1404,-1.1109,-1.144,-1.1404,-1.1109,-1.144,-1.144,-1.1109,-1.1109,-1.1074,-1.1074,-1.1074,-1.1289,-1.1584,-1.1584,-1.1584,-1.1584,-1.1253,-1.0887,-1.0593,-1.0482,-1.037,-1.0294,-1.0521,-1.0495,-1.015,-0.8615,-0.77,-0.7547,-0.5826,-0.4802,-0.453,-0.446,-0.43,-0.4041,-0.4131,-0.4257,-0.4374,-0.2934,-0.2148,-0.2302,-0.0865,0.0,0.0,0.0,0.0,0.0,0.0,0.0,0.0,0.0,0.0,0.0,0.0,0.0,0.0,0.0,0.0,0.0,0.0,0.0,0.0,0.0,0.0,0.0,0.0,0.0,0.0,0.0,0.0,0.0,0.0,0.0,0.0,-0.1939,-0.3858,-0.5382,-0.573,-0.5581,-0.5161,-0.4943,-0.4452,-0.285,-0.2563,-0.1907,0.0,0.0,0.0,0.0,0.0,0.0,0.0,0.0,0.0,0.0,0.0,0.0,0.0,0.0,0.0,-1.2969,-1.2955,-1.2766,-1.2645,-1.2657,-1.2528,-1.2386,-1.2237,-1.1915,-1.178,-1.1759,-1.1638,-1.1584,-1.1584,-1.1584,-1.0671,-0.9249,-1.0815,-1.0707,-0.9249,-1.0815,-1.0707,-0.9141,-0.91,-0.91,-0.91,-0.9105,-0.9975,-1.1433,-1.1548,-1.1584,-1.1361,-0.9939,-0.8307,-0.6749,-0.6593,-0.6581,-0.6601,-0.7973,-0.7881,-0.6241,-0.5963,-0.582,-0.5705,-0.4013,-0.3074,-0.2991,-0.1589,-0.0747,-0.0674,-0.0689,-0.0736,0.0,0.0,-0.0376,-0.0415,0.0,0.0,0.0,0.0,0.0,0.0,0.0,0.0,0.0,0.0,0.0,0.0,0.0,0.0,0.0,0.0,0.0,0.0,0.0,0.0,0.0,0.0,0.0,0.0,0.0,0.0,0.0,0.0,0.0,0.0,0.0,0.0,0.0,-0.1787,-0.3075,-0.3495,-0.3526,-0.281,0.0,0.0,0.0,-0.0503,0.0,0.0,0.0,0.0,0.0,0.0,0.0,0.0,0.0,0.0,0.0,0.0,0.0,0.0,0.0,0.0,0.0,-1.3118,-1.3098,-1.2915,-1.2854,-1.2847,-1.2691,-1.1876,-1.0762,-1.0492,-1.1008,-1.1804,-1.0694,-1.0149,-1.0038,-0.8961,-0.7998,-0.7178,-0.8053,-0.7993,-0.7218,-0.8046,-0.7982,-0.7183,-0.7147,-0.711,-0.711,-0.711,-0.7584,-0.8384,-0.8456,-0.8451,-0.8384,-0.7544,-0.6677,-0.5881,-0.5812,-0.5265,-0.4283,-0.6026,-0.6524,-0.5635,-0.46,-0.403,-0.403,-0.2216,-0.1217,-0.1217,-0.0432,0.0,0.0,0.0,0.0,0.0,0.0,0.0,0.0,0.0,0.0,0.0,0.0,0.0,0.0,0.0,0.0,0.0,0.0,0.0,0.0,0.0,0.0,0.0,0.0,0.0,0.0,0.0,0.0,0.0,0.0,0.0,0.0,0.0,0.0,0.0,0.0,0.0,0.0,0.0,0.0,0.0,0.0,0.0,-0.141,-0.1415,-0.1088,0.0,0.0,0.0,0.0,0.0,0.0,0.0,0.0,0.0,0.0,0.0,0.0,0.0,0.0,0.0,0.0,0.0,0.0,0.0,0.0,0.0,-1.3275,-1.3261,-1.2545,-1.1971,-1.1487,-1.1344,-1.0268,-0.8739,-0.8582,-0.9409,-1.0448,-0.8953,-0.8215,-0.8023,-0.6477,-0.5575,-0.5231,-0.5599,-0.5577,-0.52,-0.5593,-0.5567,-0.5165,-0.5128,-0.5165,-0.5128,-0.5128,-0.5348,-0.5746,-0.5786,-0.5567,-0.5198,-0.515,-0.4925,-0.4488,-0.4475,-0.3744,-0.2436,-0.3744,-0.4506,-0.4434,-0.2981,-0.2219,-0.2147,-0.0801,0.0,0.0,0.0,0.0,0.0,0.0,0.0,0.0,0.0,0.0,0.0,0.0,0.0,0.0,0.0,0.0,0.0,0.0,0.0,0.0,0.0,0.0,0.0,0.0,0.0,0.0,0.0,0.0,0.0,0.0,0.0,0.0,0.0,0.0,0.0,0.0,0.0,0.0,0.0,0.0,0.0,0.0,0.0,0.0,0.0,0.0,0.0,0.0,0.0,0.0,0.0,0.0,0.0,0.0,0.0,0.0,0.0,0.0,0.0,0.0,0.0,0.0,0.0,0.0,0.0,0.0,0.0,0.0,0.0,0.0,-1.3454,-1.3204,-1.1029,-0.882,-0.7165,-0.7029,-0.6905,-0.6601,-0.6547,-0.662,-0.6731,-0.6315,-0.6033,-0.6064,-0.5804,-0.4718,-0.3362,-0.4971,-0.4818,-0.3466,-0.5,-0.4882,-0.3268,-0.3159,-0.3161,-0.3158,-0.3158,-0.3977,-0.5394,-0.5587,-0.4844,-0.3344,-0.3161,-0.2332,0.0,0.0,0.0,0.0,-0.0438,-0.0547,-0.0547,-0.0365,-0.0255,-0.0255,0.0,0.0,0.0,0.0,0.0,0.0,0.0,0.0,0.0,0.0,0.0,0.0,0.0,0.0,0.0,0.0,0.0,0.0,0.0,0.0,0.0,0.0,0.0,0.0,0.0,0.0,0.0,0.0,0.0,0.0,0.0,0.0,0.0,0.0,0.0,0.0,0.0,0.0,0.0,0.0,0.0,0.0,0.0,0.0,0.0,0.0,0.0,0.0,0.0,0.0,0.0,0.0,0.0,0.0,0.0,0.0,0.0,0.0,0.0,0.0,0.0,0.0,0.0,0.0,0.0,0.0,0.0,0.0,0.0,0.0,0.0,-0.9545,-0.9445,-0.8412,-0.7399,-0.6465,-0.6418,-0.5648,-0.4427,-0.4424,-0.3733,-0.2636,-0.2437,-0.3067,-0.4085,-0.2932,-0.1892,-0.1275,-0.2031,-0.1948,-0.1261,-0.2048,-0.1927,-0.1248,-0.1211,-0.1173,-0.1172,-0.1173,0.0,-0.2228,0.0,-0.1965,-0.1285,-0.1204,-0.0751,0.0,0.0,0.0,0.0,0.0,0.0,0.0,0.0,0.0,0.0,0.0,0.0,0.0,0.0,0.0,0.0,0.0,0.0,0.0,0.0,0.0,0.0,0.0,0.0,0.0,0.0,0.0,0.0,0.0,0.0,0.0,0.0,0.0,0.0,0.0,0.0,0.0,0.0,0.0,0.0,0.0,0.0,0.0,0.0,0.0,0.0,0.0,0.0,0.0,0.0,0.0,0.0,0.0,0.0,0.0,0.0,0.0,0.0,0.0,0.0,0.0,0.0,0.0,0.0,0.0,0.0,0.0,0.0,0.0,0.0,0.0,0.0,0.0,0.0,0.0,0.0,0.0,0.0,0.0,0.0,-0.1903,-0.6772,-0.6668,-0.6114,-0.5386,-0.4721,-0.4706,-0.3805,-0.2376,-0.2246,-0.1385,0.0,0.0,-0.0799,-0.19,-0.0632,0.0,0.0,0.0,0.0,0.0,0.0,0.0,0.0,0.0,0.0,0.0,0.0,0.0,0.0,0.0,0.0,0.0,0.0,0.0,0.0,0.0,0.0,0.0,0.0,0.0,0.0,0.0,0.0,0.0,0.0,0.0,0.0,0.0,0.0,0.0,0.0,0.0,0.0,0.0,0.0,0.0,0.0,0.0,0.0,0.0,0.0,0.0,0.0,0.0,0.0,0.0,0.0,0.0,0.0,0.0,0.0,0.0,0.0,0.0,0.0,0.0,0.0,0.0,0.0,0.0,0.0,0.0,0.0,0.0,0.0,0.0,0.0,0.0,0.0,0.0,0.0,0.0,0.0,0.0,0.0,0.0,0.0,0.0,0.0,0.0,0.0,0.0,0.0,0.0,0.0,0.0,0.0,0.0,0.0,0.0,0.0,0.0,0.0,0.0,-0.3576,-0.6913,-0.6491,-0.4453,-0.2381,0.0,0.0,0.0,0.0,0.0,0.0,0.0,0.0,0.0,0.0,0.0,0.0,0.0,0.0,0.0,0.0,0.0,0.0,0.0,0.0,0.0,0.0,0.0,0.0,0.0,0.0,0.0,0.0,0.0,0.0,0.0,0.0,0.0,0.0,0.0,0.0,0.0,0.0,0.0,0.0,0.0,0.0,0.0,0.0,0.0,0.0,0.0,0.0,0.0,0.0,0.0,0.0,0.0,0.0,0.0,0.0,0.0,0.0,0.0,0.0,0.0,0.0,0.0,0.0,0.0,0.0,0.0,0.0,0.0,0.0,0.0,0.0,0.0,0.0,0.0,0.0,0.0,0.0,0.0,0.0,0.0,0.0,0.0,0.0,0.0,0.0,0.0,0.0,0.0,0.0,0.0,0.0,0.0,0.0,0.0,0.0,0.0,0.0,0.0,0.0,0.0,0.0,0.0,0.0,0.0,0.0,0.0,0.0,0.0,0.0,-0.4262,-0.2469,-0.2393,-0.1584,-0.0699,0.0,0.0,0.0,0.0,0.0,0.0,0.0,0.0,0.0,0.0,0.0,0.0,0.0,0.0,0.0,0.0,0.0,0.0,0.0,0.0,0.0,0.0,0.0,0.0,0.0,0.0,0.0,0.0,0.0,0.0,0.0,0.0,0.0,0.0,0.0,0.0,0.0,0.0,0.0,0.0,0.0,0.0,0.0,0.0,0.0,0.0,0.0,0.0,0.0,0.0,0.0,0.0,0.0,0.0,0.0,0.0,0.0,0.0,0.0,0.0,0.0,0.0,0.0,0.0,0.0,0.0,0.0,0.0,0.0,0.0,0.0,0.0,0.0,0.0,0.0,0.0,0.0,0.0,0.0,0.0,0.0,0.0,0.0,0.0,0.0,0.0,0.0,0.0,0.0,0.0,0.0,0.0,0.0,0.0,0.0,0.0,0.0,0.0,0.0,0.0,0.0,0.0,0.0,0.0,0.0,0.0,0.0,0.0,0.0,-0.4192,-0.658,0.0,0.0,0.0,0.0,0.0,0.0,0.0,0.0,0.0,0.0,0.0,0.0,0.0,0.0,0.0,0.0,0.0,0.0,0.0,0.0,0.0,0.0,0.0,0.0,0.0,0.0,0.0,0.0,0.0,0.0,0.0,0.0,0.0,0.0,0.0,0.0,0.0,0.0,0.0,0.0,0.0,0.0,0.0,0.0,0.0,0.0,0.0,0.0,0.0,0.0,0.0,0.0,0.0,0.0,0.0,0.0,0.0,0.0,0.0,0.0,0.0,0.0,0.0,0.0,0.0,0.0,0.0,0.0,0.0,0.0,0.0,0.0,0.0,0.0,0.0,0.0,0.0,0.0,0.0,0.0,0.0,0.0,0.0,0.0,0.0,0.0,0.0,0.0,0.0,0.0,0.0,0.0,0.0,0.0,0.0,0.0,0.0,0.0,0.0,0.0,0.0,0.0,0.0,0.0,0.0,0.0,0.0,0.0,0.0,0.0,0.0,0.0,-0.4196,-0.6467,-0.7979,0.0,0.0,0.0,0.0,0.0,0.0,0.0,0.0,0.0,0.0,0.0,0.0,0.0,0.0,0.0,0.0,0.0,0.0,0.0,0.0,0.0,0.0,0.0,0.0,0.0,0.0,0.0,0.0,0.0,0.0,0.0,0.0,0.0,0.0,0.0,0.0,0.0,0.0,0.0,0.0,0.0,0.0,0.0,0.0,0.0,0.0,0.0,0.0,0.0,0.0,0.0,0.0,0.0,0.0,0.0,0.0,0.0,0.0,0.0,0.0,0.0,0.0,0.0,0.0,0.0,0.0,0.0,0.0,0.0,0.0,0.0,0.0,0.0,0.0,0.0,0.0,0.0,0.2141,0.37,0.3458,0.3374,0.2587,0.0833,0.0,0.0,0.0,0.0,0.0,0.0,0.0,0.0,0.0,0.0,0.0,0.0,0.0,0.0,0.0,0.0,0.0,0.0,0.0,0.0,0.0,0.0,0.0,0.0,0.0,0.0,-0.0852,-0.2214,-0.3569,-0.5441,-0.7113,-0.7895,0.0,0.0,0.0,0.0,0.0,0.0,0.0,0.0,0.0,0.0,0.0,0.0,0.0,0.0,0.0,0.0,0.0,0.0,0.0,0.0,0.0,0.0,0.0,0.0,0.0,0.0,0.0,0.0,0.0,0.0,0.0,0.0,0.0,0.0,0.0,0.0,0.0,0.0,0.0,0.0,0.0,0.0,0.0,0.0,0.0,0.0,0.0,0.0,0.0,0.0,0.0,0.0,0.0,0.0,0.0,0.0,0.0,0.0,0.0,0.0,0.0,0.0,0.0,0.0,0.0,0.0,0.0,0.0,0.1485,0.2612,0.2892,0.4289,0.3622,0.0,0.0,0.0,0.0,0.1112,0.1961,0.3475,0.3794,0.2662,0.112,0.1164,0.1529,0.0,0.0,0.0,0.0,0.0,0.0,0.0,0.0,0.0,0.0,0.0,0.0,0.0,0.0,0.0,0.0,0.0,0.0,0.0,0.0,0.0,0.0,0.0,0.0,-0.1664,-0.2985,-0.4444,-0.6094,-0.7102,-0.7853,0.0,0.0,0.0,0.0,0.0,0.0,0.0,0.0,0.0,0.0,0.0,0.0,0.0,0.0,0.0,0.0,0.0,0.0,0.0,0.0,0.0,0.0,0.0,0.0,0.0,0.0,0.0,0.0,0.0,0.0,0.0,0.0,0.0,0.0,0.0,0.0,0.0,0.0,0.0,0.0,0.0,0.0,0.0,0.0,0.0,0.0,0.0,0.0,0.0,0.0,0.0,0.0,0.0,0.0,0.0,0.0,0.0,0.0,0.0,0.0,0.0,0.0,0.0,0.0,0.0,0.0,0.1673,0.2976,0.426,0.5223,0.5458,0.6489,0.5909,0.3318,0.0,0.3286,0.3852,0.4215,0.495,0.6435,0.5997,0.4053,0.2683,0.1364,0.1917,0.0,0.0,0.0,0.0,0.0,0.0,0.0,0.0,0.0,0.0,0.0,0.0,0.0,0.0,0.0,0.0,0.0,0.0,0.0,0.0,0.0,0.0,0.0,-0.0334,-0.1952,-0.3335,-0.4272,-0.5356,-0.6873,-0.7454,0.0,0.0,0.0,0.0,0.0,0.0,0.0,0.0,0.0,0.0,0.0,0.0,0.0,0.0,0.0,0.0,0.0,0.0,0.0,0.0,0.0,0.0,0.0,0.0,0.0,0.0,0.0,0.0,0.0,0.0,0.0,0.0,0.0,0.0,0.0,0.0,0.0,0.0,0.0,0.0,0.0,0.0,0.0,0.0,0.0,0.0,0.0,0.0,0.0,0.0,0.0,0.0,0.0,0.0,0.0,0.0,0.0,0.0,0.0,0.0,0.0,0.0,0.0,0.1343,0.3608,0.4054,0.4732,0.6509,0.745,0.7822,0.7822,0.8483,0.8291,0.8091,0.7197,0.7856,1.0659,1.061,0.9805,1.0054,0.9062,0.655,0.3798,0.1901,0.0856,0.0,0.0,0.0,0.0,0.0,0.0,0.0,0.0,0.0,0.0,0.0,0.0,0.0,0.0,0.0,0.0,0.0,0.0,0.0,0.0,0.0,0.0,0.0,0.0,-0.1777,-0.278,-0.348,-0.452,-0.59,-0.57,0.0,0.0,0.0,0.0,0.0,0.0,0.0,0.0,0.0,0.0,0.0,0.0,0.0,0.0,0.0,0.0,0.0,0.0,0.0,0.0,0.0,0.0,0.0,0.0,0.0,0.0,0.0,0.0,0.0,0.0,0.0,0.0,0.0,0.0,0.0,0.0,0.0,0.0,0.0,0.0,0.0,0.0,0.0,0.0,0.0,0.0,0.0,0.0,0.0,0.0,0.0,0.0,0.0,0.0,0.0,0.0,0.0,0.0,0.0,0.1805,0.2727,0.3004,0.4186,0.5874,0.6433,0.6582,0.6945,0.7946,0.9101,1.0389,1.0677,1.1951,1.2852,1.2705,1.0132,0.8985,1.062,0.9753,0.9251,1.0677,0.9109,0.6648,0.4421,0.2949,0.1763,0.0,0.0,0.0,0.0,0.0,0.0,0.0,0.0,0.0,0.0,0.0,0.0,0.0,0.0,0.0,0.0,0.0,0.0,0.0,0.0,0.0,0.0,0.0,0.0,0.0,-0.241,-0.3167,-0.3591,-0.445,-0.3338,0.0,0.0,0.0,0.0,0.0,0.0,0.0,0.0,0.0,0.0,0.0,0.0,0.0,0.0,0.0,0.0,0.0,0.0,0.0,0.0,0.0,0.0,0.0,0.0,0.0,0.0,0.0,0.0,0.0,0.0,0.0,0.0,0.0,0.0,0.0,0.0,0.0,0.0,0.0,0.0,0.0,0.0,0.0,0.0,0.165,0.1934,0.0,0.0,0.0,0.0,0.0,0.0,0.0,0.0,0.0,0.0,0.0934,0.0,0.2059,0.3974,0.5279,0.5564,0.6948,0.804,0.8895,0.9226,0.9346,1.105,1.2239,1.2804,1.3187,1.4375,1.5087,1.4657,1.2522,1.1427,1.2904,1.1951,1.1055,1.0819,0.9157,0.6645,0.4086,0.2997,0.0,0.0,0.0,0.0,0.0,0.0,0.0,0.0,0.0,0.0,0.0,0.0,0.0,0.0,0.0,0.0,0.0,0.0,0.0,0.0,0.0,0.0,0.0,0.0,0.0,-0.1117,-0.2082,0.0,0.0,0.0,0.0,0.0,0.0,0.0,0.0,0.0,0.0,0.0,0.0,0.0,0.0,0.0,0.0,0.0,0.0,0.0,0.0,0.0,0.0,0.0,0.0,0.0,0.0,0.0,0.0,0.0,0.0,0.0,0.0,0.0,0.0,0.0,0.0,0.0,0.0,0.0,0.0,0.0,0.0,0.0,0.0,0.0,0.0,0.0,0.3932,0.4219,0.5069,0.6453,0.6929,0.5419,0.0,0.0789,0.0,0.0,0.0,0.0,0.0,0.3211,0.4172,0.4557,0.6485,0.7963,0.8098,0.8385,0.9251,1.1281,1.181,1.2475,1.4087,1.5087,1.4845,1.4845,1.5181,1.5181,1.5134,1.4899,1.5087,1.5181,1.5181,1.4228,1.1668,0.9157,0.6645,0.4088,0.0,0.0,0.0,0.0,0.0,0.0,0.0,0.0,0.0,0.0,0.0,0.0,0.0,0.0,0.0,0.0,0.0,0.0,0.0,0.0,0.0,0.0,0.0,0.0,0.0,0.0,0.0,0.0,0.0,0.0,0.0,0.0,0.0,0.0,0.0,0.0,0.0,0.0,0.0,0.0,0.0,0.0,0.0,0.0,0.0,0.0,0.0,0.0,0.0,0.0,0.0,0.0,0.0,0.0,0.0,0.0,0.0,0.0,0.0,0.0,0.0,0.0,0.0,0.0,0.0,0.0,0.0,0.0,0.0,0.0,0.1939,0.2962,0.3413,0.4714,0.5877,0.6765,0.6902,0.7121,0.742,0.7615,0.7043,0.6232,0.5941,0.5884,0.5468,0.5528,0.5441,0.5585,0.616,0.6787,0.7261,0.9015,1.0583,1.0725,1.2045,1.3758,1.4134,1.4234,1.4516,1.5181,1.5181,1.5181,1.5181,1.5181,1.5181,1.5181,1.5181,1.5181,1.5181,1.5181,1.404,1.1527,0.9062,0.6601,0.409,0.1775,0.0,0.0,0.0,0.0,0.0,0.0,0.0,0.0,0.0,0.0,0.0,0.0,0.0,0.0,0.0,0.0,0.0,0.0,0.0,0.0,0.0,0.0,0.0,0.0,0.0,0.0,0.0,0.0,0.0,0.0,0.0,0.0,0.0,0.0,0.0,0.0,0.0,0.0,0.0,0.0,0.0,0.0,0.0,0.0,0.0,0.0,0.0,0.0,0.0,0.0,0.0,0.0,0.0,0.0,0.0,0.0,0.0,0.0,0.0,0.0,0.0,0.0,0.0,0.0,0.0,0.1639,0.1783,0.0,0.0,0.48,0.5587,0.5941,0.6782,0.8426,0.9556,1.0456,1.1144,1.1281,1.1286,1.1239,1.1144,1.105,0.9865,0.7974,0.7643,0.7643,0.769,0.892,0.9299,0.9964,1.1621,1.3187,1.314,1.4516,1.4946,1.5181,1.5181,1.5181,1.5181,1.5181,1.5181,1.5181,1.5181,1.5181,1.5181,1.5181,1.5181,1.5181,1.5181,1.361,1.0673,0.8353,0.5575,0.316,0.193,0.0,0.0,0.0,0.0,0.0,0.0,0.0,0.0,0.0,0.0,0.0,0.0,0.0,0.0,0.0,0.0,0.0,0.0,0.0,0.0,0.0,0.0,0.0,0.0,0.0,0.0,0.0,0.0,0.0,0.0,0.0,0.0,0.0,0.0,0.0,0.0,0.0,0.0,0.0,0.1049,0.0,0.0,0.1144,0.0,0.0,0.0,0.0,0.0,0.0,0.0,0.0,0.0,0.0,0.0,0.0,0.0,0.0,0.0,0.0,0.0,0.0,0.0,0.0,0.0,0.2702,0.4123,0.4461,0.5091,0.6642,0.7643,0.816,0.8436,0.8861,1.0375,1.1893,1.3416,1.4416,1.4369,1.4516,1.4845,1.5181,1.5181,1.2852,1.0149,0.8731,0.8779,0.9015,1.105,1.1815,1.2239,1.3711,1.4946,1.5181,1.5181,1.5181,1.5181,1.5181,1.5181,1.5181,1.5181,1.5181,1.5181,1.5181,1.5181,1.5181,1.5181,1.5181,1.5181,1.5134,1.304,0.987,0.8952,0.7323,0.4773,0.3062,0.21,0.1524,0.2725,0.0,0.0,0.0,0.0,0.0,0.0,0.0,0.0,0.0,0.0,0.0,0.0,0.0,0.0,0.0,0.0,0.0,0.0,0.0,0.0,0.0,0.0,0.0,0.0,0.0,0.0,0.0,0.0,0.0,0.0,0.0,0.0,0.0,0.2238,0.3187,0.3566,0.5178,0.6269,0.6127,0.6269,0.5937,0.6032,0.6269,0.6221,0.5652,0.5463,0.57,0.5747,0.57,0.5652,0.551,0.5368,0.5732,0.5067,0.2837,0.0,0.0,0.1976,0.3049,0.3581,0.4921,0.638,0.67,0.7008,0.7336,0.868,0.9917,1.072,1.1102,1.2334,1.3328,1.4181,1.4899,1.514,1.5194,1.5187,1.5181,1.5181,1.5181,1.4664,1.3676,1.3434,1.3381,1.3422,1.3711,1.4087,1.4328,1.4751,1.5181,1.5181,1.5181,1.5181,1.5181,1.5181,1.5181,1.5187,1.5187,1.5187,1.5181,1.5201,1.5187,1.5187,1.5181,1.5187,1.5194,1.4959,1.4219,1.1389,1.063,0.9588,0.6854,0.4665,0.3717,0.2695,0.2463,0.2221,0.0,0.0,0.0,0.0,0.0,0.0,0.0,0.0,0.0,0.0,0.0,0.0,0.0,0.0,0.0,0.0,0.0,0.0,0.0,0.0,0.0,0.0,0.0,0.0,0.0,0.0,0.0,0.2723,0.39,0.3947,0.3947,0.4137,0.5225,0.5747,0.5937,0.7071,0.7592,0.7592,0.7592,0.7592,0.7592,0.7592,0.7592,0.7734,0.7592,0.7592,0.7592,0.7592,0.7592,0.7781,0.7734,0.7592,0.6977,0.4988,0.3852,0.4041,0.5107,0.5766,0.5968,0.7131,0.8174,0.929,0.9582,1.0295,1.1338,1.2616,1.3281,1.3281,1.4751,1.5087,1.5181,1.5194,1.5221,1.5296,1.5303,1.5343,1.5391,1.5343,1.5309,1.5303,1.5289,1.5262,1.5208,1.5194,1.5187,1.5181,1.5181,1.5181,1.5181,1.5181,1.5181,1.5181,1.5181,1.5194,1.5208,1.5276,1.5303,1.5303,1.5296,1.5303,1.5289,1.5242,1.5228,1.5269,1.5289,1.4463,1.3293,1.2122,1.0521,0.8306,0.6555,0.553,0.4309,0.2908,0.1482,0.0153,0.0,0.0,0.0,0.0,0.0,0.0,0.0,0.0,0.0,0.0,0.0,0.0,0.0,0.0,0.0,0.0,0.0,0.0,0.0,0.0,0.0,0.0,0.0,0.0,0.0,0.0,0.5758,0.7595,0.766,0.7657,0.769,0.8229,0.8415,0.8451,0.9087,0.9461,0.9109,0.9319,0.9414,0.9208,0.9299,0.9299,0.9109,0.9346,0.9535,0.9629,0.9629,0.9346,0.9204,0.9109,0.9582,1.0007,0.944,0.8542,0.7217,0.7967,0.8349,0.8727,0.8731,0.996,1.181,1.2145,1.3664,1.4469,1.5181,1.5181,1.5181,1.5181,1.5201,1.5228,1.5228,1.5303,1.5438,1.5459,1.5506,1.5499,1.5472,1.5452,1.5459,1.5459,1.5398,1.5296,1.5276,1.5262,1.5235,1.5235,1.5235,1.5187,1.5181,1.5181,1.5201,1.5221,1.5255,1.5289,1.5371,1.5459,1.5459,1.5452,1.5432,1.5384,1.5309,1.5269,1.535,1.5404,1.5459,1.4364,1.3212,1.2207,1.0747,0.7818,0.669,0.5058,0.3649,0.134,0.0,0.0,0.0,0.0,0.0,0.0,0.0,0.0,0.0,0.0,0.0,0.0,0.0,0.0,0.0,0.0,0.0,0.0,0.0,0.0,0.0,0.0,0.0,0.0,0.0,0.0,0.0,0.7319,0.7646,0.781,0.7704,0.8178,1.0188,1.1087,1.1217,1.3162,1.439,1.367,1.4165,1.3969,1.3836,1.3852,1.404,1.3993,1.361,1.3375,1.3281,1.3469,1.3469,1.3993,1.4322,1.3422,1.3234,1.361,1.1569,0.9724,1.0295,1.0913,1.1244,1.2663,1.4322,1.404,1.4134,1.4899,1.5181,1.5187,1.5194,1.5194,1.5194,1.5262,1.5337,1.5377,1.5445,1.5581,1.5615,1.5593,1.5607,1.5587,1.5566,1.5566,1.5566,1.556,1.5539,1.5526,1.5479,1.5418,1.5384,1.5343,1.5269,1.5228,1.5194,1.5248,1.5337,1.5384,1.5533,1.556,1.556,1.5615,1.556,1.5499,1.5479,1.5425,1.5404,1.5445,1.554,1.5594,1.5627,1.4536,1.4894,1.4453,1.0863,0.7709,0.6016,0.0,0.0,0.0,0.0,0.0,0.0,0.0,0.0,0.0,0.0,0.0,0.0,0.0,0.0,0.0,0.0,0.0,0.0,0.0,0.0,0.0,0.0,0.0,0.0,0.0,0.0,0.0,0.0,0.0,1.2064,1.2,1.1989,1.1995,1.2142,1.3234,1.3667,1.3934,1.4847,1.5323,1.5255,1.5438,1.5459,1.5309,1.5228,1.5134,1.5181,1.5181,1.5181,1.5187,1.5187,1.5187,1.5087,1.5181,1.5181,1.5194,1.5087,1.4275,1.2616,1.2616,1.3569,1.3664,1.4516,1.4993,1.5181,1.5181,1.5181,1.5208,1.5255,1.5309,1.5309,1.5316,1.5343,1.5411,1.5418,1.5547,1.5703,1.5757,1.5811,1.5839,1.5825,1.5764,1.5764,1.5771,1.5791,1.59,1.5981,1.5817,1.5553,1.5512,1.5499,1.5466,1.5432,1.5452,1.5452,1.5451,1.5512,1.5573,1.5716,1.5757,1.5764,1.5757,1.573,1.5669,1.5588,1.5601,1.5622,1.5662,1.5744,1.5845,1.594,1.6029,1.5425,1.1802,0.854,0.6916,0.0,0.0,0.0,0.0,0.0,0.0,0.0,0.0,0.0,0.0,0.0,0.0,0.0,0.0,0.0,0.0,0.0,0.0,0.0,0.0,0.0,0.0,0.0,0.0,0.0,0.0,0.0,0.0,0.0,1.5594,1.5506,1.5398,1.5398,1.5459,1.5377,1.535,1.5411,1.552,1.5418,1.5323,1.5432,1.5445,1.5357,1.5235,1.5181,1.5181,1.5181,1.5215,1.5228,1.5248,1.5276,1.5303,1.5289,1.5248,1.5235,1.5194,1.4852,1.4993,1.504,1.4946,1.5181,1.504,1.5181,1.5181,1.5187,1.5201,1.5269,1.535,1.5391,1.5398,1.5404,1.5432,1.5472,1.5527,1.5642,1.5915,1.6017,1.6049,1.6076,1.6096,1.6062,1.6056,1.6069,1.6103,1.6191,1.6273,1.6205,1.5967,1.5839,1.5681,1.5614,1.5607,1.558,1.575,1.575,1.5742,1.5803,1.5981,1.5995,1.599,1.594,1.5956,1.5859,1.5791,1.5867,1.5894,1.5928,1.5906,1.5961,1.6049,1.6123,1.4818,1.1677,0.9327,0.777,0.0,0.0,0.0,0.0,0.0,0.0,0.0,0.0,0.0,0.0,0.0,0.0,0.0,0.0,0.0,0.0,0.0,0.0,0.0,0.0,0.0,0.0,0.0,0.0,0.0,0.0,0.0,0.0,0.0,1.5716,1.5874,1.5854,1.5723,1.5628,1.5757,1.5723,1.5587,1.575,1.5635,1.5391,1.5289,1.5248,1.5215,1.5215,1.5181,1.5181,1.5181,1.5262,1.535,1.5404,1.5411,1.5479,1.5445,1.5384,1.535,1.5276,1.5215,1.5181,1.5181,1.5181,1.5181,1.5181,1.5181,1.5181,1.5187,1.5276,1.5357,1.5438,1.5452,1.5452,1.5466,1.5506,1.5628,1.575,1.5949,1.6056,1.6164,1.6232,1.6266,1.6334,1.6374,1.6354,1.6361,1.6388,1.6449,1.6483,1.6442,1.6341,1.6144,1.5927,1.5695,1.5661,1.5803,1.6022,1.6049,1.611,1.6205,1.6279,1.6266,1.6198,1.6151,1.6096,1.6056,1.6015,1.6015,1.6092,1.6076,1.6096,1.611,1.6171,1.6259,1.5468,1.262,1.0871,0.9374,0.6443,0.0,0.0,0.0,0.0,0.0,0.0,0.0,0.0,0.0,0.0,0.0,0.0,0.0,0.0,0.0,0.0,0.0,0.0,0.0,0.0,0.0,0.0,0.0,0.0,0.0,0.0,0.0,0.0,1.594,1.6044,1.6044,1.5956,1.5764,1.5737,1.5744,1.5757,1.5737,1.5669,1.5533,1.5309,1.5235,1.5276,1.5215,1.5181,1.5194,1.5296,1.5364,1.5432,1.5458,1.5533,1.556,1.5588,1.5506,1.5425,1.5343,1.5255,1.5187,1.5215,1.5187,1.5181,1.5208,1.5181,1.5181,1.5215,1.5343,1.5499,1.5512,1.5581,1.5676,1.5731,1.571,1.5771,1.5847,1.5983,1.6069,1.6225,1.6286,1.6354,1.6463,1.6524,1.6551,1.6551,1.6585,1.6601,1.6615,1.6621,1.6639,1.6476,1.63,1.6246,1.6198,1.6225,1.6341,1.6347,1.6368,1.6391,1.6497,1.6463,1.6408,1.6327,1.6266,1.6252,1.6252,1.6246,1.6239,1.6273,1.6313,1.6341,1.6374,1.6429,1.5309,1.3934,1.242,1.0865,0.7703,0.5118,0.4257,0.339,0.2779,0.1755,0.1321,0.0264,0.0,0.0,0.0,0.0,0.0,0.0,0.0,0.0,0.0,0.0,0.0,0.0,0.0,0.0,0.0,0.0,0.0,0.0,0.0,0.0,0.0,1.6151,1.6157,1.6198,1.6096,1.5969,1.5811,1.5825,1.5942,1.5825,1.5737,1.5683,1.5398,1.5303,1.5364,1.5371,1.5289,1.5323,1.5404,1.5493,1.5581,1.5655,1.5723,1.5744,1.571,1.5628,1.5513,1.5466,1.5411,1.5276,1.5303,1.5343,1.535,1.5309,1.5296,1.5201,1.5296,1.5445,1.5642,1.5716,1.5737,1.5888,1.5888,1.5888,1.5908,1.5949,1.6024,1.6117,1.6266,1.6381,1.6456,1.6551,1.6653,1.6666,1.6673,1.672,1.6736,1.6804,1.6817,1.6777,1.6653,1.6537,1.6449,1.6463,1.6524,1.6625,1.6625,1.654,1.6666,1.6673,1.6632,1.6592,1.6524,1.6476,1.6469,1.6571,1.6578,1.649,1.6432,1.6479,1.652,1.6547,1.6619,1.6326,1.5148,1.3085,1.1474,0.8893,0.7162,0.7079,0.6138,0.5187,0.398,0.2786,0.1498,0.0,0.0,0.0,0.0,0.0,0.0,0.0,0.0,0.0,0.0,0.0,0.0,0.0,0.0,0.0,0.0,0.0,0.0,0.0,0.0,0.0,1.6293,1.632,1.6435,1.632,1.6069,1.6126,1.6069,1.6092,1.6008,1.5913,1.575,1.5486,1.5377,1.5425,1.5479,1.5459,1.5432,1.5554,1.5669,1.5744,1.5818,1.5927,1.5947,1.59,1.5778,1.5621,1.5573,1.5554,1.5404,1.5493,1.5512,1.5526,1.5479,1.5459,1.5242,1.5479,1.5696,1.5867,1.5881,1.5894,1.5928,1.5942,1.5942,1.6003,1.6071,1.6103,1.6205,1.6395,1.651,1.6506,1.6768,1.6876,1.689,1.6897,1.6931,1.6965,1.7073,1.7134,1.7141,1.6761,1.6646,1.6632,1.668,1.6741,1.6883,1.6883,1.679,1.6951,1.6965,1.6836,1.6775,1.6761,1.6748,1.6741,1.6842,1.6836,1.6741,1.673,1.6797,1.6872,1.6804,1.6777,1.6978,1.6319,1.3932,1.1879,0.9728,0.9172,0.9886,0.8982,0.8006,0.5857,0.4323,0.2045,0.0,0.0,0.0,0.0,0.0,0.0,0.0,0.0,0.0,0.0,0.0,0.0,0.0,0.0,0.0,0.0,0.0,0.0,0.0,0.0,0.0,1.6246,1.6164,1.6212,1.6171,1.6096,1.6191,1.6178,1.6056,1.5879,1.5703,1.5547,1.5337,1.533,1.5404,1.5472,1.5451,1.5479,1.5683,1.5811,1.5744,1.59,1.6008,1.6049,1.6064,1.5913,1.5818,1.5771,1.571,1.5512,1.56,1.5593,1.5587,1.5627,1.5588,1.5527,1.558,1.5661,1.5874,1.5908,1.5942,1.6037,1.6001,1.6035,1.6123,1.6185,1.6252,1.6334,1.6544,1.6588,1.6621,1.689,1.6971,1.6985,1.6985,1.7026,1.706,1.7127,1.71,1.7182,1.7087,1.7073,1.7005,1.6958,1.7032,1.7222,1.7229,1.7183,1.7236,1.7236,1.7154,1.7195,1.7195,1.7168,1.706,1.7066,1.7005,1.6971,1.7127,1.7243,1.7324,1.7311,1.7392,1.7514,1.7555,1.5626,1.5072,1.3531,1.3745,1.4415,1.2523,1.1022,0.8082,0.5762,0.3082,0.0,0.0,0.0,0.0,0.0,0.0,0.0,0.0,0.0,0.0,0.0,0.0,0.0,0.0,0.0,0.0,0.0,0.0,0.0,0.0,0.0,1.6293,1.6171,1.6218,1.6205,1.6171,1.6212,1.6171,1.6035,1.5729,1.5553,1.5547,1.5418,1.5398,1.5506,1.5594,1.5594,1.5601,1.5805,1.5913,1.5818,1.5974,1.6062,1.6126,1.6119,1.6017,1.5956,1.5949,1.5859,1.5723,1.5771,1.5805,1.5818,1.5784,1.5811,1.5784,1.5784,1.5798,1.5956,1.601,1.6037,1.6098,1.6133,1.6117,1.6191,1.6266,1.6341,1.6469,1.656,1.6702,1.6743,1.6876,1.6978,1.6992,1.7039,1.7119,1.708,1.7168,1.7195,1.7351,1.7419,1.7338,1.7291,1.7311,1.7351,1.7392,1.7352,1.7379,1.7399,1.7406,1.7412,1.7473,1.7433,1.7406,1.7344,1.727,1.7209,1.7249,1.7405,1.7507,1.7602,1.7711,1.784,1.7975,1.8043,1.7468,1.7577,1.7684,1.7948,1.7963,1.5833,1.2917,0.9503,0.688,0.4392,0.0,0.0,0.0,0.0,0.0,0.0,0.0,0.0,0.0,0.0,0.0,0.0,0.0,0.0,0.0,0.0,0.0,0.0,0.0,0.0,0.0,1.6435,1.6341,1.6449,1.6408,1.6279,1.6151,1.6139,1.6056,1.5778,1.5716,1.586,1.56,1.5546,1.5627,1.5906,1.5927,1.5901,1.5988,1.5988,1.6015,1.6035,1.6049,1.6049,1.6049,1.5981,1.6003,1.601,1.6024,1.5935,1.594,1.6015,1.6042,1.6001,1.6001,1.5967,1.5934,1.5934,1.6008,1.6085,1.6098,1.6126,1.6133,1.6137,1.6212,1.63,1.6388,1.6517,1.6608,1.6702,1.6829,1.6917,1.6971,1.7039,1.7127,1.7087,1.7121,1.729,1.7473,1.7507,1.7554,1.7643,1.7595,1.7521,1.7555,1.7575,1.7575,1.7589,1.7595,1.7589,1.7554,1.7568,1.7595,1.7615,1.7527,1.75,1.7494,1.746,1.7554,1.7711,1.7806,1.7914,1.8043,1.8192,1.8301,1.8362,1.8328,1.824,1.8131,1.8063,1.7887,1.4547,0.9826,0.7454,0.5597,0.0,0.0,0.0,0.0,0.0,0.0,0.0,0.0,0.0,0.0,0.0,0.0,0.0,0.0,0.0,0.0,0.0,0.0,0.0,0.0,0.0,1.6435,1.6307,1.6239,1.6185,1.6144,1.6096,1.6133,1.6098,1.5872,1.5771,1.5696,1.5607,1.558,1.5614,1.5832,1.5922,1.5976,1.601,1.5893,1.592,1.6008,1.592,1.592,1.5974,1.5996,1.6003,1.6037,1.6105,1.6078,1.6133,1.6133,1.6126,1.6133,1.6133,1.6112,1.6035,1.6056,1.6112,1.6126,1.6139,1.6139,1.6139,1.6185,1.6327,1.6395,1.651,1.6714,1.6815,1.6897,1.6937,1.7053,1.7127,1.7141,1.727,1.7317,1.7344,1.7541,1.7731,1.7684,1.7745,1.7792,1.7785,1.7731,1.7758,1.7772,1.7751,1.7731,1.7724,1.7724,1.7745,1.7779,1.7812,1.7799,1.7669,1.7656,1.7636,1.7663,1.7717,1.7819,1.7962,1.807,1.8267,1.8416,1.8518,1.8572,1.8572,1.8504,1.8369,1.8213,1.803,1.5985,1.118,0.8233,0.6468,0.3093,0.0,0.0,0.0,0.0,0.0,0.0,0.0,0.0,0.0,0.0,0.0,0.0,0.0,0.0,0.0,0.0,0.0,0.0,0.0,0.0,1.6402,1.6218,1.6123,1.6133,1.6133,1.6133,1.6133,1.6056,1.5969,1.5771,1.56,1.5587,1.556,1.5581,1.5799,1.5908,1.5922,1.6001,1.6001,1.5974,1.5981,1.5967,1.5947,1.5961,1.6008,1.6008,1.6064,1.6126,1.6133,1.6133,1.6133,1.6133,1.6133,1.6133,1.6126,1.6119,1.6126,1.6126,1.6139,1.6117,1.613,1.6123,1.6273,1.6463,1.6517,1.668,1.687,1.6937,1.7005,1.7099,1.7168,1.7222,1.7256,1.7378,1.7528,1.7555,1.7643,1.7751,1.7751,1.7812,1.7902,1.7915,1.7915,1.7908,1.7902,1.7881,1.7888,1.7888,1.7908,1.7936,1.799,1.7968,1.7907,1.7791,1.7799,1.7751,1.7779,1.7812,1.7928,1.8077,1.826,1.847,1.862,1.8715,1.8807,1.8687,1.8599,1.8491,1.8328,1.8145,1.6114,1.2392,0.9648,0.7336,0.3745,0.0,0.0,0.0,0.0,0.0,0.0,0.0,0.0,0.0,0.0,0.0,0.0,0.0,0.0,0.0,0.0,0.0,0.0,0.0,0.0,1.6347,1.611,1.6133,1.6133,1.6133,1.6133,1.6133,1.6112,1.599,1.5784,1.5614,1.5627,1.5573,1.5581,1.582,1.5915,1.5942,1.6024,1.5988,1.6042,1.6058,1.5967,1.5961,1.6062,1.6078,1.6056,1.6076,1.6133,1.6133,1.6133,1.6133,1.6133,1.6133,1.6133,1.6133,1.6133,1.6133,1.6133,1.609,1.6123,1.6191,1.6198,1.6225,1.6469,1.6558,1.6639,1.6781,1.691,1.7046,1.7141,1.7229,1.729,1.7426,1.75,1.765,1.7711,1.7745,1.7772,1.7812,1.7908,1.7908,1.7915,1.7915,1.7915,1.7915,1.7915,1.7915,1.7915,1.7922,1.7846,1.788,1.7907,1.7874,1.7833,1.7792,1.7806,1.7853,1.7894,1.7975,1.8124,1.8294,1.8504,1.8654,1.8728,1.882,1.8786,1.8687,1.8586,1.8389,1.8213,1.6261,1.3418,1.0445,0.7692,0.4663,0.0,0.0,0.0,0.0,0.0,0.0,0.0,0.0,0.0,0.0,0.0,0.0,0.0,0.0,0.0,0.0,0.0,0.0,0.0,0.0,1.632,1.6246,1.613,1.6133,1.6133,1.6133,1.6133,1.6083,1.6098,1.5879,1.5668,1.5832,1.5811,1.5587,1.5845,1.5983,1.5935,1.5969,1.5845,1.5866,1.5893,1.5927,1.5845,1.6008,1.6058,1.603,1.6051,1.6133,1.6133,1.6133,1.6133,1.6133,1.6133,1.6133,1.6133,1.6133,1.6133,1.616,1.6117,1.6137,1.6178,1.6273,1.6347,1.6517,1.6567,1.6754,1.6876,1.6951,1.7066,1.7168,1.7311,1.7494,1.7738,1.7745,1.784,1.7895,1.7819,1.7881,1.7895,1.7922,1.7929,1.7929,1.7929,1.7922,1.7915,1.7915,1.7915,1.7915,1.7908,1.7826,1.7812,1.784,1.7853,1.7819,1.7799,1.786,1.7921,1.7962,1.8016,1.8145,1.8308,1.8457,1.8606,1.8708,1.8807,1.8813,1.8807,1.8647,1.8396,1.8087,1.6902,1.4176,1.0781,0.7843,0.5171,0.0,0.0,0.0,0.0,0.0,0.0,0.0,0.0,0.0,0.0,0.0,0.0,0.0,0.0,0.0,0.0,0.0,0.0,0.0,0.0,1.6273,1.6198,1.6117,1.6133,1.6133,1.6133,1.6133,1.6133,1.6133,1.5954,1.5757,1.5825,1.5742,1.56,1.5825,1.5927,1.5915,1.5983,1.5996,1.5906,1.5866,1.5913,1.5947,1.5995,1.6015,1.6001,1.6085,1.6133,1.6133,1.6133,1.6133,1.6133,1.6133,1.6133,1.6133,1.6139,1.6123,1.6185,1.6178,1.6212,1.6239,1.6327,1.649,1.6646,1.6761,1.6863,1.6924,1.6992,1.7114,1.7297,1.75,1.765,1.7868,1.7888,1.7902,1.7915,1.7908,1.7915,1.7915,1.7922,1.7949,1.7963,1.7929,1.7922,1.7955,1.7948,1.7922,1.7915,1.7915,1.784,1.784,1.7853,1.7908,1.7833,1.7888,1.7922,1.7942,1.7963,1.799,1.7989,1.8124,1.824,1.8396,1.8559,1.8599,1.864,1.8654,1.8647,1.8416,1.8097,1.6832,1.4998,1.1713,0.9222,0.7139,0.0,0.0,0.0,0.0,0.0,0.0,0.0,0.0,0.0,0.0,0.0,0.0,0.0,0.0,0.0,0.0,0.0,0.157,0.261,0.2497,1.6205,1.6139,1.6133,1.6133,1.6133,1.6133,1.6133,1.6133,1.6126,1.6064,1.5928,1.5744,1.5676,1.5621,1.5627,1.5757,1.5874,1.5872,1.5947,1.6051,1.6058,1.5995,1.6015,1.6119,1.6062,1.6062,1.6126,1.6133,1.6133,1.6133,1.6133,1.6133,1.6133,1.6133,1.6133,1.6117,1.6178,1.6266,1.632,1.6415,1.6435,1.6442,1.6625,1.6768,1.6863,1.6863,1.6937,1.7046,1.7168,1.7399,1.765,1.7834,1.7895,1.7915,1.7915,1.7915,1.7915,1.7915,1.7915,1.7922,1.799,1.7968,1.7963,1.7963,1.7996,1.7968,1.7942,1.7915,1.7915,1.7902,1.7902,1.7908,1.7908,1.7895,1.7895,1.7915,1.7915,1.7922,1.7936,1.7901,1.7996,1.8104,1.8247,1.8409,1.8464,1.8447,1.844,1.8498,1.8382,1.8009,1.7209,1.5462,1.2921,1.0728,0.8705,0.0,0.0,0.0,0.0,0.0,0.0,0.0,0.0,0.0,0.0,0.0,0.0,0.0,0.0,0.0,0.0,0.0,0.1478,0.258,0.3633,1.611,1.6133,1.6133,1.6133,1.6133,1.6133,1.6133,1.6133,1.6133,1.6112,1.6051,1.5935,1.5811,1.586,1.5867,1.5901,1.5866,1.5866,1.5839,1.5922,1.6003,1.6008,1.6049,1.6133,1.6133,1.6133,1.6133,1.6133,1.6133,1.6133,1.6133,1.6133,1.609,1.6096,1.611,1.6178,1.6293,1.6374,1.6463,1.65,1.6608,1.6628,1.6648,1.675,1.689,1.6931,1.7005,1.7093,1.7243,1.7446,1.7684,1.7874,1.7915,1.7915,1.7915,1.7915,1.7915,1.7915,1.7915,1.7915,1.7983,1.7955,1.7949,1.7942,1.7928,1.7976,1.7922,1.7915,1.7902,1.7799,1.7799,1.7846,1.7853,1.7806,1.7785,1.7888,1.7915,1.7936,1.7956,1.7955,1.8036,1.8152,1.8274,1.8375,1.8396,1.8396,1.8328,1.8328,1.8285,1.7962,1.7555,1.5783,1.3863,1.1456,0.897,0.427,0.0,0.0,0.0,0.0,0.0,0.0,0.0,0.0,0.0,0.0,0.0,0.0,0.0,0.0,0.0,0.0,0.0,0.2598,0.3705]},{"header":{"parameterUnit":"m.s-1","parameterCategory":1,"la1":31.0,"la2":29.5877,"lo1":-88.7671,"lo2":-86.6584,"dy":0.0162,"dx":0.0185,"nx":115,"ny":88,"refTime":"2024-08-23T12:00:00:Z","depth":0,"parameterNumber":3,"parameterNumberName":"V-component_of_WINDS"},"data":[0.0,0.0,0.0,0.0,0.0,0.0,0.0,0.0,0.0,0.0,0.0,0.0,0.0,0.0,0.0,0.0,0.0,0.0,0.0,0.0,0.0,0.0,0.0,0.0,0.0,0.0,0.0,0.0,0.0,0.0,0.0,0.0,0.0,0.0,0.0,0.0,0.0,0.0,0.0,0.0,0.0,0.0,0.0,0.0,0.0,0.0,0.0,0.0,0.0,0.0,0.0,0.0,0.0,0.0,0.0,0.0,0.0,0.0,0.0,0.0,0.0,0.0,0.0,0.0,0.0,0.0,0.0,0.0,0.0,0.0,0.0,0.0,0.0,0.0,0.0,0.0,0.0,0.0,0.0,0.0,0.0,0.0,0.0,0.0,0.0,0.0,0.0,0.0,0.0,0.0,0.0,0.0,0.0,0.0,0.0,0.0,0.0,0.0,0.0,0.0,0.0,0.0,0.0,0.0,0.0,0.0,0.0,0.0,0.0,0.0,0.0,0.0,0.0,0.0,0.0,0.0,0.0,0.0,0.0,0.0,0.0,0.0,0.0,0.0,0.0,0.0,0.0,0.0,0.0,0.0,0.0,0.0,0.0,0.0,0.0,0.0,0.0,0.0,0.0,0.0,0.0,0.0,0.0,0.0,0.0,0.0,0.0,0.0,0.0,0.0,0.0,0.0,0.0,0.0,0.0,0.0,0.0,0.0,0.0,0.0,0.0,0.0,0.0,0.0,0.0,0.0,0.0,0.0,0.0,0.0,0.0,0.0,0.0,0.0,0.0,0.0,0.0,0.0,0.0,0.0,0.0,0.0,0.0,0.0,0.0,0.0,0.0,0.0,0.0,0.0,0.0,0.0,0.0,0.0,0.0,0.0,0.0,0.0,0.0,0.0,0.0,0.0,0.0,0.0,0.0,0.0,0.0,0.0,0.0,0.0,0.0,0.0,0.0,0.0,0.0,0.0,0.0,0.0,0.0,0.0,0.0,0.0,0.0,0.0,0.0,0.0,0.0,0.0,0.0,0.0,0.0,0.0,0.0,0.0,0.0,0.0,0.0,0.0,0.0,0.0,0.0,0.0,0.0,0.0,0.0,0.0,0.0,0.0,0.0,0.0,0.0,0.0,0.0,0.0,0.0,0.0,0.0,0.0,0.0,0.0,0.0,0.0,0.0,0.0,0.0,0.0,0.0,0.0,0.0,0.0,0.0,0.0,0.0,0.0,0.0,0.0,0.0,0.0,0.0,0.0,0.0,0.0,0.0,0.0,0.0,0.0,0.0,0.0,0.0,0.0,0.0,0.0,0.0,0.0,0.0,0.0,0.0,0.0,0.0,0.0,0.0,0.0,0.0,0.0,0.0,0.0,0.0,0.0,0.0,0.0,0.0,0.0,0.0,0.0,0.0,0.0,0.0,0.0,0.0,0.0,0.0,0.0,0.0,0.0,0.0,0.0,0.0,0.0,0.0,0.0,0.0,0.0,0.0,0.0,0.0,0.0,0.0,0.0,0.0,0.0,0.0,0.0,0.0,0.0,0.0,0.0,0.0,0.0,0.0,0.0,0.0,0.0,0.0,0.0,0.0,0.0,0.0,0.0,0.0,0.0,0.0,0.0,0.0,0.0,0.0,0.0,0.0,0.0,0.0,0.0,0.0,0.0,0.0,0.0,0.0,0.0,0.0,0.0,0.0,0.0,0.0,0.0,0.0,0.0,0.0,0.0,0.0,0.0,0.0,0.0,0.0,0.0,0.0,0.0,0.0,0.0,0.0,0.0,0.0,0.0,0.0,0.0,0.0,0.0,0.0,0.0,0.0,0.0,0.0,0.0,0.0,0.0,0.0,0.0,0.0,0.0,0.0,0.0,0.0,0.0,0.0,0.0,0.0,0.0,0.0,0.0,0.0,0.0,0.0,0.0,0.0,0.0,0.0,0.0,0.0,0.0,0.0,0.0,0.0,0.0,0.0,0.0,0.0,0.0,0.0,0.0,0.0,0.0,0.0,0.0,0.0,0.0,0.0,0.0,0.0,0.0,0.0,0.0,0.0,0.0,0.0,0.0,0.0,0.0,0.0,0.0,0.0,0.0,0.0,0.0,0.0,0.0,0.0,0.0,0.0,0.0,0.0,0.0,0.0,0.0,0.0,0.0,0.0,0.0,0.0,0.0,0.0,0.0,0.0,0.0,0.0,0.0,0.0,0.0,0.0,0.0,0.0,0.0,0.0,0.0,0.0,0.0,0.0,0.0,0.0,0.0,0.0,0.0,0.0,0.0,0.0,0.0,0.0,0.0,0.0,0.0,0.0,0.0,0.0,0.0,0.0,0.0,0.0,0.0,0.0,0.0,0.0,0.0,0.0,0.0,0.0,0.0,0.0,0.0,0.0,0.0,0.0,0.0,0.0,0.0,0.0,0.0,0.0,0.0,0.0,0.0,0.0,0.0,0.0,0.0,0.0,0.0,0.0,0.0,0.0,0.0,0.0,0.0,0.0,0.0,0.0,0.0,0.0,0.0,0.0,0.0,0.0,0.0,0.0,0.0,0.0,0.0,0.0,0.0,0.0,0.0,0.0,0.0,0.0,0.0,0.0,0.0,0.0,0.0,0.0,0.0,0.0,0.0,0.0,0.0,0.0,0.0,0.0,0.0,0.0,0.0,0.0,0.0,0.0,0.0,0.0,0.0,0.0,0.0,0.0,0.0,0.0,0.0,0.0,0.0,0.0,0.0,0.0,0.0,0.0,0.0,0.0,0.0,0.0,0.0,0.0,0.0,0.0,0.0,0.0,0.0,0.0,0.0,0.0,0.0,0.0,0.0,0.0,0.0,0.0,0.0,0.0,0.0,0.0,0.0,0.0,0.0,0.0,0.0,0.0,0.0,0.0,0.0,0.0,0.0,0.0,0.0,0.0,0.0,0.0,0.0,0.0,0.0,0.0,0.0,0.0,0.0,0.0,0.0,0.0,0.0,0.0,0.0,0.0,0.0,0.0,0.0,0.0,0.0,0.0,0.0,0.0,0.0,0.0,0.0,0.0,0.0,0.0,0.0,0.0,0.0,0.0,0.0,0.0,0.0,0.0,0.0,0.0,0.0,0.0,0.0,0.0,0.0,0.0,0.0,0.0,0.0,0.0,0.0,0.0,0.0,0.0,0.0,0.0,0.0,0.0,0.0,0.0,0.0,0.0,0.0,0.0,0.0,0.0,0.0,0.0,0.0,0.0,0.0,0.0,0.0,0.0,0.0,0.0,0.0,0.0,0.0,0.0,0.0,0.0,0.0,0.0,0.0,0.0,0.0,0.0,0.0,0.0,0.0,0.0,0.0,0.0,0.0,0.0,0.0,0.0,0.0,0.0,0.0,0.0,0.0,0.0,0.0,0.0,0.0,0.0,0.0,0.0,0.0,0.0,0.0,0.0,0.0,0.0,0.0,0.0,0.0,0.0,0.0,0.0,0.0,0.0,0.0,0.0,0.0,0.0,0.0,0.0,0.0,0.0,0.0,0.0,0.0,0.0,0.0,0.0,0.0,0.0,0.0,0.0,0.0,0.0,0.0,0.0,0.0,0.0,0.0,0.0,0.0,0.0,0.0,0.0,0.0,0.0,0.0,0.0,0.0,0.0,0.0,0.0,0.0,0.0,0.0,0.0,0.0,0.0,0.0,0.0,0.0,0.0,0.0,0.0,0.0,0.0,0.0,0.0,0.0,0.0,0.0,0.0,0.0,0.0,0.0,0.0,0.0,0.0,0.0,0.0,0.0,0.0,0.0,0.0,0.0,0.0,0.0,0.0,0.0,0.0,0.0,0.0,0.0,0.0,0.0,0.0,0.0,0.0,0.0,0.0,0.0,0.0,0.0,0.0,0.0,0.0,0.0,0.0,0.0,0.0,0.0,0.0,0.0,0.0,0.0,0.0,0.0,0.0,0.0,0.0,0.0,0.0,0.0,0.0,0.0,0.0,0.0,0.0,0.0,0.0,0.0,0.0,0.0,0.0,0.0,0.0,0.0,0.0,0.0,0.0,0.0,0.0,0.0,0.0,0.0,0.0,0.0,0.0,0.0,0.0,0.0,0.0,0.0,0.0,0.0,0.0,0.0,0.0,0.0,0.0,0.0,0.0,0.0,0.0,0.0,0.0,0.0,0.0,0.0,0.0,0.0,0.0,0.0,0.0,0.0,0.0,0.0,0.0,0.0,0.0,0.0,0.0,0.0,0.0,0.0,0.0,0.0,0.0,0.0,0.0,0.0,0.0,0.0,0.0,0.0,0.0,0.0,0.0,0.0,0.0,0.0,0.0,0.0,4.6162,0.0,0.0,0.0,0.0,0.0,0.0,0.0,0.0,0.0,0.0,0.0,0.0,0.0,0.0,0.0,0.0,0.0,0.0,0.0,0.0,0.0,0.0,0.0,0.0,0.0,0.0,0.0,0.0,0.0,0.0,0.0,0.0,0.0,0.0,0.0,0.0,0.0,0.0,0.0,0.0,0.0,0.0,0.0,0.0,0.0,0.0,0.0,0.0,0.0,0.0,0.0,0.0,0.0,0.0,0.0,0.0,0.0,0.0,0.0,0.0,0.0,0.0,0.0,0.0,0.0,0.0,0.0,0.0,0.0,0.0,0.0,0.0,0.0,0.0,0.0,0.0,0.0,0.0,0.0,0.0,0.0,0.0,0.0,0.0,0.0,0.0,0.0,0.0,0.0,0.0,0.0,0.0,0.0,0.0,0.0,0.0,0.0,0.0,0.0,0.0,0.0,0.0,0.0,0.0,0.0,0.0,0.0,0.0,0.0,0.0,4.8187,4.8603,4.8504,4.786,4.6765,0.0,0.0,0.0,0.0,0.0,0.0,0.0,0.0,0.0,0.0,0.0,0.0,0.0,0.0,0.0,0.0,0.0,0.0,0.0,0.0,0.0,0.0,0.0,0.0,0.0,0.0,0.0,0.0,0.0,0.0,0.0,0.0,0.0,0.0,0.0,0.0,0.0,0.0,0.0,0.0,0.0,0.0,0.0,0.0,0.0,0.0,0.0,0.0,0.0,0.0,0.0,0.0,0.0,0.0,0.0,0.0,0.0,0.0,0.0,0.0,0.0,0.0,0.0,0.0,0.0,0.0,0.0,0.0,0.0,0.0,0.0,0.0,0.0,0.0,0.0,0.0,0.0,0.0,0.0,0.0,0.0,0.0,0.0,0.0,0.0,0.0,0.0,0.0,0.0,0.0,0.0,0.0,0.0,0.0,0.0,0.0,0.0,0.0,0.0,0.0,0.0,0.0,0.0,0.0,0.0,0.0,0.0,0.0,0.0,0.0,0.0,0.0,4.992,4.9245,4.7469,0.0,0.0,0.0,0.0,0.0,0.0,0.0,0.0,0.0,0.0,0.0,0.0,0.0,0.0,0.0,0.0,0.0,0.0,0.0,0.0,0.0,0.0,0.0,0.0,0.0,0.0,0.0,0.0,0.0,0.0,0.0,0.0,0.0,0.0,0.0,0.0,0.0,0.0,0.0,0.0,0.0,0.0,0.0,0.0,0.0,0.0,0.0,0.0,0.0,0.0,0.0,0.0,0.0,0.0,0.0,0.0,0.0,0.0,0.0,0.0,0.0,0.0,0.0,0.0,0.0,0.0,0.0,0.0,0.0,0.0,0.0,0.0,0.0,0.0,0.0,0.0,0.0,0.0,0.0,0.0,0.0,0.0,0.0,0.0,0.0,0.0,0.0,0.0,0.0,0.0,0.0,0.0,0.0,0.0,0.0,0.0,0.0,0.0,0.0,0.0,0.0,0.0,0.0,0.0,0.0,0.0,0.0,0.0,0.0,0.0,4.9309,5.1617,5.173,0.0,4.8787,0.0,0.0,0.0,0.0,0.0,0.0,0.0,0.0,0.0,0.0,0.0,0.0,0.0,0.0,0.0,0.0,0.0,0.0,0.0,0.0,0.0,0.0,0.0,0.0,0.0,0.0,0.0,0.0,0.0,0.0,0.0,0.0,0.0,0.0,0.0,0.0,0.0,0.0,0.0,0.0,0.0,0.0,0.0,0.0,0.0,0.0,0.0,0.0,0.0,0.0,0.0,0.0,0.0,0.0,0.0,0.0,0.0,0.0,0.0,0.0,0.0,0.0,0.0,0.0,0.0,0.0,0.0,0.0,0.0,0.0,0.0,0.0,0.0,0.0,0.0,0.0,0.0,0.0,0.0,0.0,0.0,0.0,0.0,0.0,0.0,0.0,0.0,0.0,0.0,0.0,0.0,0.0,0.0,0.0,0.0,0.0,0.0,0.0,0.0,0.0,0.0,0.0,0.0,0.0,0.0,0.0,0.0,0.0,0.0,0.0,5.0278,5.2306,5.1611,5.057,0.0,0.0,0.0,0.0,0.0,0.0,0.0,0.0,0.0,0.0,0.0,0.0,0.0,0.0,0.0,0.0,0.0,0.0,0.0,0.0,0.0,0.0,0.0,0.0,0.0,0.0,0.0,0.0,0.0,0.0,0.0,0.0,0.0,0.0,0.0,0.0,0.0,0.0,0.0,0.0,0.0,0.0,0.0,0.0,0.0,0.0,0.0,0.0,0.0,0.0,0.0,0.0,0.0,0.0,0.0,0.0,0.0,0.0,0.0,0.0,0.0,0.0,0.0,0.0,0.0,0.0,0.0,0.0,0.0,0.0,0.0,0.0,0.0,0.0,0.0,0.0,0.0,0.0,0.0,0.0,0.0,0.0,0.0,0.0,0.0,0.0,0.0,0.0,0.0,0.0,0.0,0.0,0.0,0.0,0.0,0.0,0.0,0.0,0.0,0.0,0.0,0.0,0.0,0.0,0.0,0.0,0.0,0.0,0.0,0.0,4.9734,0.0,5.2953,5.245,5.1015,4.8779,0.0,0.0,0.0,0.0,0.0,0.0,0.0,0.0,0.0,0.0,0.0,0.0,0.0,0.0,0.0,0.0,0.0,0.0,0.0,0.0,0.0,0.0,0.0,0.0,0.0,0.0,0.0,0.0,0.0,0.0,0.0,0.0,0.0,0.0,0.0,0.0,0.0,0.0,0.0,0.0,0.0,0.0,0.0,0.0,0.0,0.0,0.0,0.0,0.0,0.0,0.0,0.0,0.0,0.0,0.0,0.0,0.0,0.0,0.0,0.0,0.0,0.0,0.0,0.0,0.0,0.0,0.0,0.0,0.0,0.0,0.0,0.0,0.0,0.0,0.0,0.0,0.0,0.0,0.0,0.0,0.0,0.0,0.0,0.0,0.0,0.0,0.0,0.0,0.0,0.0,0.0,0.0,0.0,0.0,0.0,0.0,0.0,0.0,0.0,0.0,0.0,0.0,0.0,0.0,0.0,0.0,0.0,0.0,0.0,5.1408,5.1885,5.4336,5.5082,5.2818,0.0,0.0,0.0,0.0,0.0,0.0,0.0,0.0,0.0,0.0,0.0,0.0,0.0,0.0,0.0,0.0,0.0,0.0,0.0,0.0,0.0,0.0,0.0,0.0,0.0,0.0,0.0,0.0,0.0,0.0,0.0,0.0,0.0,0.0,0.0,0.0,0.0,0.0,0.0,0.0,0.0,0.0,0.0,0.0,0.0,0.0,0.0,0.0,0.0,0.0,0.0,0.0,0.0,0.0,0.0,0.0,0.0,0.0,0.0,0.0,0.0,0.0,0.0,0.0,0.0,0.0,0.0,0.0,0.0,0.0,0.0,0.0,0.0,0.0,0.0,0.0,0.0,0.0,0.0,0.0,0.0,0.0,0.0,0.0,0.0,0.0,0.0,0.0,0.0,0.0,0.0,0.0,0.0,0.0,0.0,0.0,0.0,0.0,0.0,0.0,0.0,0.0,0.0,0.0,0.0,0.0,0.0,0.0,0.0,4.9082,5.0659,5.3197,5.6626,5.3549,5.0899,0.0,0.0,0.0,0.0,0.0,0.0,0.0,0.0,0.0,0.0,0.0,0.0,0.0,0.0,0.0,0.0,0.0,0.0,0.0,0.0,0.0,0.0,0.0,0.0,0.0,0.0,0.0,0.0,0.0,0.0,0.0,0.0,0.0,0.0,0.0,0.0,0.0,0.0,0.0,0.0,0.0,0.0,0.0,0.0,0.0,0.0,0.0,0.0,0.0,0.0,0.0,0.0,0.0,0.0,0.0,0.0,0.0,0.0,0.0,0.0,0.0,0.0,0.0,0.0,0.0,0.0,0.0,0.0,0.0,0.0,0.0,0.0,0.0,0.0,0.0,0.0,0.0,0.0,0.0,0.0,0.0,0.0,0.0,0.0,0.0,0.0,0.0,0.0,0.0,0.0,0.0,0.0,0.0,0.0,0.0,0.0,0.0,0.0,0.0,0.0,0.0,0.0,0.0,0.0,0.0,0.0,0.0,0.0,0.0,4.8505,0.0,5.4237,0.0,5.2582,4.9782,0.0,0.0,0.0,0.0,0.0,0.0,0.0,0.0,0.0,0.0,0.0,0.0,0.0,0.0,0.0,0.0,0.0,0.0,0.0,0.0,0.0,0.0,0.0,0.0,0.0,0.0,0.0,0.0,0.0,0.0,0.0,0.0,0.0,0.0,0.0,0.0,0.0,0.0,0.0,0.0,0.0,0.0,0.0,0.0,0.0,0.0,0.0,0.0,0.0,0.0,0.0,0.0,0.0,0.0,0.0,0.0,0.0,0.0,0.0,0.0,0.0,0.0,0.0,0.0,0.0,0.0,0.0,0.0,0.0,0.0,0.0,0.0,0.0,0.0,0.0,0.0,0.0,0.0,0.0,0.0,0.0,0.0,0.0,0.0,0.0,0.0,0.0,0.0,0.0,0.0,0.0,0.0,0.0,0.0,0.0,0.0,0.0,0.0,0.0,0.0,0.0,0.0,0.0,0.0,0.0,0.0,0.0,0.0,4.7668,5.1697,5.4192,5.4566,5.28,5.2538,4.9682,0.0,0.0,0.0,0.0,0.0,0.0,0.0,0.0,0.0,0.0,0.0,0.0,0.0,0.0,0.0,0.0,0.0,0.0,0.0,0.0,0.0,0.0,0.0,0.0,0.0,0.0,0.0,0.0,0.0,0.0,0.0,0.0,0.0,0.0,0.0,0.0,0.0,0.0,0.0,0.0,0.0,0.0,0.0,0.0,0.0,0.0,0.0,0.0,0.0,0.0,0.0,0.0,0.0,0.0,0.0,0.0,0.0,0.0,0.0,0.0,0.0,0.0,0.0,0.0,0.0,0.0,0.0,0.0,0.0,0.0,0.0,0.0,0.0,0.0,0.0,0.0,0.0,0.0,0.0,0.0,0.0,0.0,0.0,0.0,0.0,0.0,0.0,0.0,0.0,0.0,0.0,0.0,0.0,0.0,0.0,0.0,0.0,0.0,0.0,0.0,0.0,0.0,0.0,0.0,0.0,0.0,0.0,0.0,0.0,5.0159,5.1809,5.3486,5.491,5.0998,4.8414,0.0,0.0,0.0,0.0,0.0,0.0,0.0,0.0,0.0,0.0,0.0,0.0,0.0,0.0,0.0,0.0,0.0,0.0,0.0,0.0,0.0,0.0,0.0,0.0,0.0,0.0,0.0,0.0,0.0,0.0,0.0,0.0,0.0,0.0,0.0,0.0,0.0,0.0,0.0,0.0,0.0,0.0,0.0,0.0,0.0,0.0,0.0,0.0,0.0,0.0,0.0,0.0,0.0,0.0,0.0,0.0,0.0,0.0,0.0,0.0,0.0,0.0,0.0,0.0,0.0,0.0,0.0,0.0,0.0,0.0,0.0,0.0,0.0,0.0,0.0,0.0,0.0,0.0,0.0,0.0,0.0,0.0,0.0,0.0,0.0,0.0,0.0,0.0,0.0,0.0,0.0,0.0,0.0,0.0,0.0,0.0,0.0,0.0,0.0,0.0,0.0,0.0,0.0,0.0,0.0,0.0,0.0,0.0,0.0,5.089,5.2527,5.4205,5.58,5.1481,4.894,4.8506,0.0,0.0,0.0,0.0,0.0,0.0,0.0,0.0,0.0,0.0,0.0,0.0,0.0,0.0,0.0,0.0,0.0,0.0,0.0,0.0,0.0,0.0,0.0,0.0,0.0,0.0,0.0,0.0,0.0,0.0,0.0,0.0,0.0,0.0,0.0,0.0,0.0,0.0,0.0,0.0,0.0,0.0,0.0,0.0,0.0,0.0,0.0,0.0,0.0,0.0,0.0,0.0,0.0,0.0,0.0,0.0,0.0,0.0,0.0,0.0,0.0,0.0,0.0,0.0,0.0,0.0,0.0,0.0,0.0,0.0,0.0,0.0,0.0,0.0,0.0,0.0,0.0,0.0,0.0,0.0,0.0,0.0,0.0,0.0,0.0,0.0,0.0,0.0,0.0,0.0,0.0,0.0,0.0,0.0,0.0,0.0,0.0,0.0,0.0,0.0,0.0,0.0,0.0,0.0,0.0,0.0,0.0,0.0,5.3241,5.5747,5.6458,5.5275,5.3544,5.0932,0.0,0.0,0.0,0.0,0.0,0.0,0.0,0.0,0.0,0.0,0.0,0.0,0.0,0.0,0.0,0.0,0.0,0.0,0.0,0.0,0.0,0.0,0.0,0.0,0.0,0.0,0.0,0.0,0.0,0.0,0.0,0.0,0.0,0.0,0.0,0.0,0.0,0.0,0.0,0.0,0.0,0.0,0.0,0.0,0.0,0.0,0.0,0.0,0.0,0.0,0.0,0.0,0.0,0.0,0.0,0.0,0.0,0.0,0.0,0.0,0.0,0.0,0.0,0.0,0.0,0.0,0.0,0.0,0.0,0.0,0.0,0.0,0.0,0.0,0.0,0.0,0.0,0.0,0.0,0.0,0.0,0.0,0.0,0.0,0.0,0.0,0.0,0.0,0.0,0.0,0.0,0.0,0.0,0.0,0.0,0.0,0.0,0.0,0.0,0.0,0.0,0.0,0.0,0.0,0.0,0.0,0.0,0.0,0.0,5.4203,5.6665,5.763,5.6906,5.386,5.1135,0.0,0.0,0.0,0.0,0.0,0.0,0.0,0.0,0.0,0.0,0.0,0.0,0.0,0.0,0.0,0.0,0.0,0.0,0.0,0.0,0.0,0.0,0.0,0.0,0.0,0.0,0.0,0.0,0.0,0.0,0.0,0.0,0.0,0.0,0.0,0.0,0.0,0.0,0.0,0.0,0.0,0.0,0.0,0.0,0.0,0.0,0.0,0.0,0.0,0.0,0.0,0.0,0.0,0.0,0.0,0.0,0.0,0.0,0.0,0.0,0.0,0.0,0.0,0.0,0.0,0.0,0.0,0.0,0.0,0.0,0.0,0.0,0.0,0.0,0.0,0.0,0.0,0.0,0.0,0.0,0.0,0.0,0.0,0.0,0.0,0.0,0.0,0.0,0.0,0.0,0.0,0.0,0.0,0.0,0.0,0.0,0.0,0.0,0.0,0.0,0.0,0.0,0.0,0.0,0.0,0.0,0.0,0.0,5.3428,5.4977,5.6786,5.7618,5.7347,5.4893,5.2425,0.0,0.0,0.0,0.0,0.0,0.0,0.0,0.0,0.0,0.0,0.0,0.0,0.0,0.0,0.0,0.0,0.0,0.0,0.0,0.0,0.0,0.0,0.0,0.0,0.0,0.0,0.0,0.0,0.0,0.0,0.0,0.0,0.0,0.0,0.0,0.0,0.0,0.0,0.0,0.0,0.0,0.0,0.0,0.0,0.0,0.0,0.0,0.0,0.0,0.0,0.0,0.0,0.0,0.0,0.0,0.0,0.0,0.0,0.0,0.0,0.0,0.0,0.0,0.0,0.0,0.0,0.0,0.0,0.0,0.0,0.0,0.0,0.0,0.0,0.0,0.0,0.0,0.0,0.0,0.0,0.0,0.0,0.0,0.0,0.0,0.0,0.0,0.0,0.0,0.0,0.0,0.0,0.0,0.0,0.0,0.0,0.0,0.0,0.0,0.0,0.0,0.0,0.0,0.0,0.0,0.0,0.0,0.0,5.3274,5.5516,5.6516,5.7016,5.6978,5.6093,5.4054,0.0,0.0,0.0,0.0,0.0,0.0,0.0,0.0,0.0,0.0,0.0,0.0,0.0,0.0,0.0,0.0,0.0,0.0,0.0,0.0,0.0,0.0,0.0,0.0,0.0,0.0,0.0,0.0,0.0,0.0,0.0,0.0,0.0,0.0,0.0,0.0,0.0,0.0,0.0,0.0,0.0,0.0,0.0,0.0,0.0,0.0,0.0,0.0,0.0,0.0,0.0,0.0,0.0,0.0,0.0,0.0,0.0,0.0,0.0,0.0,0.0,0.0,0.0,0.0,0.0,0.0,0.0,0.0,0.0,0.0,0.0,0.0,0.0,0.0,0.0,0.0,0.0,0.0,0.0,0.0,0.0,0.0,0.0,0.0,0.0,0.0,0.0,0.0,0.0,0.0,0.0,0.0,0.0,0.0,0.0,0.0,0.0,0.0,0.0,0.0,0.0,0.0,0.0,0.0,0.0,0.0,0.0,0.0,5.4203,5.4741,5.6209,5.7016,5.6978,5.5555,5.3477,0.0,0.0,0.0,0.0,0.0,0.0,0.0,0.0,0.0,0.0,0.0,0.0,0.0,0.0,0.0,0.0,0.0,0.0,0.0,0.0,0.0,0.0,0.0,0.0,0.0,0.0,0.0,0.0,0.0,0.0,0.0,0.0,0.0,0.0,0.0,0.0,0.0,0.0,0.0,0.0,0.0,0.0,0.0,0.0,0.0,0.0,0.0,0.0,5.1316,0.0,0.0,0.0,0.0,0.0,0.0,0.0,0.0,0.0,0.0,0.0,0.0,0.0,0.0,0.0,0.0,0.0,0.0,0.0,0.0,0.0,0.0,0.0,0.0,0.0,0.0,0.0,0.0,0.0,0.0,0.0,0.0,0.0,0.0,0.0,0.0,0.0,0.0,0.0,0.0,0.0,0.0,0.0,0.0,0.0,0.0,0.0,0.0,0.0,0.0,0.0,0.0,0.0,0.0,0.0,0.0,0.0,0.0,0.0,5.4703,5.5088,5.5939,5.6401,5.6324,5.478,5.2895,0.0,0.0,0.0,0.0,0.0,0.0,0.0,0.0,0.0,0.0,0.0,0.0,0.0,0.0,0.0,0.0,0.0,0.0,0.0,0.0,0.0,0.0,0.0,0.0,0.0,0.0,0.0,0.0,0.0,0.0,0.0,0.0,0.0,0.0,0.0,0.0,0.0,0.0,0.0,0.0,0.0,0.0,0.0,0.0,0.0,0.0,0.0,0.0,0.0,0.0,0.0,0.0,0.0,0.0,0.0,0.0,0.0,0.0,0.0,0.0,0.0,0.0,0.0,0.0,0.0,0.0,0.0,0.0,0.0,0.0,0.0,0.0,0.0,0.0,0.0,0.0,0.0,0.0,0.0,0.0,0.0,0.0,0.0,0.0,0.0,0.0,0.0,0.0,0.0,0.0,0.0,0.0,0.0,0.0,0.0,0.0,0.0,0.0,0.0,0.0,0.0,0.0,0.0,0.0,0.0,0.0,0.0,5.3092,5.4626,5.5631,5.5588,5.5516,5.5478,5.401,5.2356,5.0543,0.0,0.0,0.0,0.0,0.0,0.0,0.0,0.0,0.0,0.0,0.0,0.0,0.0,0.0,0.0,0.0,0.0,0.0,0.0,0.0,0.0,0.0,0.0,0.0,0.0,0.0,0.0,0.0,0.0,0.0,0.0,0.0,0.0,0.0,0.0,0.0,0.0,0.0,4.8076,5.0681,0.0,0.0,0.0,0.0,0.0,0.0,0.0,0.0,5.2627,0.0,0.0,0.0,0.0,0.0,0.0,0.0,0.0,0.0,0.0,0.0,0.0,0.0,0.0,0.0,0.0,0.0,0.0,0.0,0.0,0.0,0.0,0.0,0.0,0.0,0.0,0.0,0.0,0.0,0.0,0.0,0.0,0.0,0.0,0.0,0.0,0.0,0.0,0.0,0.0,0.0,0.0,0.0,0.0,0.0,0.0,0.0,0.0,0.0,0.0,0.0,0.0,0.0,0.0,0.0,0.0,5.2702,5.2467,5.3428,5.5631,5.5049,5.4703,5.4664,5.3741,5.2087,4.9649,0.0,0.0,0.0,0.0,0.0,0.0,0.0,0.0,0.0,0.0,0.0,0.0,0.0,0.0,0.0,0.0,0.0,0.0,0.0,0.0,0.0,0.0,0.0,0.0,0.0,0.0,0.0,0.0,0.0,0.0,0.0,0.0,0.0,0.0,0.0,0.0,0.0,0.0,0.0,5.3402,5.5108,0.0,0.0,0.0,0.0,0.0,0.0,0.0,0.0,5.1653,0.0,0.0,0.0,0.0,0.0,0.0,0.0,0.0,0.0,0.0,0.0,0.0,0.0,0.0,0.0,0.0,0.0,0.0,0.0,0.0,0.0,0.0,0.0,0.0,0.0,0.0,0.0,0.0,0.0,0.0,0.0,0.0,0.0,0.0,0.0,0.0,0.0,0.0,0.0,0.0,0.0,0.0,0.0,0.0,0.0,0.0,0.0,0.0,0.0,0.0,0.0,0.0,0.0,0.0,0.0,5.1712,5.2779,5.3857,5.5011,5.4703,5.428,5.3813,5.2125,5.0345,0.0,0.0,0.0,0.0,0.0,0.0,0.0,0.0,0.0,0.0,0.0,0.0,0.0,0.0,0.0,0.0,0.0,0.0,0.0,0.0,0.0,0.0,0.0,0.0,0.0,0.0,0.0,0.0,0.0,0.0,0.0,0.0,0.0,0.0,0.0,0.0,0.0,0.0,0.0,0.0,5.4653,5.6116,5.746,0.0,0.0,0.0,0.0,0.0,0.0,5.3115,5.2483,0.0,0.0,0.0,0.0,0.0,0.0,0.0,0.0,0.0,0.0,0.0,0.0,0.0,0.0,0.0,0.0,0.0,0.0,0.0,0.0,0.0,0.0,0.0,0.0,0.0,0.0,0.0,0.0,0.0,0.0,0.0,0.0,0.0,0.0,0.0,0.0,0.0,0.0,0.0,0.0,0.0,0.0,0.0,0.0,0.0,0.0,0.0,0.0,0.0,0.0,0.0,0.0,0.0,0.0,0.0,5.0668,5.2708,5.3972,5.4439,5.4164,5.3664,5.2928,5.0818,4.8951,0.0,0.0,0.0,0.0,0.0,0.0,0.0,0.0,0.0,0.0,0.0,0.0,0.0,0.0,0.0,0.0,0.0,0.0,0.0,0.0,0.0,0.0,0.0,0.0,0.0,0.0,0.0,0.0,0.0,0.0,0.0,0.0,0.0,0.0,0.0,0.0,0.0,0.0,0.0,0.0,0.0,5.7574,5.9214,5.8468,0.0,0.0,0.0,0.0,5.5247,5.4508,0.0,0.0,0.0,0.0,0.0,0.0,0.0,0.0,0.0,0.0,0.0,0.0,0.0,0.0,0.0,0.0,0.0,0.0,0.0,0.0,0.0,0.0,0.0,0.0,0.0,0.0,0.0,0.0,0.0,0.0,0.0,0.0,0.0,0.0,0.0,0.0,0.0,0.0,0.0,0.0,0.0,0.0,0.0,0.0,0.0,0.0,0.0,0.0,0.0,0.0,0.0,0.0,0.0,0.0,0.0,0.0,5.0515,5.0976,5.2246,5.428,5.3005,5.2159,5.2038,5.1087,4.9296,0.0,0.0,0.0,0.0,0.0,0.0,0.0,0.0,0.0,0.0,0.0,0.0,0.0,0.0,0.0,0.0,0.0,0.0,0.0,0.0,0.0,0.0,0.0,0.0,0.0,0.0,0.0,0.0,0.0,0.0,0.0,0.0,0.0,0.0,0.0,0.0,0.0,0.0,0.0,0.0,0.0,6.0748,5.9587,5.9906,5.9999,0.0,0.0,5.7834,5.7792,5.7078,0.0,0.0,0.0,0.0,0.0,0.0,0.0,0.0,0.0,0.0,0.0,0.0,0.0,0.0,0.0,0.0,0.0,0.0,0.0,0.0,0.0,0.0,0.0,0.0,0.0,0.0,0.0,0.0,0.0,0.0,0.0,0.0,0.0,0.0,0.0,0.0,0.0,0.0,0.0,0.0,0.0,0.0,0.0,0.0,0.0,0.0,0.0,0.0,0.0,0.0,0.0,0.0,0.0,0.0,0.0,4.6898,5.0553,5.1164,5.2159,5.3664,5.2544,5.1659,5.1241,4.9933,4.8041,0.0,0.0,0.0,0.0,0.0,0.0,0.0,0.0,0.0,0.0,0.0,0.0,0.0,0.0,0.0,0.0,0.0,0.0,0.0,0.0,0.0,0.0,0.0,0.0,0.0,0.0,0.0,0.0,0.0,0.0,0.0,0.0,0.0,0.0,0.0,0.0,0.0,0.0,0.0,0.0,0.0,0.0,6.2475,6.2519,0.0,0.0,0.0,6.0354,5.9779,0.0,0.0,0.0,0.0,0.0,0.0,0.0,0.0,0.0,0.0,0.0,0.0,0.0,0.0,0.0,0.0,0.0,0.0,0.0,0.0,0.0,0.0,0.0,0.0,0.0,0.0,0.0,0.0,0.0,0.0,0.0,0.0,0.0,0.0,0.0,0.0,0.0,0.0,0.0,0.0,0.0,0.0,0.0,0.0,0.0,0.0,0.0,0.0,0.0,0.0,0.0,0.0,0.0,0.0,0.0,0.0,0.0,5.063,5.1467,5.2313,5.3159,5.2346,5.1505,5.0707,4.9433,0.0,0.0,0.0,0.0,0.0,0.0,0.0,0.0,0.0,0.0,0.0,0.0,0.0,0.0,0.0,0.0,0.0,0.0,0.0,0.0,0.0,0.0,0.0,0.0,0.0,0.0,0.0,4.4925,0.0,0.0,0.0,0.0,0.0,0.0,0.0,0.0,0.0,0.0,0.0,0.0,0.0,0.0,6.1882,6.4411,6.4414,6.4098,0.0,0.0,6.2594,6.1427,6.0388,5.8901,0.0,0.0,0.0,0.0,0.0,0.0,0.0,0.0,0.0,0.0,0.0,0.0,0.0,0.0,0.0,0.0,0.0,0.0,0.0,0.0,0.0,0.0,0.0,0.0,0.0,0.0,0.0,0.0,0.0,0.0,0.0,0.0,0.0,0.0,0.0,0.0,0.0,0.0,0.0,0.0,0.0,0.0,0.0,0.0,0.0,0.0,0.0,0.0,0.0,0.0,0.0,0.0,0.0,0.0,0.0,5.0592,5.1471,5.2318,5.3126,5.2351,5.1505,5.0707,5.0592,4.8792,0.0,0.0,0.0,0.0,0.0,0.0,0.0,0.0,0.0,0.0,0.0,0.0,0.0,0.0,0.0,0.0,0.0,0.0,0.0,0.0,0.0,0.0,0.0,0.0,0.0,0.0,0.0,0.0,0.0,0.0,0.0,0.0,0.0,0.0,0.0,0.0,0.0,0.0,0.0,0.0,0.0,6.363,6.387,6.4531,6.5031,0.0,0.0,6.4351,6.2743,6.3009,6.2043,5.7973,0.0,0.0,0.0,0.0,0.0,0.0,0.0,0.0,0.0,0.0,0.0,0.0,0.0,0.0,0.0,0.0,0.0,0.0,0.0,0.0,0.0,0.0,0.0,0.0,0.0,0.0,0.0,0.0,0.0,0.0,0.0,0.0,0.0,0.0,0.0,0.0,0.0,0.0,0.0,0.0,0.0,0.0,0.0,0.0,0.0,0.0,0.0,0.0,0.0,0.0,0.0,0.0,0.0,4.7465,5.0878,5.1731,5.282,5.4143,5.2898,5.2006,5.1699,5.1192,4.9452,0.0,0.0,0.0,0.0,0.0,0.0,0.0,0.0,0.0,0.0,0.0,0.0,0.0,0.0,0.0,0.0,0.0,0.0,0.0,0.0,0.0,0.0,0.0,0.0,0.0,0.0,0.0,0.0,5.0288,5.0795,5.0795,0.0,0.0,0.0,0.0,0.0,0.0,0.0,0.0,0.0,0.0,6.4497,6.5553,6.5981,0.0,0.0,6.6016,6.5794,6.5043,6.3429,6.1548,5.9484,5.777,0.0,0.0,0.0,0.0,0.0,0.0,0.0,0.0,0.0,0.0,0.0,0.0,0.0,0.0,0.0,0.0,0.0,0.0,0.0,0.0,0.0,0.0,0.0,0.0,0.0,0.0,0.0,0.0,0.0,0.0,0.0,0.0,0.0,0.0,0.0,0.0,0.0,0.0,0.0,0.0,0.0,0.0,0.0,0.0,0.0,0.0,0.0,0.0,0.0,0.0,0.0,0.0,4.7818,5.0956,5.2053,5.3304,5.4749,5.358,5.2839,5.2529,5.1785,5.0162,0.0,0.0,0.0,0.0,0.0,0.0,0.0,0.0,0.0,0.0,0.0,0.0,0.0,0.0,0.0,0.0,0.0,0.0,0.0,0.0,0.0,0.0,0.0,0.0,0.0,0.0,0.0,0.0,5.1211,5.1523,5.1758,0.0,0.0,0.0,0.0,0.0,0.0,0.0,0.0,0.0,0.0,6.5508,6.6719,6.6914,6.6834,6.6732,6.6687,6.6476,6.5864,6.3982,6.2145,6.0803,0.0,0.0,0.0,0.0,0.0,0.0,0.0,0.0,0.0,0.0,0.0,0.0,0.0,0.0,0.0,0.0,0.0,0.0,0.0,0.0,0.0,0.0,0.0,0.0,0.0,0.0,0.0,4.6903,0.0,0.0,4.5569,0.0,0.0,0.0,0.0,0.0,0.0,0.0,0.0,0.0,0.0,0.0,0.0,0.0,0.0,0.0,0.0,0.0,0.0,0.0,0.0,0.0,0.0,4.8227,5.0664,5.2344,5.3633,5.4531,5.4453,5.4023,5.3202,5.2343,5.1093,4.9372,0.0,0.0,0.0,0.0,0.0,0.0,0.0,0.0,0.0,0.0,0.0,0.0,0.0,0.0,0.0,0.0,0.0,0.0,0.0,0.0,0.0,0.0,0.0,0.0,0.0,0.0,5.2617,5.1914,5.1797,0.0,0.0,0.0,0.0,0.0,0.0,0.0,0.0,0.0,0.0,6.5234,6.6875,6.6914,6.6914,6.6914,6.6875,6.6875,6.6328,6.4687,6.4961,6.4607,0.0,0.0,0.0,0.0,0.0,0.0,0.0,0.0,0.0,0.0,0.0,0.0,0.0,0.0,0.0,0.0,0.0,0.0,0.0,0.0,0.0,0.0,0.0,0.0,0.0,0.0,0.0,4.9542,4.9356,0.0,0.0,0.0,0.0,0.0,0.0,0.0,0.0,0.0,0.0,0.0,5.3371,5.3964,0.0,0.0,0.0,0.0,0.0,0.0,0.0,0.0,0.0,0.0,0.0,0.0,4.8647,5.1626,5.2877,5.4164,5.5566,5.5057,5.4624,5.4309,5.3488,5.1962,4.9654,0.0,0.0,0.0,0.0,0.0,0.0,0.0,0.0,0.0,0.0,0.0,0.0,0.0,0.0,0.0,0.0,0.0,0.0,0.0,0.0,0.0,0.0,0.0,0.0,0.0,5.3555,0.0,0.0,0.0,0.0,0.0,0.0,0.0,0.0,0.0,0.0,0.0,6.4609,6.5508,6.6836,6.7539,6.6992,6.6914,6.6873,0.0,0.0,0.0,0.0,0.0,0.0,0.0,0.0,0.0,0.0,0.0,0.0,0.0,0.0,6.3455,5.9757,5.8745,5.8518,5.8518,0.0,0.0,0.0,0.0,0.0,0.0,0.0,0.0,0.0,0.0,0.0,0.0,0.0,0.0,5.2158,0.0,5.1399,0.0,0.0,0.0,0.0,0.0,0.0,0.0,0.0,5.4587,5.5594,5.6743,5.7322,5.6888,0.0,5.538,5.3599,0.0,0.0,0.0,0.0,0.0,0.0,0.0,0.0,4.9697,5.209,5.3332,5.4619,5.5941,5.5465,5.5193,5.5155,5.4372,5.2996,5.1029,5.0479,4.9575,0.0,0.0,0.0,0.0,0.0,0.0,0.0,0.0,0.0,0.0,0.0,0.0,0.0,0.0,0.0,0.0,0.0,0.0,0.0,0.0,0.0,0.0,0.0,5.4413,0.0,0.0,0.0,0.0,0.0,0.0,0.0,0.0,0.0,6.4198,6.5777,6.7265,6.8086,6.8476,6.832,6.7461,0.0,0.0,0.0,0.0,0.0,0.0,0.0,6.4601,6.4181,6.3933,6.3735,6.3732,6.5413,6.6609,6.6179,0.0,0.0,6.2613,6.1484,6.1208,6.1275,6.2103,6.2616,6.2072,6.3013,6.3838,0.0,0.0,0.0,0.0,0.0,0.0,0.0,0.0,5.5288,5.5074,0.0,5.4626,0.0,0.0,0.0,0.0,0.0,5.3741,0.0,0.0,5.7857,5.8313,5.8396,5.8401,5.794,5.7231,5.8046,5.7598,5.5779,5.1945,0.0,0.0,0.0,0.0,0.0,0.0,5.1219,5.2025,5.3641,5.4867,5.5681,5.5675,5.5714,5.5681,5.4944,5.4174,5.3452,5.3348,5.2299,4.9959,4.9733,0.0,0.0,0.0,0.0,0.0,0.0,0.0,0.0,0.0,0.0,0.0,0.0,0.0,0.0,0.0,0.0,0.0,0.0,0.0,0.0,5.4798,0.0,0.0,0.0,0.0,0.0,0.0,0.0,0.0,0.0,0.0,6.7344,6.8515,6.9805,7.0586,0.0,0.0,0.0,0.0,6.6909,6.6741,6.6688,6.6334,6.5333,6.5894,6.6029,6.5034,0.0,0.0,6.6153,6.6898,6.7521,6.7638,6.832,6.8519,6.7102,6.5957,6.5434,6.5584,6.5625,6.5703,6.5742,6.6113,6.6622,5.7291,0.0,0.0,0.0,0.0,5.625,5.7541,5.9571,5.9307,5.875,5.805,5.7434,0.0,0.0,0.0,0.0,0.0,0.0,5.6593,5.8704,5.8473,5.8934,6.005,6.0089,5.9935,5.9715,5.9403,5.8934,5.8389,5.6059,5.3743,5.1453,0.0,0.0,0.0,0.0,5.23,5.3708,5.4241,5.4895,5.567,5.5708,5.5708,5.5708,5.5478,5.497,5.4198,5.4198,5.361,5.2373,5.1171,0.0,0.0,0.0,0.0,0.0,0.0,0.0,0.0,0.0,0.0,0.0,0.0,0.0,0.0,0.0,0.0,0.0,0.0,0.0,5.5581,5.7148,5.832,0.0,0.0,0.0,0.0,0.0,0.0,0.0,0.0,0.0,7.2226,7.1719,7.1367,0.0,0.0,7.0039,6.9258,6.8777,6.8493,6.8268,6.8098,0.0,6.6664,6.6742,6.6791,6.6506,6.7188,6.7761,6.7754,6.8454,6.8903,6.8433,6.8948,6.9242,6.8699,6.8309,6.8107,6.8166,6.8273,6.8359,6.8398,6.8514,6.8633,6.0667,5.9045,5.8063,5.8225,5.9116,5.9132,6.0328,6.2135,6.1901,6.1512,6.0967,6.0506,5.905,5.6978,5.6626,0.0,0.0,0.0,5.9242,6.0973,6.0506,6.0814,6.1743,6.182,6.1589,6.1287,6.0787,6.0358,6.0017,5.8632,5.6822,5.4571,0.0,0.0,5.2713,5.3515,5.4434,5.5439,5.5478,5.5747,5.6209,5.5862,5.5708,5.5708,5.5708,5.5478,5.4977,5.4977,5.4621,5.388,5.2833,5.1845,0.0,0.0,0.0,0.0,0.0,0.0,0.0,0.0,0.0,0.0,0.0,5.2893,5.2457,0.0,0.0,0.0,5.4599,5.6032,5.8398,6.0508,0.0,0.0,0.0,0.0,0.0,0.0,0.0,7.1346,7.2731,7.3945,7.4961,7.4219,7.3398,7.3086,7.1992,7.0898,7.0078,0.0,6.9116,6.8942,6.8739,6.8358,6.7725,6.7628,6.759,6.7628,6.8052,6.8545,6.8891,6.9353,6.9669,6.9717,6.9988,7.0268,7.0119,7.0409,7.0452,6.9932,7.019,7.0469,7.0508,7.043,7.043,6.3808,6.351,6.0588,6.0279,6.168,6.1762,6.2448,6.3462,6.3506,6.3468,6.3391,6.3391,6.2506,6.0973,6.0165,0.0,6.1133,6.1864,6.2589,6.3391,6.3352,6.3314,6.3314,6.3275,6.2897,6.2172,6.221,6.1787,6.0973,6.0204,5.9435,5.8665,5.7088,5.6132,5.5862,5.667,5.7093,5.7093,5.7093,5.7132,5.7093,5.6324,5.5862,5.5824,5.5785,5.5785,5.5708,5.5708,5.5357,5.4626,5.4511,5.3439,5.1169,0.0,0.0,0.0,0.0,0.0,0.0,0.0,0.0,0.0,0.0,0.0,0.0,0.0,0.0,0.0,5.8406,0.0,6.1953,6.4414,0.0,0.0,0.0,6.8513,6.8521,7.0736,7.2539,7.3398,0.0,0.0,7.6015,7.6015,7.5664,7.4805,7.3203,7.1797,7.1015,7.0085,6.9296,6.9221,6.8937,6.8718,6.8559,6.8507,6.8507,6.8507,6.8545,6.8943,6.9643,6.9842,7.0239,7.1105,7.1329,7.1459,7.1665,7.2491,7.2771,7.1443,7.1719,7.2226,7.2187,7.2187,7.2226,6.5722,6.5063,6.4302,6.4089,6.4268,6.4642,6.4987,6.5282,6.5282,6.4897,6.4275,6.4282,6.3698,6.2698,6.2468,6.2891,6.3666,6.3205,6.3468,6.4243,6.3622,6.3314,6.3314,6.3314,6.3198,6.3006,6.3012,6.2891,6.2698,6.2506,6.2314,6.2121,6.1698,5.9896,5.6863,5.7555,5.7973,5.7973,5.8011,5.8011,5.7973,5.778,5.7357,5.6714,5.6676,5.6362,5.5747,5.5708,5.5626,5.5401,5.4818,5.4203,5.3587,5.1784,0.0,0.0,0.0,0.0,0.0,0.0,0.0,0.0,0.0,5.8234,5.5239,0.0,6.0235,0.0,6.2613,6.4491,6.5547,6.7383,0.0,0.0,7.0703,7.1601,7.2888,7.3593,7.4336,7.5156,7.6211,7.6914,7.6875,7.6875,7.6562,7.5703,7.4062,7.2849,7.247,7.1596,7.0894,7.0653,7.0424,7.0144,6.9533,6.9398,6.9398,6.9398,6.986,7.0452,7.0772,7.0844,7.1172,7.2189,7.2431,7.2744,7.3471,7.4375,7.4845,7.4648,7.4336,7.3984,7.3984,7.3984,7.3984,6.6922,6.6514,6.6751,6.6513,6.5997,6.5649,6.5683,6.5897,6.5904,6.5628,6.5166,6.5166,6.4897,6.4474,6.4474,6.4743,6.5128,6.4666,6.4743,6.5128,6.4666,6.4474,6.4474,6.4474,6.4237,6.3891,6.3852,6.366,6.3314,6.3314,6.3314,6.3314,6.3314,6.2121,5.9902,5.9935,5.9973,5.9973,5.9242,5.8665,5.8313,5.8275,5.7896,5.7055,5.7363,5.6978,5.5747,5.6434,5.6472,5.5742,5.5631,5.5593,5.5593,5.4347,5.3837,0.0,0.0,0.0,0.0,0.0,0.0,0.0,0.0,0.0,0.0,0.0,6.4149,6.5039,6.6797,6.8398,6.9648,7.164,7.3086,7.3672,7.4726,7.5664,7.6289,7.664,7.6914,7.7031,7.7461,7.7617,7.7265,7.7226,7.7031,7.6523,7.5312,7.4098,7.3111,7.2137,7.1451,7.1218,7.1041,7.0783,7.0283,7.0244,7.0259,7.0399,7.0738,7.1114,7.1304,7.131,7.1657,7.2651,7.2882,7.3239,7.4225,7.5136,7.577,7.582,7.582,7.5781,7.5742,7.5742,7.5742,6.791,6.7825,6.8275,6.7985,6.7081,6.591,6.5602,6.5904,6.5904,6.5904,6.5904,6.5904,6.5904,6.5904,6.5904,6.5904,6.5904,6.5904,6.5904,6.5904,6.5904,6.5904,6.5904,6.5904,6.5513,6.4782,6.4743,6.4397,6.3666,6.3622,6.3622,6.3622,6.3622,6.3622,6.3583,6.2826,6.2287,6.2056,6.0473,5.9319,5.8621,5.8627,5.8204,5.7401,5.8088,5.772,5.619,5.7646,5.7821,5.64,5.7104,5.7567,5.7533,5.7611,5.7609,0.0,5.762,0.0,0.0,0.0,0.0,0.0,0.0,0.0,0.0,6.6288,6.814,6.9765,7.0781,7.2031,7.3633,7.5976,7.7109,7.6523,7.8359,7.9414,7.8789,7.9297,7.9375,7.8594,7.8476,7.8164,7.7344,7.7226,7.7226,7.7109,7.6328,7.5195,7.3657,7.2448,7.1649,7.1378,7.1121,7.0953,7.092,7.0953,7.1006,7.1182,7.1189,7.1361,7.1683,7.1751,7.2078,7.313,7.3505,7.3837,7.4882,7.5703,7.6094,7.6328,7.6758,7.707,7.707,7.7031,7.7226,6.9666,6.8695,6.876,6.8295,6.7515,6.7245,6.6642,6.5904,6.5904,6.5904,6.5904,6.5904,6.5904,6.5904,6.5904,6.5904,6.5904,6.5904,6.5904,6.5904,6.5904,6.5904,6.5904,6.5904,6.582,6.5667,6.5667,6.559,6.5397,6.5397,6.5397,6.5397,6.5397,6.5436,6.5359,0.0,0.0,0.0,6.1095,6.0473,6.0319,6.0319,5.9896,5.9056,5.9355,0.0,5.8088,5.9074,5.9552,5.9244,6.0028,0.0,0.0,0.0,0.0,0.0,0.0,0.0,0.0,0.0,0.0,0.0,6.6831,6.6558,6.6483,6.9842,7.2186,7.2539,7.3984,7.5351,7.6367,7.7539,7.8437,7.8945,7.9414,7.9609,7.9492,7.9648,7.9414,7.8594,7.8515,7.8164,7.7383,7.7226,7.7226,7.7226,7.6445,7.5742,7.5184,7.3631,7.2516,7.2255,7.1727,7.1265,7.1344,7.143,7.1616,7.1424,7.1427,7.1816,7.2574,7.2758,7.3415,7.4922,7.5349,7.5859,7.7383,7.7383,7.7187,7.7851,7.7578,7.7226,7.7226,7.7226,7.7226,7.1147,0.0,7.0049,6.9398,0.0,6.8624,6.8074,6.7128,6.6667,6.6288,6.5904,6.5904,6.5904,6.5904,6.5904,6.5904,6.5904,6.5904,6.5904,6.5904,6.5904,6.5904,6.5904,6.5904,6.5904,6.5904,6.5904,6.5904,6.5904,6.5904,6.5904,6.5904,6.5904,6.5904,6.5859,6.5013,6.3974,6.2704,6.2243,6.2044,6.2018,6.2128,6.1783,6.0943,6.1452,0.0,0.0,0.0,0.0,0.0,0.0,0.0,0.0,0.0,0.0,6.3834,6.3998,6.4463,6.5341,6.5459,6.6792,6.9805,7.1289,7.164,7.0781,7.3086,7.4961,7.582,7.668,7.7539,7.8359,7.9219,7.9883,8.0312,8.0742,8.0976,8.0976,8.0976,8.0469,7.9336,7.9101,7.8789,7.793,7.7461,7.7422,7.7734,7.7109,7.6523,7.6235,7.4767,7.3469,7.3289,7.2897,7.262,7.2751,7.3129,7.3406,7.3495,7.3519,7.3768,7.4311,7.4436,7.4912,7.625,7.6875,7.7617,7.8711,7.8711,7.8476,7.8476,7.8476,7.8242,7.793,7.75,7.7226,7.2437,7.236,7.1475,7.0744,7.0129,6.9975,6.943,6.8545,0.0,0.0,0.0,6.5974,6.5904,6.5904,6.5904,6.5935,6.5946,6.5929,6.5935,6.5946,6.5929,6.5929,6.5946,6.5946,6.5952,6.5952,6.5952,6.5915,6.5904,6.5904,6.5904,6.5904,6.5921,6.5943,6.5951,6.5257,6.4563,6.3863,6.3509,6.3355,6.3411,6.3559,6.3283,6.2593,6.3405,6.3216,6.1866,6.328,6.3487,6.2173,6.3029,6.3882,6.4578,6.5559,6.6723,6.8047,6.894,6.957,6.9922,6.9961,7.0742,7.2578,7.4805,7.5742,7.4883,7.5625,7.6797,7.8359,7.8476,7.8867,7.9844,8.0547,8.1054,8.1211,8.1875,8.2304,8.2304,8.2304,8.1601,8.0273,7.9922,7.9609,7.8828,7.8125,7.7812,7.8242,7.7851,7.7305,7.7031,7.5639,7.4392,7.4062,7.384,7.4008,7.4391,7.4798,7.5494,7.5688,7.5777,7.5992,7.6289,7.6367,7.6719,7.7539,7.8242,7.8945,7.9726,7.9726,7.957,7.9023,7.9297,7.9531,7.8867,7.8164,7.7734,7.3315,7.3238,7.2399,7.1944,7.1783,7.1052,7.0244,6.9398,6.7789,6.7019,6.6904,6.6211,6.5904,6.5904,6.5904,6.5978,6.6074,6.5955,6.5973,6.6074,6.5955,6.5973,6.6089,6.6056,6.6056,6.6056,6.6094,6.6008,6.589,6.591,6.5904,6.5903,6.6014,6.616,6.6298,6.6196,6.6079,6.592,6.4352,6.3615,6.3718,6.3745,6.3719,6.3612,6.3897,6.3989,6.3719,6.4746,6.523,6.5035,6.652,6.7457,6.7578,6.832,6.8944,6.9178,6.9375,7.0117,7.1523,7.164,7.2734,7.5117,7.6406,7.664,7.582,7.6523,7.7422,7.8398,7.8555,7.914,8.0586,8.0937,8.1328,8.1992,8.2226,8.2304,8.2304,8.2304,8.1914,8.0898,8.082,8.0469,7.9687,7.9375,7.9023,7.8672,7.8398,7.8008,7.7187,7.619,7.5132,7.4449,7.4252,7.4634,7.5508,7.5703,7.6367,7.6873,7.707,7.7383,7.8008,7.8125,7.8398,7.918,7.9492,7.9922,8.0664,8.0195,8.0078,8.0312,8.0195,7.9805,7.9609,7.9414,7.9336,7.4161,7.4046,7.3245,7.2899,7.286,7.1975,7.1204,7.0432,6.917,6.8298,6.7808,6.7518,6.7404,6.7421,6.7494,6.7575,6.7588,6.7096,6.6907,6.6916,6.6428,6.62,6.6252,6.6256,6.626,6.626,6.626,6.6247,6.619,6.6181,6.6142,6.619,6.6212,6.6305,6.6381,6.6426,6.6432,6.6464,6.5583,6.5143,6.5226,6.5268,6.5305,6.5305,6.5509,6.5614,6.5614,6.6053,6.6523,6.6992,6.7773,6.8398,6.8906,6.9648,7.0117,7.0117,7.1015,7.1914,7.2656,7.3594,7.4609,7.582,7.6719,7.7031,7.664,7.7422,7.8242,7.9062,7.957,8.0351,8.1562,8.1719,8.1875,8.2265,8.2304,8.2304,8.2304,8.2304,8.1953,8.1172,8.0976,8.082,8.0469,8.0,7.9844,7.9687,7.918,7.8203,7.7383,7.6797,7.6328,7.6002,7.6276,7.675,7.7265,7.8125,7.875,7.9219,7.9258,7.9414,7.9805,7.9844,8.0,8.0351,8.0742,8.1211,8.1679,8.1406,8.1172,8.0859,8.1172,8.0937,8.0625,8.0742,8.0781,7.5284,7.5207,7.4221,7.3761,7.3562,7.2912,7.2203,7.1499,7.0849,6.9995,6.9137,6.8874,6.8769,6.8752,6.8836,6.8915,6.8864,6.8286,6.8014,6.7965,6.7307,6.6996,6.7028,6.7031,6.7028,6.7031,6.7031,6.7013,6.6941,6.6977,6.6996,6.6986,6.6833,6.6772,6.6802,6.6607,6.6574,6.6635,6.6574,6.6527,6.6532,6.6613,6.6682,6.6684,6.6792,6.6992,6.7187,6.7187,6.7578,6.8398,6.8672,6.9062,6.9765,7.0742,7.1289,7.1445,7.2734,7.3711,7.3945,7.5312,7.6172,7.6211,7.6797,7.7226,7.7265,7.8164,7.9023,7.9687,8.0429,8.1289,8.207,8.2265,8.2304,8.2304,8.2304,8.2304,8.2304,8.2304,8.207,8.1406,8.1289,8.1328,8.1172,8.0703,8.0508,8.0625,7.957,7.8359,7.8047,7.7656,7.7344,7.8203,7.8476,7.8476,7.8828,8.0117,8.1015,8.1289,8.1445,8.1367,8.1367,8.1289,8.1289,8.1328,8.1758,8.2109,8.2265,8.2265,8.1953,8.1523,8.1758,8.1992,8.1445,8.1953,8.207,7.7037,7.6842,7.5487,7.4519,7.399,7.3846,7.3387,7.2709,7.2557,7.204,7.1127,6.9558,6.8955,6.8874,6.8936,6.9097,6.9215,6.8922,6.8894,6.9014,6.8803,6.8733,6.8829,6.8912,6.8951,6.8873,6.8873,6.8713,6.8538,6.8601,6.8736,6.8825,6.813,6.785,6.793,6.7265,6.6875,6.6875,6.6873,6.6873,6.6873,6.6874,6.6874,6.6874,6.6914,6.7265,6.8047,6.8086,6.8476,6.9258,7.0039,7.0508,7.0742,7.2148,7.3047,7.3086,7.3945,7.4805,7.5625,7.6523,7.707,7.7109,7.7148,7.7265,7.7305,7.8672,7.957,7.9883,8.0508,8.1445,8.2187,8.2304,8.2304,8.2304,8.2304,8.2304,8.2304,8.2304,8.2265,8.2187,8.207,8.2187,8.207,8.1914,8.1679,8.1015,7.9765,7.9101,7.9726,7.8633,7.8437,8.0351,8.0078,7.914,7.9726,8.1054,8.2148,8.2304,8.2851,8.2929,8.2539,8.2304,8.2187,8.2461,8.2344,8.2578,8.2422,8.2304,8.2344,8.2109,8.2187,8.2304,8.2304,8.2773,8.2851,7.8445,7.8339,7.7199,7.5969,7.4838,7.4764,7.4356,7.3695,7.3656,7.3538,7.3195,7.2029,7.1145,7.0585,7.0681,7.0795,7.0809,7.0244,7.0012,7.0028,6.9501,6.927,6.9325,6.9364,6.9365,6.9326,6.9365,6.9297,6.9222,6.9219,6.9269,6.9285,6.8974,6.8863,6.8945,6.8594,6.8398,6.8359,6.8359,6.8398,6.832,6.793,6.789,6.832,6.8359,6.8515,6.8867,6.8906,6.9297,7.0117,7.0976,7.1719,7.2226,7.3398,7.4062,7.414,7.4883,7.5976,7.7344,7.7773,7.7969,7.7969,7.7969,7.7969,7.8008,7.9023,7.9883,8.0469,8.125,8.1953,8.2265,8.2304,8.2304,8.2304,8.2304,8.2304,8.2304,8.2304,8.2304,8.2304,8.2304,8.2304,8.2304,8.2304,8.1914,8.1172,8.0312,8.0156,8.0234,7.9297,7.9609,8.0937,8.0976,8.1211,8.1836,8.2969,8.3672,8.3867,8.4101,8.414,8.3906,8.3828,8.3867,8.3789,8.3711,8.3476,8.3164,8.3047,8.2969,8.2734,8.2851,8.3086,8.3047,8.3242,8.3064,7.9909,7.9721,7.8786,7.7626,7.6495,7.6261,7.5764,7.5079,7.4849,7.4674,7.4531,7.3945,7.3238,7.2553,7.2419,7.2344,7.2305,7.1953,7.1758,7.168,7.0898,7.0508,7.0469,7.0234,7.0156,7.0117,7.0195,7.0195,7.0117,7.0156,7.0156,7.0117,6.9922,6.9805,6.9805,6.957,6.9414,6.9375,6.9414,6.9531,6.9648,6.9414,6.9297,6.9414,6.9414,6.9492,6.9726,6.9961,7.0508,7.1406,7.2226,7.3008,7.3633,7.4492,7.5156,7.5664,7.625,7.7265,7.875,7.8828,7.8828,7.8828,7.8828,7.8828,7.8945,7.9609,8.0273,8.0898,8.1797,8.2265,8.2304,8.2304,8.2304,8.2304,8.2304,8.2304,8.2304,8.2304,8.2304,8.2304,8.2304,8.2304,8.2304,8.2304,8.2031,8.1523,8.1133,8.1133,8.0703,8.0508,8.0547,8.207,8.2851,8.3047,8.3633,8.4453,8.5039,8.5,8.4961,8.5156,8.5,8.4883,8.4883,8.4414,8.4765,8.457,8.375,8.3554,8.3828,8.3359,8.3398,8.3672,8.3476,8.3437,8.2931,8.1582,8.1343,7.9954,7.9339,7.9414,7.8633,7.7851,7.6914,7.6211,7.543,7.4765,7.4609,7.4531,7.4375,7.3633,7.3242,7.3359,7.3945,7.418,7.4101,7.3398,7.3086,7.3047,7.2305,7.1914,7.1875,7.1875,7.1875,7.1875,7.1875,7.1914,7.1875,7.1133,7.0703,7.0703,7.0117,6.9492,6.9805,6.9805,6.9961,7.0703,7.1445,7.1055,6.9844,6.9492,7.0039,7.0703,7.1484,7.2265,7.3164,7.3945,7.4492,7.4648,7.543,7.664,7.8008,7.832,7.8711,7.9492,7.9648,7.9648,7.9648,7.9648,7.9648,7.9687,8.0351,8.0898,8.1015,8.1914,8.2383,8.2383,8.2344,8.2304,8.2304,8.2304,8.2304,8.2304,8.2383,8.2304,8.2383,8.2422,8.2461,8.2383,8.2304,8.2265,8.2031,8.1523,8.1484,8.2578,8.1875,8.25,8.4453,8.5039,8.4531,8.4023,8.5078,8.5664,8.5625,8.582,8.5937,8.5312,8.4883,8.5,8.5039,8.5273,8.5,8.4179,8.4101,8.457,8.4453,8.4062,8.4062,8.4179,8.3633,8.3055,8.2267,8.1215,8.0648,8.0153,7.9687,7.9375,7.8789,7.8047,7.7695,7.707,7.625,7.5703,7.543,7.543,7.5117,7.4648,7.4219,7.4492,7.457,7.457,7.4258,7.414,7.4101,7.3789,7.3672,7.3672,7.3672,7.3672,7.3594,7.3125,7.3125,7.3476,7.2773,7.2617,7.3047,7.289,7.2734,7.2734,7.2734,7.289,7.3125,7.3515,7.3359,7.2812,7.2734,7.2851,7.3164,7.3476,7.3828,7.4101,7.4961,7.5703,7.6328,7.7578,7.8594,7.918,7.9258,7.9648,8.039,8.0508,8.0547,8.0547,8.0508,8.0547,8.0586,8.0859,8.1211,8.1836,8.2617,8.3125,8.3008,8.2656,8.2304,8.2304,8.2304,8.2304,8.2422,8.2773,8.3125,8.3125,8.3125,8.3125,8.3008,8.2656,8.2304,8.2265,8.2031,8.2461,8.3164,8.2969,8.3633,8.5429,8.5976,8.582,8.6211,8.6523,8.6914,8.6797,8.6836,8.6914,8.6562,8.6367,8.6445,8.6328,8.6289,8.6015,8.539,8.4765,8.5273,8.5586,8.5195,8.4844,8.5078,8.4388,8.3608,8.3594,8.2304,8.1953,8.1523,8.0937,8.0351,7.9805,7.9258,7.8711,7.8164,7.75,7.6719,7.6328,7.6328,7.6328,7.6055,7.5469,7.543,7.543,7.543,7.5156,7.5039,7.4961,7.4726,7.457,7.457,7.457,7.457,7.4531,7.4023,7.4062,7.4492,7.3984,7.3984,7.4492,7.457,7.457,7.457,7.457,7.457,7.4609,7.4883,7.5,7.5039,7.5273,7.5156,7.4687,7.5117,7.543,7.5586,7.6484,7.7383,7.8047,7.9062,7.9844,8.0078,8.0117,8.0508,8.125,8.1406,8.1406,8.1406,8.1406,8.1445,8.1445,8.1679,8.2148,8.2773,8.3515,8.4023,8.3906,8.3476,8.3047,8.2773,8.2461,8.2422,8.2695,8.3164,8.3594,8.3828,8.3906,8.3945,8.3945,8.3515,8.3281,8.3125,8.3125,8.3437,8.3867,8.4609,8.5,8.6094,8.7109,8.7304,8.75,8.7734,8.7656,8.7539,8.7617,8.7734,8.75,8.75,8.75,8.75,8.7383,8.7148,8.664,8.5859,8.5937,8.6406,8.6015,8.5469,8.5405,8.5145,8.4311,8.5586,8.4648,8.3945,8.3437,8.3047,8.1758,8.1015,8.0586,7.9297,7.8672,7.8398,7.7617,7.7344,7.7305,7.7344,7.7226,7.7226,7.7187,7.7148,7.7031,7.6328,7.6015,7.5976,7.5351,7.4961,7.4883,7.4726,7.4726,7.4805,7.4687,7.4687,7.4687,7.4805,7.4883,7.4726,7.5078,7.4922,7.5078,7.5156,7.4961,7.4765,7.5703,7.6133,7.6172,7.6797,7.6523,7.4961,7.6328,7.7148,7.7344,7.8633,7.9609,7.957,7.9844,8.0156,8.0898,8.1015,8.1445,8.2109,8.2187,8.2148,8.2187,8.2265,8.2304,8.2383,8.3008,8.3515,8.3672,8.4336,8.4883,8.4883,8.4765,8.4414,8.3711,8.3047,8.2969,8.3398,8.3488,8.3707,8.4499,8.4698,8.4687,8.4839,8.4648,8.4492,8.4531,8.4687,8.4844,8.5195,8.6211,8.6875,8.707,8.7929,8.8789,8.8789,8.8711,8.8359,8.8125,8.8281,8.8359,8.7734,8.75,8.75,8.75,8.75,8.7304,8.7226,8.6601,8.6562,8.6792,8.6339,8.6059,8.5882,8.5603,8.4907,8.5703,8.4922,8.4609,8.414,8.3594,8.3008,8.2148,8.1015,8.039,7.9883,7.9336,7.9023,7.8906,7.8906,7.8906,7.8906,7.8945,7.8906,7.8633,7.8125,7.7812,7.7656,7.7617,7.7383,7.6992,7.6484,7.6406,7.6406,7.6289,7.582,7.5742,7.6289,7.6367,7.6719,7.7226,7.7812,7.8125,7.8125,7.8125,7.8086,7.8125,7.8359,7.8476,7.8555,7.8789,7.8633,7.8164,7.8125,7.8359,7.8867,7.9414,7.9961,8.0547,8.1172,8.1601,8.1836,8.1875,8.1953,8.2226,8.2344,8.2383,8.2422,8.2851,8.3164,8.3281,8.3984,8.4453,8.4531,8.5104,8.5507,8.5498,8.54,8.5079,8.4531,8.4258,8.4062,8.4414,8.4914,8.5602,8.6062,8.5814,8.5583,8.5578,8.5343,8.4947,8.5078,8.5469,8.5937,8.6679,8.75,8.8554,8.8867,8.9726,8.9961,8.9609,8.9531,8.9531,8.8867,8.8711,8.8476,8.789,8.75,8.75,8.7539,8.7539,8.75,8.7461,8.7344,8.7226,8.7132,8.6824,8.6605,8.6465,8.6035,8.546,8.6367,8.5859,8.5508,8.4883,8.4062,8.375,8.2812,8.1523,8.1133,8.0703,8.0195,7.9844,7.9726,7.9726,7.9726,7.9726,7.9726,7.9726,7.9609,7.9375,7.9023,7.8945,7.8945,7.8945,7.8711,7.8242,7.8125,7.8125,7.8086,7.7617,7.7617,7.8047,7.8125,7.8359,7.8945,7.9414,7.9726,7.9726,7.9648,7.9726,7.9687,7.9726,7.9726,7.9687,7.9726,7.9844,8.0117,8.0,8.0,8.0234,8.0469,8.0937,8.1523,8.2265,8.2773,8.2812,8.3086,8.3281,8.3281,8.3359,8.3281,8.3359,8.3789,8.4023,8.414,8.4726,8.5179,8.5221,8.5753,8.617,8.6155,8.6045,8.5851,8.5639,8.4922,8.4819,8.503,8.5795,8.6342,8.6597,8.6433,8.635,8.6286,8.62,8.5721,8.5937,8.6328,8.6758,8.7578,8.8437,8.9219,8.9961,9.0586,9.0508,9.0156,9.0312,9.0664,8.9883,8.9023,8.8476,8.7851,8.7578,8.75,8.7695,8.7734,8.7734,8.7695,8.7539,8.7382,8.7283,8.7319,8.6965,8.6788,8.672,8.628,8.75,8.7383,8.6601,8.5742,8.4922,8.4101,8.3242,8.2304,8.1484,8.1211,8.1015,8.0429,8.0078,8.0,8.0234,8.0156,7.9922,8.0078,8.0429,8.0625,8.0312,7.9961,7.9805,7.9648,7.9492,7.9492,7.9531,7.957,7.9414,7.9336,7.9687,7.9492,7.957,7.9805,8.0,7.9922,8.0273,8.0508,8.0312,8.0351,8.0234,8.0117,8.0117,8.0156,8.0234,8.0625,8.1445,8.1992,8.1992,8.1484,8.2109,8.2461,8.2617,8.3242,8.3672,8.3672,8.4453,8.4648,8.4804,8.457,8.4609,8.457,8.4726,8.4872,8.4767,8.5372,8.5807,8.569,8.6241,8.6679,8.6679,8.6617,8.6596,8.6497,8.5479,8.4989,8.5274,8.6028,8.6477,8.6566,8.6676,8.6863,8.6987,8.7127,8.7222,8.7304,8.7383,8.7617,8.7969,8.8789,8.9414,9.0234,9.1172,9.1367,9.1094,9.1289,9.1523,9.0625,8.9687,8.8945,8.8164,8.7851,8.8008,8.8125,8.8125,8.8086,8.8086,8.8047,8.8008,8.8068,8.7846,8.7352,8.7148,8.7105,8.6962,8.75,8.7461,8.7265,8.664,8.5781,8.4922,8.4062,8.3203,8.2344,8.2344,8.2578,8.1992,8.1953,8.2461,8.1875,8.164,8.1601,8.1601,8.1679,8.1914,8.1758,8.1211,8.0625,8.0,7.9765,7.9805,7.9883,7.9726,7.9726,7.9844,7.9805,7.9726,8.0429,8.1015,8.1562,8.2148,8.2929,8.3437,8.3476,8.3086,8.2578,8.25,8.2578,8.2578,8.25,8.2929,8.375,8.4101,8.414,8.3945,8.4062,8.4219,8.414,8.4375,8.457,8.4609,8.4765,8.4922,8.4922,8.4824,8.4722,8.4712,8.521,8.5345,8.5304,8.6037,8.644,8.6471,8.6593,8.6566,8.657,8.6404,8.6314,8.6296,8.6007,8.5938,8.6105,8.6443,8.6656,8.657,8.6671,8.6894,8.7075,8.7176,8.7326,8.7539,8.7929,8.832,8.8554,8.9609,9.0508,9.0976,9.1679,9.2031,9.2226,9.2344,9.2109,9.1289,9.0469,8.9726,8.8906,8.8242,8.875,8.9258,8.8984,8.8906,8.8984,8.9023,8.8984,8.8711,8.8365,8.7951,8.7739,8.766,8.7397,8.75,8.75,8.75,8.6992,8.6172,8.5625,8.4961,8.414,8.3672,8.3633,8.3945,8.3633,8.3672,8.4062,8.3594,8.3398,8.3398,8.3398,8.3398,8.3398,8.3398,8.2695,8.1719,8.0976,8.0781,8.0781,8.0781,8.082,8.0859,8.0781,8.0781,8.0937,8.1289,8.1992,8.2773,8.3281,8.4023,8.4687,8.4883,8.4609,8.4179,8.414,8.4062,8.4023,8.4046,8.4392,8.5,8.5156,8.5078,8.4922,8.4883,8.4883,8.4961,8.5273,8.5429,8.5469,8.5659,8.5859,8.5795,8.565,8.554,8.56,8.5891,8.5953,8.5986,8.6423,8.6646,8.6484,8.6403,8.6321,8.6303,8.6192,8.611,8.6145,8.6362,8.6435,8.6346,8.6404,8.6523,8.6553,8.6666,8.6855,8.7052,8.7175,8.7344,8.7578,8.8164,8.8476,8.8789,9.0312,9.1328,9.1523,9.1953,9.2304,9.2422,9.2539,9.2344,9.1562,9.1015,9.0312,8.9883,8.9101,8.9531,9.0,8.9844,8.9765,8.9844,8.9726,8.9297,8.9016,8.8764,8.8594,8.8398,8.8008,8.7734,8.75,8.75,8.75,8.707,8.6406,8.6211,8.5703,8.5117,8.4804,8.4844,8.4961,8.4922,8.4804,8.5039,8.4726,8.4804,8.4804,8.4609,8.4726,8.4687,8.457,8.3945,8.2851,8.2656,8.2578,8.2578,8.2578,8.2578,8.25,8.2461,8.25,8.25,8.2539,8.3008,8.3828,8.4023,8.4375,8.5195,8.539,8.5234,8.5,8.4883,8.4804,8.4752,8.4934,8.5162,8.5577,8.5657,8.5531,8.5156,8.5113,8.5234,8.5273,8.5898,8.6172,8.625,8.6542,8.6853,8.6951,8.6632,8.6666,8.6575,8.6587,8.6656,8.6415,8.6423,8.6369,8.62,8.611,8.6112,8.6112,8.6094,8.6094,8.6102,8.6143,8.611,8.6094,8.6094,8.6177,8.6442,8.6666,8.6855,8.7091,8.7383,8.7656,8.8008,8.8554,8.9023,8.9414,9.0429,9.1133,9.1367,9.1875,9.2539,9.2578,9.2578,9.2265,9.1758,9.1328,9.0898,9.0898,9.0508,9.0586,9.0703,9.0625,9.0625,9.0664,9.0351,8.9765,8.957,8.9492,8.9219,8.8945,8.8359,8.7969,8.75,8.75,8.75,8.7383,8.7109,8.6523,8.6094,8.5859,8.5195,8.539,8.5664,8.5234,8.5351,8.5859,8.5351,8.4883,8.5039,8.5039,8.4883,8.4883,8.4883,8.4765,8.4336,8.4336,8.4297,8.4258,8.4297,8.4297,8.4179,8.3633,8.3672,8.414,8.3633,8.4062,8.5312,8.539,8.6054,8.6719,8.6697,8.616,8.5674,8.5495,8.5384,8.5357,8.5895,8.6269,8.644,8.6501,8.6471,8.6416,8.6319,8.6166,8.6311,8.6503,8.6626,8.6656,8.6734,8.6844,8.6806,8.6681,8.6582,8.6565,8.6391,8.6253,8.6192,8.6215,8.6168,8.6094,8.6094,8.6094,8.6094,8.6094,8.6094,8.6094,8.6094,8.6094,8.6094,8.6094,8.6208,8.6461,8.6676,8.6898,8.713,8.7951,8.8242,8.8515,8.9023,8.9609,9.0195,9.0781,9.1172,9.1601,9.1992,9.2578,9.2578,9.2578,9.2383,9.2148,9.1758,9.1523,9.1523,9.1523,9.1445,9.1445,9.1523,9.1484,9.1445,9.0898,9.0312,9.0273,9.0195,9.0,8.9648,8.8945,8.8476,8.75,8.75,8.75,8.75,8.7422,8.6992,8.6797,8.6719,8.6328,8.6367,8.664,8.625,8.6406,8.6758,8.6367,8.6133,8.6133,8.6133,8.6133,8.6172,8.6172,8.6133,8.6094,8.6015,8.582,8.5117,8.4883,8.4883,8.4726,8.4531,8.4414,8.4844,8.4414,8.4804,8.5844,8.6036,8.6328,8.6914,8.7055,8.6695,8.6319,8.6179,8.6033,8.5955,8.6322,8.6472,8.6415,8.6454,8.646,8.6472,8.6484,8.6588,8.6783,8.6812,8.6812,8.6808,8.669,8.6651,8.6616,8.6449,8.6303,8.631,8.6168,8.6135,8.6094,8.6094,8.6094,8.6094,8.6094,8.6094,8.6094,8.6094,8.6094,8.6094,8.6094,8.6094,8.6094,8.6094,8.6237,8.6532,8.6747,8.7244,8.7755,8.8455,8.8984,8.9258,8.9922,9.0508,9.082,9.1406,9.1797,9.2148,9.2344,9.2578,9.2578,9.2578,9.2578,9.2461,9.2344,9.2187,9.2187,9.2148,9.207,9.207,9.2031,9.2187,9.2031,9.1445,9.0937,9.0859,9.082,9.0742,9.0469,8.9844,8.9453,8.7617,8.75,8.75,8.75,8.75,8.7422,8.7383,8.7383,8.7415,8.7148,8.7383,8.7375,8.7109,8.7304,8.7265,8.7344,8.7304,8.7226,8.6992,8.7031,8.7031,8.6992,8.7031,8.6914,8.6523,8.5273,8.5469,8.5469,8.5429,8.5156,8.5195,8.5234,8.5,8.5387,8.5838,8.6017,8.6334,8.6816,8.6812,8.6726,8.6621,8.6579,8.645,8.6333,8.6228,8.6146,8.6154,8.6168,8.6112,8.6094,8.6094,8.6314,8.6555,8.671,8.6705,8.6681,8.6484,8.6462,8.6403,8.6261,8.6135,8.6094,8.6094,8.6094,8.6094,8.6094,8.6094,8.6094,8.6094,8.6094,8.6094,8.6094,8.6094,8.6094,8.6094,8.6094,8.6094,8.6102,8.6286,8.6627,8.7001,8.7546,8.8308,8.9088,8.9545,9.0104,9.0818,9.1367,9.1719,9.1914,9.2265,9.2383,9.2539,9.2578,9.2578,9.2578,9.2578,9.2578,9.2578,9.2578,9.2578,9.25,9.2383,9.2461,9.25,9.2539,9.2422,9.1875,9.1523,9.1445,9.1133,9.0781,9.0664,9.0664,9.0429,8.8125,8.75,8.75,8.75,8.7461,8.7276,8.7168,8.7114,8.6994,8.6922,8.6933,8.6922,8.6946,8.6939,8.6922,8.6926,8.6965,8.6977,8.6962,8.6959,8.6962,8.6965,8.6974,8.6983,8.6725,8.6727,8.6672,8.6758,8.6601,8.6227,8.5961,8.6332,8.5835,8.5857,8.6342,8.6631,8.6565,8.6676,8.6621,8.6526,8.6517,8.6389,8.6281,8.6185,8.6143,8.614,8.617,8.6132,8.6094,8.6094,8.6094,8.6183,8.6345,8.6344,8.6312,8.6267,8.6261,8.62,8.62,8.6129,8.6094,8.6094,8.6094,8.6094,8.6094,8.6094,8.6094,8.6132,8.6132,8.6132,8.6094,8.6209,8.6132,8.6132,8.6094,8.6132,8.617,8.6212,8.6416,8.6874,8.7363,8.7995,8.8955,8.9957,9.0822,9.1484,9.2154,9.2512,9.2734,9.2695,9.2617,9.2617,9.2578,9.2578,9.2578,9.2578,9.2578,9.2578,9.2578,9.2578,9.2578,9.2578,9.2578,9.2578,9.2578,9.2578,9.2383,9.2109,9.207,9.1992,9.1406,9.082,9.1172,9.1484,9.1133,8.7575,8.7139,8.7137,8.7137,8.7128,8.6991,8.6959,8.6946,8.6822,8.6778,8.6778,8.6778,8.6778,8.6778,8.6778,8.6778,8.6765,8.6778,8.6778,8.6778,8.6778,8.6778,8.6761,8.6765,8.6778,8.6829,8.7005,8.7141,8.7094,8.6607,8.6527,8.6709,8.6386,8.6372,8.6573,8.662,8.6577,8.6486,8.6349,8.6288,8.6288,8.6129,8.611,8.6094,8.617,8.6324,8.6748,8.6786,8.7017,8.7286,8.7017,8.6824,8.6786,8.6709,8.6555,8.6247,8.617,8.6132,8.6094,8.6094,8.6094,8.6094,8.6094,8.6094,8.6094,8.6094,8.617,8.6247,8.6632,8.6786,8.6786,8.6748,8.6786,8.6709,8.644,8.6363,8.6594,8.6709,8.7009,8.7314,8.7642,8.8478,8.9851,9.0897,9.206,9.2869,9.3509,9.3699,9.375,9.3554,9.3281,9.3008,9.289,9.2578,9.2578,9.2578,9.2578,9.2578,9.2578,9.2578,9.2578,9.2578,9.2578,9.2578,9.2578,9.2578,9.2539,9.2344,9.2422,9.2461,9.2031,9.1797,9.2109,9.2226,9.1836,8.7114,8.6817,8.7007,8.6968,8.6808,8.6955,8.6898,8.6777,8.6909,8.683,8.6671,8.6845,8.6835,8.67,8.6651,8.6651,8.6671,8.6646,8.6625,8.6615,8.6615,8.6646,8.6661,8.6671,8.662,8.6572,8.6635,8.6729,8.6849,8.6705,8.6708,8.6671,8.671,8.6577,8.6423,8.6416,8.6268,8.6176,8.6094,8.6094,8.6094,8.6094,8.6209,8.6363,8.6363,8.6786,8.7555,8.7671,8.794,8.8179,8.8025,8.7632,8.7671,8.7671,8.7325,8.6748,8.6632,8.6555,8.6401,8.6401,8.6401,8.6132,8.6094,8.6094,8.6209,8.6324,8.6517,8.6709,8.7171,8.7671,8.7671,8.7632,8.7517,8.7248,8.6824,8.6594,8.7055,8.7363,8.7671,8.7896,8.8077,8.8971,9.0379,9.1659,9.2767,9.3574,9.4187,9.4482,9.4492,9.4336,9.4062,9.3594,9.3203,9.2734,9.2578,9.2578,9.2578,9.2578,9.2578,9.2578,9.2578,9.2578,9.2617,9.2617,9.2578,9.2578,9.2578,9.2617,9.2539,9.2539,9.2578,9.2578,9.2539,9.25,9.2265,8.7507,8.6851,8.7621,8.7513,8.6921,8.7298,8.7149,8.666,8.7097,8.6863,8.6307,8.6979,8.6971,8.6439,8.6238,8.6208,8.6215,8.6237,8.6274,8.6288,8.6259,8.6259,8.6215,8.6161,8.6267,8.6296,8.6237,8.6416,8.6604,8.6577,8.6541,8.6499,8.6342,8.6161,8.6208,8.6192,8.6143,8.6094,8.6132,8.617,8.617,8.617,8.6555,8.6978,8.7209,8.7594,8.8363,8.8556,8.8718,8.8795,8.8679,8.8564,8.8564,8.8564,8.8526,8.841,8.8333,8.8064,8.744,8.7248,8.7017,8.6594,8.6363,8.617,8.6478,8.6978,8.7525,8.8372,8.8526,8.8526,8.8556,8.8526,8.8179,8.7786,8.7478,8.7363,8.7594,8.8132,8.844,8.891,8.9254,8.9907,9.0929,9.2214,9.3393,9.4144,9.4804,9.5156,9.5312,9.5195,9.4726,9.4219,9.3906,9.3476,9.3359,9.3242,9.3164,9.3008,9.2812,9.2812,9.2812,9.2851,9.2695,9.2695,9.2695,9.2773,9.2851,9.2851,9.2656,9.2578,9.2578,9.2578,9.2578,9.2539,9.25,8.7926,8.7107,8.7029,8.7068,8.7087,8.6928,8.69,8.7056,8.7261,8.6901,8.6517,8.7555,8.7671,8.6824,8.6363,8.6102,8.6094,8.6094,8.6094,8.6132,8.6132,8.6132,8.611,8.6094,8.6094,8.617,8.611,8.6169,8.6349,8.6349,8.6283,8.6268,8.6168,8.6126,8.6094,8.6094,8.6094,8.6247,8.6517,8.6824,8.6824,8.6863,8.7017,8.7401,8.744,8.8171,8.9056,8.9363,8.9671,8.9825,8.9748,8.9402,8.9402,8.944,8.9556,9.0171,9.0633,8.9988,8.8487,8.8256,8.7902,8.7709,8.7517,8.7632,8.7632,8.791,8.8256,8.8603,8.9133,8.9363,8.9402,8.9363,8.921,8.8863,8.8402,8.8479,8.8594,8.8825,8.9286,8.9863,9.0402,9.0902,9.1561,9.2768,9.4066,9.5179,9.5976,9.6562,9.6523,9.6211,9.5625,9.4844,9.457,9.4336,9.4375,9.4375,9.4336,9.4101,9.3554,9.3476,9.3281,9.3164,9.3164,9.3203,9.3398,9.3398,9.3242,9.3008,9.2773,9.2656,9.2578,9.2578,9.2578,9.2578,9.2539,8.844,8.794,8.7325,8.7325,8.7671,8.7209,8.7333,8.7679,8.8017,8.744,8.6901,8.7517,8.7594,8.7094,8.6401,8.6094,8.6094,8.6094,8.6286,8.6363,8.6478,8.6632,8.6786,8.6709,8.6478,8.6401,8.617,8.6151,8.6126,8.6118,8.6135,8.6094,8.6118,8.6094,8.6094,8.6132,8.6209,8.6594,8.7055,8.7286,8.7325,8.7363,8.7517,8.7748,8.8055,8.8709,8.997,9.0547,9.1018,9.1171,9.1287,9.1095,9.1056,9.1133,9.1325,9.1825,9.2287,9.1902,9.0556,8.9825,8.9218,8.8833,8.8795,8.8641,8.9325,8.9325,8.9564,8.9911,9.0633,9.071,9.0393,9.0402,9.0201,8.994,8.9556,8.9701,8.9855,9.0047,9.021,9.0517,9.1018,9.1441,9.2255,9.3413,9.4698,9.6053,9.7031,9.7812,9.7617,9.7187,9.6406,9.5586,9.5117,9.4922,9.4961,9.5078,9.5195,9.5156,9.4609,9.4297,9.414,9.3984,9.3945,9.4023,9.4101,9.3828,9.3594,9.3203,9.2851,9.2695,9.2578,9.2578,9.2578,9.2578,9.2578,8.9133,8.9739,8.9624,8.9171,8.8632,8.9363,8.9171,8.8679,8.9325,8.8671,8.7286,8.6709,8.6478,8.6286,8.6286,8.6094,8.6094,8.6094,8.6555,8.7055,8.7363,8.7679,8.7786,8.7594,8.7248,8.7055,8.6632,8.6286,8.6094,8.6094,8.6094,8.6094,8.6094,8.6094,8.6094,8.6132,8.6632,8.7094,8.7555,8.7632,8.7632,8.7709,8.794,8.8632,8.9325,9.0163,9.1056,9.1672,9.2056,9.2249,9.2633,9.2864,9.2749,9.2787,9.2941,9.3287,9.348,9.3249,9.2672,9.1556,9.0325,8.9295,8.9103,8.9911,9.0864,9.1018,9.1364,9.1902,9.2326,9.2249,9.1864,9.1595,9.1287,9.1056,9.0825,9.0825,9.097,9.1171,9.1287,9.1364,9.171,9.221,9.2742,9.3882,9.4494,9.5714,9.7482,9.832,9.8242,9.7812,9.7109,9.6367,9.5703,9.5429,9.5312,9.5508,9.5898,9.5859,9.5429,9.5234,9.5078,9.4922,9.4531,9.4804,9.4883,9.4375,9.3984,9.3867,9.3554,9.289,9.2578,9.2578,9.2578,9.2578,9.2578,9.0402,9.0701,9.0701,9.0201,8.9402,8.9248,8.9286,8.9363,8.9248,8.8863,8.8094,8.6824,8.6401,8.6632,8.6286,8.6094,8.617,8.6748,8.7132,8.7517,8.7948,8.8372,8.8526,8.8402,8.794,8.7478,8.7017,8.6517,8.6132,8.6286,8.6132,8.6094,8.6247,8.6094,8.6094,8.6286,8.7017,8.7902,8.8256,8.8363,8.8902,8.8932,8.9094,8.944,8.9586,9.0355,9.1133,9.2018,9.2364,9.2749,9.3364,9.371,9.3864,9.3864,9.4057,9.445,9.4527,9.4566,9.4364,9.3441,9.2441,9.2133,9.1864,9.2018,9.2672,9.271,9.2826,9.3258,9.3557,9.3364,9.3056,9.2595,9.2249,9.2172,9.2172,9.2133,9.2095,9.2287,9.2518,9.2672,9.2864,9.3172,9.3679,9.4288,9.4736,9.5359,9.7195,9.8695,9.8736,9.8613,9.7968,9.7484,9.6866,9.664,9.6562,9.664,9.6679,9.6445,9.625,9.6094,9.5898,9.5273,9.5039,9.539,9.5625,9.5195,9.4922,9.4765,9.414,9.3047,9.2617,9.2578,9.2578,9.2578,9.2578,9.1595,9.1633,9.1864,9.1287,9.0278,8.9671,8.9748,9.0124,8.9748,8.9248,8.894,8.7325,8.6786,8.7132,8.7171,8.6709,8.6901,8.7363,8.7863,8.8363,8.8786,8.9171,8.9286,8.9094,8.8632,8.7979,8.7709,8.7401,8.6632,8.6786,8.7017,8.7055,8.6824,8.6748,8.6209,8.6748,8.7594,8.8709,8.9133,8.9248,8.9816,8.9816,8.9816,8.9932,9.0163,9.0586,9.1402,9.2249,9.2903,9.3326,9.3864,9.4441,9.4518,9.4557,9.4826,9.522,9.5605,9.5681,9.5451,9.4441,9.3787,9.3287,9.3364,9.371,9.4287,9.4287,9.4104,9.4518,9.4557,9.4326,9.4095,9.371,9.3441,9.3403,9.398,9.4018,9.3518,9.3489,9.3758,9.3989,9.4143,9.4249,9.5014,9.5644,9.6539,9.694,9.7956,9.9312,9.9671,9.9459,9.8966,9.8552,9.8202,9.8074,9.8008,9.7578,9.7148,9.7148,9.6953,9.6914,9.664,9.6015,9.5898,9.6445,9.6484,9.6094,9.5469,9.4765,9.3867,9.289,9.2695,9.2578,9.2578,9.2578,9.2578,9.2402,9.2556,9.321,9.2556,9.1133,9.1163,9.1133,9.097,9.0787,9.0248,8.9325,8.7825,8.7209,8.7478,8.7786,8.7671,8.7517,8.8209,8.8863,8.9286,8.971,9.0325,9.0441,9.0171,8.9479,8.8872,8.8603,8.8209,8.7363,8.7863,8.8256,8.8333,8.8064,8.7671,8.644,8.7786,8.9017,8.9701,8.9778,8.9855,9.0047,9.0124,9.0124,9.047,9.0855,9.1325,9.1902,9.2979,9.3633,9.3912,9.5095,9.5711,9.5788,9.5826,9.6019,9.6211,9.6826,9.7173,9.7211,9.5057,9.4403,9.4326,9.4595,9.4941,9.5749,9.5749,9.5528,9.6134,9.6211,9.548,9.5134,9.5057,9.498,9.4941,9.5518,9.548,9.4941,9.5181,9.5566,9.5989,9.5605,9.5451,9.6288,9.7194,9.8354,9.8977,9.9329,9.9814,10.0373,10.0145,9.964,9.9319,9.9007,9.865,9.8359,9.7929,9.7656,9.7695,9.7617,9.7422,9.7383,9.7109,9.7187,9.75,9.7109,9.6523,9.5508,9.4492,9.3554,9.2734,9.2656,9.2578,9.2578,9.2578,9.2578,9.2133,9.1672,9.1941,9.171,9.1287,9.1825,9.1748,9.1056,9.0056,8.9056,8.8171,8.6978,8.694,8.7363,8.7748,8.791,8.7786,8.894,8.9671,8.9286,9.0171,9.0787,9.1018,9.0816,9.0248,8.971,8.944,8.9094,8.8256,8.8756,8.8718,8.8679,8.891,8.8402,8.8055,8.8641,8.9103,8.9739,8.9932,9.0124,9.0663,9.0748,9.0941,9.1441,9.1787,9.2172,9.2633,9.3826,9.4373,9.4566,9.5788,9.6249,9.6326,9.6326,9.6557,9.6749,9.7134,9.698,9.7442,9.6903,9.6826,9.6442,9.6172,9.6596,9.7673,9.7711,9.7759,9.775,9.775,9.7288,9.7519,9.7519,9.7365,9.6749,9.6788,9.6442,9.6249,9.7134,9.7788,9.825,9.8173,9.8634,9.9327,9.9558,10.0432,10.0477,10.0657,10.0588,10.0968,10.063,10.0137,9.9908,9.956,9.9092,9.8633,9.8125,9.7773,9.7695,9.7695,9.7617,9.7656,9.7695,9.7656,9.7617,9.7265,9.6875,9.5469,9.414,9.3281,9.2656,9.2617,9.2578,9.2578,9.2578,9.2578,9.2402,9.171,9.1979,9.1902,9.171,9.1941,9.171,9.0941,8.9487,8.8487,8.8171,8.744,8.7325,8.794,8.844,8.844,8.8479,8.9633,9.0248,8.971,9.0594,9.1095,9.1163,9.1124,9.0547,9.0201,9.0163,8.994,8.9171,8.944,8.9633,8.971,8.9517,8.9671,8.9517,8.9517,8.9594,9.0201,9.0509,9.0663,9.1009,9.1201,9.1402,9.1825,9.2249,9.2672,9.3403,9.422,9.5027,9.5258,9.5711,9.6288,9.6365,9.6634,9.6779,9.6865,9.7365,9.7519,9.8404,9.8788,9.8644,9.8375,9.8173,9.8404,9.8952,9.8721,9.8875,9.899,9.9029,9.9067,9.9096,9.9183,9.9029,9.8365,9.7942,9.7596,9.7827,9.8711,9.9288,9.9827,10.0442,10.1173,10.1943,10.2327,10.2665,10.229,10.1914,10.1789,10.1548,10.1032,10.0659,10.041,9.9959,9.9356,9.875,9.8164,9.7851,9.7734,9.7734,9.7812,9.7695,9.7695,9.7695,9.7578,9.7109,9.6367,9.4961,9.3789,9.3008,9.2656,9.2617,9.2578,9.2578,9.2656,9.2695,9.321,9.2672,9.3287,9.3056,9.2326,9.1595,9.124,9.1056,8.9479,8.9133,8.9663,8.8756,8.8449,8.891,9.021,9.0325,8.9893,9.0671,9.0671,9.0825,9.0941,9.1018,9.1018,9.1018,9.0633,9.047,9.0509,9.0586,9.0086,9.0402,9.0825,9.0979,9.0748,9.0748,9.0556,9.0364,9.0364,9.0787,9.0932,9.1009,9.1163,9.1201,9.1518,9.1941,9.2441,9.2941,9.3672,9.4489,9.5027,9.5441,9.5942,9.6249,9.6634,9.7134,9.6903,9.7096,9.8057,9.9096,9.9606,9.9875,10.0058,9.9788,9.9365,9.9558,9.9673,9.9673,9.975,9.9788,9.975,9.9875,9.9952,10.0106,10.0221,9.9721,9.925,9.9211,9.9336,9.9875,10.0442,10.0981,10.1597,10.2327,10.3174,10.3789,10.4135,10.3943,10.3443,10.2828,10.2443,10.1443,10.1107,10.089,10.0309,9.953,9.8945,9.8476,9.7969,9.7812,9.7969,9.8047,9.789,9.7695,9.7695,9.7461,9.6875,9.5976,9.4922,9.3828,9.2812,9.2617,9.2617,9.2578,9.2578,9.289,9.2929,9.321,9.2479,9.2095,9.1787,9.1556,9.1287,9.1201,9.1009,9.0017,8.944,8.9017,8.8795,8.8641,8.8833,8.9787,9.0009,9.0316,9.0509,9.0133,9.0287,9.0787,9.0287,9.0287,9.0594,9.0432,9.047,9.0663,9.1047,9.0893,9.1201,9.1201,9.1163,9.1201,9.1201,9.1086,9.0941,9.1056,9.1086,9.1163,9.124,9.124,9.124,9.1787,9.2595,9.2979,9.3633,9.4788,9.5365,9.5826,9.6057,9.6711,9.7134,9.7211,9.7942,9.8211,9.8365,9.9481,10.0558,10.0289,10.0635,10.0904,10.0866,10.0558,10.0712,10.0789,10.0673,10.0558,10.0519,10.0519,10.0635,10.0827,10.1019,10.0943,10.0529,10.0135,10.0019,10.0173,10.0481,10.1058,10.1866,10.2481,10.3597,10.4443,10.502,10.5328,10.5328,10.4943,10.4174,10.3289,10.2251,10.1285,10.1063,10.0405,9.9516,9.9444,9.9101,9.8398,9.7929,9.8086,9.8086,9.7851,9.7695,9.7695,9.7304,9.6679,9.5976,9.5156,9.414,9.3203,9.2734,9.2695,9.2656,9.2656,9.2929,9.3125,9.3018,9.1979,9.1441,9.1201,9.1201,9.1201,9.1201,9.1056,9.0278,8.944,8.8756,8.8679,8.8526,8.8363,8.9316,8.9932,9.0009,9.0748,9.0748,9.0594,9.0633,9.0556,9.0441,9.0517,9.0787,9.0787,9.0816,9.1163,9.1201,9.1201,9.1201,9.1201,9.1201,9.1201,9.1163,9.1124,9.1163,9.1163,9.124,9.1402,9.1479,9.1441,9.2287,9.3364,9.3672,9.4595,9.5672,9.6057,9.6442,9.6663,9.7365,9.7673,9.7865,9.8557,9.9404,9.9558,10.0058,10.0673,10.0673,10.1019,10.1202,10.1279,10.1279,10.1241,10.1202,10.1087,10.1125,10.1125,10.1241,10.1394,10.1702,10.1904,10.1558,10.1222,10.0943,10.0673,10.0827,10.1019,10.1673,10.252,10.3558,10.4751,10.5597,10.6136,10.6318,10.5982,10.5482,10.4866,10.3943,10.2904,10.1739,10.0922,10.02,9.9456,9.9461,9.9336,9.8515,9.7929,9.7929,9.789,9.7734,9.7617,9.7578,9.707,9.6445,9.5859,9.5351,9.4687,9.3906,9.3515,9.3359,9.3476,9.332,9.2929,9.3125,9.271,9.1364,9.1201,9.1201,9.1201,9.1201,9.1201,9.1086,9.0393,8.9517,8.8833,8.891,8.8603,8.8363,8.9432,8.997,9.0124,9.0586,9.0671,9.0979,9.0778,9.0556,9.0517,9.1095,9.0893,9.1056,9.1171,9.1201,9.1201,9.1201,9.1201,9.1201,9.1201,9.1201,9.1201,9.1201,9.1201,9.1201,9.1248,9.1441,9.1825,9.1864,9.2018,9.3403,9.3903,9.4364,9.5172,9.5903,9.6673,9.7211,9.7711,9.8057,9.8827,9.925,10.0096,10.0442,10.0635,10.0789,10.1019,10.1241,10.1241,10.1279,10.1279,10.1279,10.1279,10.1279,10.1279,10.1279,10.1317,10.1212,10.1404,10.1558,10.1366,10.1135,10.0904,10.0981,10.125,10.1481,10.1943,10.2789,10.3751,10.4943,10.579,10.6213,10.6395,10.6203,10.5982,10.5405,10.4289,10.3289,10.2309,10.1066,10.0435,9.9821,9.9344,9.9101,9.8398,9.7969,9.7929,9.7812,9.7734,9.7578,9.7422,9.7031,9.664,9.6133,9.5586,9.5039,9.4687,9.4648,9.4531,9.457,9.4219,9.3633,9.3359,9.2556,9.2133,9.1479,9.1201,9.1201,9.1201,9.1201,9.121,9.1009,9.0056,8.9141,8.9787,8.9671,8.8679,8.9863,9.0355,9.0086,9.0278,8.9863,8.9979,9.0133,9.0325,8.9863,9.0787,9.0778,9.0624,9.074,9.1201,9.1201,9.1201,9.1201,9.1201,9.1201,9.1201,9.1201,9.1201,9.1201,9.1355,9.1402,9.1518,9.1748,9.2287,9.271,9.3672,9.4258,9.5018,9.5711,9.6134,9.6788,9.7365,9.8173,9.9211,10.0596,10.0635,10.0856,10.1164,10.1058,10.1087,10.1164,10.1317,10.1356,10.1356,10.1356,10.1317,10.1279,10.1279,10.1279,10.1279,10.1241,10.1096,10.1019,10.1173,10.125,10.1058,10.0943,10.1289,10.1635,10.1866,10.2174,10.2904,10.3828,10.4674,10.552,10.6097,10.6318,10.6356,10.6318,10.5751,10.4328,10.3232,10.272,10.1672,10.0988,10.0358,9.971,9.8984,9.8398,9.8125,9.8086,9.7929,9.7734,9.7656,9.7539,9.7304,9.6992,9.6679,9.625,9.5586,9.5351,9.5586,9.5508,9.5469,9.5195,9.4648,9.4219,9.2287,9.1864,9.1402,9.1201,9.1201,9.1201,9.1201,9.1201,9.1201,9.0479,8.9363,8.9748,8.9564,8.8756,8.9748,9.0325,8.997,9.0355,9.0432,9.021,8.9979,9.0248,9.0441,9.071,9.0825,9.0748,9.0932,9.1201,9.1201,9.1201,9.1201,9.1201,9.1201,9.1201,9.1201,9.124,9.1441,9.1787,9.1748,9.1941,9.2095,9.2595,9.3518,9.4403,9.5057,9.5634,9.598,9.6365,9.7057,9.8096,9.925,10.0096,10.101,10.1125,10.1202,10.1279,10.1241,10.1279,10.1279,10.1317,10.1471,10.1548,10.1356,10.1317,10.1827,10.1789,10.1317,10.1279,10.1279,10.1173,10.1173,10.125,10.1241,10.1135,10.1125,10.1317,10.1433,10.1548,10.1702,10.202,10.2789,10.3443,10.4328,10.5251,10.5482,10.5713,10.579,10.5751,10.4443,10.2635,10.2296,10.187,10.0845,10.0358,9.9745,9.9062,9.8515,9.832,9.832,9.7851,9.7578,9.7656,9.7617,9.75,9.75,9.7578,9.7109,9.6601,9.6484,9.6758,9.6562,9.6289,9.5963,9.5667,9.5358,9.1902,9.124,9.1201,9.1201,9.1201,9.1201,9.1201,9.1201,9.1163,9.0816,9.0047,8.9286,8.8902,8.8872,8.891,8.9363,8.9739,9.0017,9.0441,9.074,9.0778,9.071,9.0825,9.1124,9.1095,9.1095,9.1163,9.1201,9.1201,9.1201,9.1201,9.1201,9.1201,9.1201,9.1201,9.1402,9.1748,9.2249,9.2556,9.3095,9.321,9.3249,9.4287,9.5095,9.5634,9.5634,9.6057,9.6673,9.7365,9.8673,10.0096,10.0817,10.1164,10.1279,10.1279,10.1279,10.1279,10.1279,10.1279,10.1317,10.1702,10.1904,10.1548,10.1548,10.2058,10.1904,10.1433,10.1279,10.1279,10.1202,10.1202,10.1241,10.1241,10.1164,10.1164,10.1279,10.1279,10.1317,10.1394,10.152,10.2058,10.2674,10.3482,10.4405,10.4713,10.4953,10.4915,10.4905,10.4251,10.2135,10.0807,10.0457,9.9831,9.9462,9.9503,9.957,9.914,9.8867,9.8789,9.7969,9.7539,9.789,9.8008,9.7812,9.7851,9.8203,9.832,9.8047,9.8008,9.7812,9.7344,9.6953,9.6785,9.6528,9.6494,9.1364,9.1201,9.1201,9.1201,9.1201,9.1201,9.1201,9.1201,9.1201,9.1086,9.074,9.0086,8.9671,8.9663,8.9701,8.9893,8.9979,8.9979,8.9825,9.0009,9.047,9.0787,9.1018,9.1201,9.1201,9.1201,9.1201,9.1201,9.1201,9.1201,9.1201,9.1201,9.1248,9.1287,9.1364,9.1748,9.2402,9.2864,9.3364,9.3873,9.4489,9.4604,9.472,9.5297,9.5788,9.6019,9.6442,9.6942,9.7788,9.8942,10.0289,10.1048,10.1279,10.1279,10.1279,10.1279,10.1279,10.1279,10.1279,10.1279,10.1664,10.1827,10.1471,10.1433,10.1673,10.1625,10.1317,10.1279,10.1202,10.0943,10.0943,10.1212,10.125,10.0981,10.0866,10.1125,10.1279,10.1394,10.151,10.1827,10.2289,10.2943,10.3635,10.4212,10.4328,10.4328,10.3943,10.3943,10.403,10.1866,9.9558,9.93,9.9034,9.9105,9.9401,10.03,10.0156,9.9765,9.914,9.8242,9.7929,9.8437,9.8476,9.8203,9.8515,9.8945,9.9023,9.9179,9.8867,9.8554,9.7969,9.7539,9.7383,9.7192,9.6999]}]]